[[{"header":{"parameterUnit":"m.s-1","parameterCategory":1,"la1":31.0,"la2":29.5877,"lo1":-88.7671,"lo2":-86.6584,"dy":0.0162,"dx":0.0185,"nx":115,"ny":88,"refTime":"2026-05-11T12:00:00:Z","depth":0,"parameterNumber":2,"parameterNumberName":"U-component_of_WINDS"},"data":[0.0,0.0,0.0,0.0,0.0,0.0,0.0,0.0,0.0,0.0,0.0,0.0,0.0,0.0,0.0,0.0,0.0,0.0,0.0,0.0,0.0,0.0,0.0,0.0,0.0,0.0,0.0,0.0,0.0,0.0,0.0,0.0,0.0,0.0,0.0,0.0,0.0,0.0,0.0,0.0,0.0,0.0,0.0,0.0,0.0,0.0,0.0,0.0,0.0,0.0,0.0,0.0,0.0,0.0,0.0,0.0,0.0,0.0,0.0,0.0,0.0,0.0,0.0,0.0,0.0,0.0,0.0,0.0,0.0,0.0,0.0,0.0,0.0,0.0,0.0,0.0,0.0,0.0,0.0,0.0,0.0,0.0,0.0,0.0,0.0,0.0,0.0,0.0,0.0,0.0,0.0,0.0,0.0,0.0,0.0,0.0,0.0,0.0,0.0,0.0,0.0,0.0,0.0,0.0,0.0,0.0,0.0,0.0,0.0,0.0,0.0,0.0,0.0,0.0,0.0,0.0,0.0,0.0,0.0,0.0,0.0,0.0,0.0,0.0,0.0,0.0,0.0,0.0,0.0,0.0,0.0,0.0,0.0,0.0,0.0,0.0,0.0,0.0,0.0,0.0,0.0,0.0,0.0,0.0,0.0,0.0,0.0,0.0,0.0,0.0,0.0,0.0,0.0,0.0,0.0,0.0,0.0,0.0,0.0,0.0,0.0,0.0,0.0,0.0,0.0,0.0,0.0,0.0,0.0,0.0,0.0,0.0,0.0,0.0,0.0,0.0,0.0,0.0,0.0,0.0,0.0,0.0,0.0,0.0,0.0,0.0,0.0,0.0,0.0,0.0,0.0,0.0,0.0,0.0,0.0,0.0,0.0,0.0,0.0,0.0,0.0,0.0,0.0,0.0,0.0,0.0,0.0,0.0,0.0,0.0,0.0,0.0,0.0,0.0,0.0,0.0,0.0,0.0,0.0,0.0,0.0,0.0,0.0,0.0,0.0,0.0,0.0,0.0,0.0,0.0,0.0,0.0,0.0,0.0,0.0,0.0,0.0,0.0,0.0,0.0,0.0,0.0,0.0,0.0,0.0,0.0,0.0,0.0,0.0,0.0,0.0,0.0,0.0,0.0,0.0,0.0,0.0,0.0,0.0,0.0,0.0,0.0,0.0,0.0,0.0,0.0,0.0,0.0,0.0,0.0,0.0,0.0,0.0,0.0,0.0,0.0,0.0,0.0,0.0,0.0,0.0,0.0,0.0,0.0,0.0,0.0,0.0,0.0,0.0,0.0,0.0,0.0,0.0,0.0,0.0,0.0,0.0,0.0,0.0,0.0,0.0,0.0,0.0,0.0,0.0,0.0,0.0,0.0,0.0,0.0,0.0,0.0,0.0,0.0,0.0,0.0,0.0,0.0,0.0,0.0,0.0,0.0,0.0,0.0,0.0,0.0,0.0,0.0,0.0,0.0,0.0,0.0,0.0,0.0,0.0,0.0,0.0,0.0,0.0,0.0,0.0,0.0,0.0,0.0,0.0,0.0,0.0,0.0,0.0,0.0,0.0,0.0,0.0,0.0,0.0,0.0,0.0,0.0,0.0,0.0,0.0,0.0,0.0,0.0,0.0,0.0,0.0,0.0,0.0,0.0,0.0,0.0,0.0,0.0,0.0,0.0,0.0,0.0,0.0,0.0,0.0,0.0,0.0,0.0,0.0,0.0,0.0,0.0,0.0,0.0,0.0,0.0,0.0,0.0,0.0,0.0,0.0,0.0,0.0,0.0,0.0,0.0,0.0,0.0,0.0,0.0,0.0,0.0,0.0,0.0,0.0,0.0,0.0,0.0,0.0,0.0,0.0,0.0,0.0,0.0,0.0,0.0,0.0,0.0,0.0,0.0,0.0,0.0,0.0,0.0,0.0,0.0,0.0,0.0,0.0,0.0,0.0,0.0,0.0,0.0,0.0,0.0,0.0,0.0,0.0,0.0,0.0,0.0,0.0,0.0,0.0,0.0,0.0,0.0,0.0,0.0,0.0,0.0,0.0,0.0,0.0,0.0,0.0,0.0,0.0,0.0,0.0,0.0,0.0,0.0,0.0,0.0,0.0,0.0,0.0,0.0,0.0,0.0,0.0,0.0,0.0,0.0,0.0,0.0,0.0,0.0,0.0,0.0,0.0,0.0,0.0,0.0,0.0,0.0,0.0,0.0,0.0,0.0,0.0,0.0,0.0,0.0,0.0,0.0,0.0,0.0,0.0,0.0,0.0,0.0,0.0,0.0,0.0,0.0,0.0,0.0,0.0,0.0,0.0,0.0,0.0,0.0,0.0,0.0,0.0,0.0,0.0,0.0,0.0,0.0,0.0,0.0,0.0,0.0,0.0,0.0,0.0,0.0,0.0,0.0,0.0,0.0,0.0,0.0,0.0,0.0,0.0,0.0,0.0,0.0,0.0,0.0,0.0,0.0,0.0,0.0,0.0,0.0,0.0,0.0,0.0,0.0,0.0,0.0,0.0,0.0,0.0,0.0,0.0,0.0,0.0,0.0,0.0,0.0,0.0,0.0,0.0,0.0,0.0,0.0,0.0,0.0,0.0,0.0,0.0,0.0,0.0,0.0,0.0,0.0,0.0,0.0,0.0,0.0,0.0,0.0,0.0,0.0,0.0,0.0,0.0,0.0,0.0,0.0,0.0,0.0,0.0,0.0,0.0,0.0,0.0,0.0,0.0,0.0,0.0,0.0,0.0,0.0,0.0,0.0,0.0,0.0,0.0,0.0,0.0,0.0,0.0,0.0,0.0,0.0,0.0,0.0,0.0,0.0,0.0,0.0,0.0,0.0,0.0,0.0,0.0,0.0,0.0,0.0,0.0,0.0,0.0,0.0,0.0,0.0,0.0,0.0,0.0,0.0,0.0,0.0,0.0,0.0,0.0,0.0,0.0,0.0,0.0,0.0,0.0,0.0,0.0,0.0,0.0,0.0,0.0,0.0,0.0,0.0,0.0,0.0,0.0,0.0,0.0,0.0,0.0,0.0,0.0,0.0,0.0,0.0,0.0,0.0,0.0,0.0,0.0,0.0,0.0,0.0,0.0,0.0,0.0,0.0,0.0,0.0,0.0,0.0,0.0,0.0,0.0,0.0,0.0,0.0,0.0,0.0,0.0,0.0,0.0,0.0,0.0,0.0,0.0,0.0,0.0,0.0,0.0,0.0,0.0,0.0,0.0,0.0,0.0,0.0,0.0,0.0,0.0,0.0,0.0,0.0,0.0,0.0,0.0,0.0,0.0,0.0,0.0,0.0,0.0,0.0,0.0,0.0,0.0,0.0,0.0,0.0,0.0,0.0,0.0,0.0,0.0,0.0,0.0,0.0,0.0,0.0,0.0,0.0,0.0,0.0,0.0,0.0,0.0,0.0,0.0,0.0,0.0,0.0,0.0,0.0,0.0,0.0,0.0,0.0,0.0,0.0,0.0,0.0,0.0,0.0,0.0,0.0,0.0,0.0,0.0,0.0,0.0,0.0,0.0,0.0,0.0,0.0,0.0,0.0,0.0,0.0,0.0,0.0,0.0,0.0,0.0,0.0,0.0,0.0,0.0,0.0,0.0,0.0,0.0,0.0,0.0,0.0,0.0,0.0,0.0,0.0,0.0,0.0,0.0,0.0,0.0,0.0,0.0,0.0,0.0,0.0,0.0,0.0,0.0,0.0,0.0,0.0,0.0,0.0,0.0,0.0,0.0,0.0,0.0,0.0,0.0,0.0,0.0,0.0,0.0,0.0,0.0,0.0,0.0,0.0,0.0,0.0,0.0,0.0,0.0,0.0,0.0,0.0,0.0,0.0,0.0,0.0,0.0,0.0,0.0,0.0,0.0,0.0,0.0,0.0,0.0,0.0,0.0,0.0,0.0,0.0,0.0,0.0,0.0,0.0,0.0,0.0,0.0,0.0,0.0,0.0,0.0,0.0,0.0,0.0,0.0,0.0,0.0,0.0,0.0,0.0,0.0,0.0,0.0,0.0,0.0,0.0,0.0,0.0,0.0,0.0,0.0,0.0,0.0,0.0,0.0,0.0,0.0,0.0,0.0,0.0,0.0,0.0,0.0,0.0,0.0,0.0,0.0,0.0,0.0,0.0,0.0,0.0,0.0,0.0,0.0,0.0,0.0,0.0,0.0,0.0,0.0,0.0,0.0,0.0,0.0,0.0,0.0,0.0,0.0,0.0,0.0,0.0,0.0,0.0,0.0,0.0,0.0,0.0,0.0,0.0,0.0,0.0,0.0,0.0,0.0,0.0,1.776,0.0,0.0,0.0,0.0,0.0,0.0,0.0,0.0,0.0,0.0,0.0,0.0,0.0,0.0,0.0,0.0,0.0,0.0,0.0,0.0,0.0,0.0,0.0,0.0,0.0,0.0,0.0,0.0,0.0,0.0,0.0,0.0,0.0,0.0,0.0,0.0,0.0,0.0,0.0,0.0,0.0,0.0,0.0,0.0,0.0,0.0,0.0,0.0,0.0,0.0,0.0,0.0,0.0,0.0,0.0,0.0,0.0,0.0,0.0,0.0,0.0,0.0,0.0,0.0,0.0,0.0,0.0,0.0,0.0,0.0,0.0,0.0,0.0,0.0,0.0,0.0,0.0,0.0,0.0,0.0,0.0,0.0,0.0,0.0,0.0,0.0,0.0,0.0,0.0,0.0,0.0,0.0,0.0,0.0,0.0,0.0,0.0,0.0,0.0,0.0,0.0,0.0,0.0,0.0,0.0,0.0,0.0,0.0,0.0,0.0,2.0472,2.0392,1.9561,1.8672,1.776,0.0,0.0,0.0,0.0,0.0,0.0,0.0,0.0,0.0,0.0,0.0,0.0,0.0,0.0,0.0,0.0,0.0,0.0,0.0,0.0,0.0,0.0,0.0,0.0,0.0,0.0,0.0,0.0,0.0,0.0,0.0,0.0,0.0,0.0,0.0,0.0,0.0,0.0,0.0,0.0,0.0,0.0,0.0,0.0,0.0,0.0,0.0,0.0,0.0,0.0,0.0,0.0,0.0,0.0,0.0,0.0,0.0,0.0,0.0,0.0,0.0,0.0,0.0,0.0,0.0,0.0,0.0,0.0,0.0,0.0,0.0,0.0,0.0,0.0,0.0,0.0,0.0,0.0,0.0,0.0,0.0,0.0,0.0,0.0,0.0,0.0,0.0,0.0,0.0,0.0,0.0,0.0,0.0,0.0,0.0,0.0,0.0,0.0,0.0,0.0,0.0,0.0,0.0,0.0,0.0,0.0,0.0,0.0,0.0,0.0,0.0,0.0,2.03,1.9607,1.8895,0.0,0.0,0.0,0.0,0.0,0.0,0.0,0.0,0.0,0.0,0.0,0.0,0.0,0.0,0.0,0.0,0.0,0.0,0.0,0.0,0.0,0.0,0.0,0.0,0.0,0.0,0.0,0.0,0.0,0.0,0.0,0.0,0.0,0.0,0.0,0.0,0.0,0.0,0.0,0.0,0.0,0.0,0.0,0.0,0.0,0.0,0.0,0.0,0.0,0.0,0.0,0.0,0.0,0.0,0.0,0.0,0.0,0.0,0.0,0.0,0.0,0.0,0.0,0.0,0.0,0.0,0.0,0.0,0.0,0.0,0.0,0.0,0.0,0.0,0.0,0.0,0.0,0.0,0.0,0.0,0.0,0.0,0.0,0.0,0.0,0.0,0.0,0.0,0.0,0.0,0.0,0.0,0.0,0.0,0.0,0.0,0.0,0.0,0.0,0.0,0.0,0.0,0.0,0.0,0.0,0.0,0.0,0.0,0.0,0.0,2.1125,2.2621,2.2496,0.0,2.2282,0.0,0.0,0.0,0.0,0.0,0.0,0.0,0.0,0.0,0.0,0.0,0.0,0.0,0.0,0.0,0.0,0.0,0.0,0.0,0.0,0.0,0.0,0.0,0.0,0.0,0.0,0.0,0.0,0.0,0.0,0.0,0.0,0.0,0.0,0.0,0.0,0.0,0.0,0.0,0.0,0.0,0.0,0.0,0.0,0.0,0.0,0.0,0.0,0.0,0.0,0.0,0.0,0.0,0.0,0.0,0.0,0.0,0.0,0.0,0.0,0.0,0.0,0.0,0.0,0.0,0.0,0.0,0.0,0.0,0.0,0.0,0.0,0.0,0.0,0.0,0.0,0.0,0.0,0.0,0.0,0.0,0.0,0.0,0.0,0.0,0.0,0.0,0.0,0.0,0.0,0.0,0.0,0.0,0.0,0.0,0.0,0.0,0.0,0.0,0.0,0.0,0.0,0.0,0.0,0.0,0.0,0.0,0.0,0.0,0.0,0.0,2.2881,2.1861,2.1312,0.0,0.0,0.0,0.0,0.0,0.0,0.0,0.0,0.0,0.0,0.0,0.0,0.0,0.0,0.0,0.0,0.0,0.0,0.0,0.0,0.0,0.0,0.0,0.0,0.0,0.0,0.0,0.0,0.0,0.0,0.0,0.0,0.0,0.0,0.0,0.0,0.0,0.0,0.0,0.0,0.0,0.0,0.0,0.0,0.0,0.0,0.0,0.0,0.0,0.0,0.0,0.0,0.0,0.0,0.0,0.0,0.0,0.0,0.0,0.0,0.0,0.0,0.0,0.0,0.0,0.0,0.0,0.0,0.0,0.0,0.0,0.0,0.0,0.0,0.0,0.0,0.0,0.0,0.0,0.0,0.0,0.0,0.0,0.0,0.0,0.0,0.0,0.0,0.0,0.0,0.0,0.0,0.0,0.0,0.0,0.0,0.0,0.0,0.0,0.0,0.0,0.0,0.0,0.0,0.0,0.0,0.0,0.0,0.0,0.0,2.1321,0.0,2.3112,2.1765,2.0773,2.0312,0.0,0.0,0.0,0.0,0.0,0.0,0.0,0.0,0.0,0.0,0.0,0.0,0.0,0.0,0.0,0.0,0.0,0.0,0.0,0.0,0.0,0.0,0.0,0.0,0.0,0.0,0.0,0.0,0.0,0.0,0.0,0.0,0.0,0.0,0.0,0.0,0.0,0.0,0.0,0.0,0.0,0.0,0.0,0.0,0.0,0.0,0.0,0.0,0.0,0.0,0.0,0.0,0.0,0.0,0.0,0.0,0.0,0.0,0.0,0.0,0.0,0.0,0.0,0.0,0.0,0.0,0.0,0.0,0.0,0.0,0.0,0.0,0.0,0.0,0.0,0.0,0.0,0.0,0.0,0.0,0.0,0.0,0.0,0.0,0.0,0.0,0.0,0.0,0.0,0.0,0.0,0.0,0.0,0.0,0.0,0.0,0.0,0.0,0.0,0.0,0.0,0.0,0.0,0.0,0.0,0.0,0.0,0.0,0.0,2.2417,2.246,2.3966,2.3139,2.1927,0.0,0.0,0.0,0.0,0.0,0.0,0.0,0.0,0.0,0.0,0.0,0.0,0.0,0.0,0.0,0.0,0.0,0.0,0.0,0.0,0.0,0.0,0.0,0.0,0.0,0.0,0.0,0.0,0.0,0.0,0.0,0.0,0.0,0.0,0.0,0.0,0.0,0.0,0.0,0.0,0.0,0.0,0.0,0.0,0.0,0.0,0.0,0.0,0.0,0.0,0.0,0.0,0.0,0.0,0.0,0.0,0.0,0.0,0.0,0.0,0.0,0.0,0.0,0.0,0.0,0.0,0.0,0.0,0.0,0.0,0.0,0.0,0.0,0.0,0.0,0.0,0.0,0.0,0.0,0.0,0.0,0.0,0.0,0.0,0.0,0.0,0.0,0.0,0.0,0.0,0.0,0.0,0.0,0.0,0.0,0.0,0.0,0.0,0.0,0.0,0.0,0.0,0.0,0.0,0.0,0.0,0.0,0.0,0.0,1.9266,2.0275,2.2104,2.4639,2.1966,2.06,0.0,0.0,0.0,0.0,0.0,0.0,0.0,0.0,0.0,0.0,0.0,0.0,0.0,0.0,0.0,0.0,0.0,0.0,0.0,0.0,0.0,0.0,0.0,0.0,0.0,0.0,0.0,0.0,0.0,0.0,0.0,0.0,0.0,0.0,0.0,0.0,0.0,0.0,0.0,0.0,0.0,0.0,0.0,0.0,0.0,0.0,0.0,0.0,0.0,0.0,0.0,0.0,0.0,0.0,0.0,0.0,0.0,0.0,0.0,0.0,0.0,0.0,0.0,0.0,0.0,0.0,0.0,0.0,0.0,0.0,0.0,0.0,0.0,0.0,0.0,0.0,0.0,0.0,0.0,0.0,0.0,0.0,0.0,0.0,0.0,0.0,0.0,0.0,0.0,0.0,0.0,0.0,0.0,0.0,0.0,0.0,0.0,0.0,0.0,0.0,0.0,0.0,0.0,0.0,0.0,0.0,0.0,0.0,0.0,1.8226,0.0,2.2667,0.0,2.1054,1.9439,0.0,0.0,0.0,0.0,0.0,0.0,0.0,0.0,0.0,0.0,0.0,0.0,0.0,0.0,0.0,0.0,0.0,0.0,0.0,0.0,0.0,0.0,0.0,0.0,0.0,0.0,0.0,0.0,0.0,0.0,0.0,0.0,0.0,0.0,0.0,0.0,0.0,0.0,0.0,0.0,0.0,0.0,0.0,0.0,0.0,0.0,0.0,0.0,0.0,0.0,0.0,0.0,0.0,0.0,0.0,0.0,0.0,0.0,0.0,0.0,0.0,0.0,0.0,0.0,0.0,0.0,0.0,0.0,0.0,0.0,0.0,0.0,0.0,0.0,0.0,0.0,0.0,0.0,0.0,0.0,0.0,0.0,0.0,0.0,0.0,0.0,0.0,0.0,0.0,0.0,0.0,0.0,0.0,0.0,0.0,0.0,0.0,0.0,0.0,0.0,0.0,0.0,0.0,0.0,0.0,0.0,0.0,0.0,1.7513,2.1463,2.3914,2.3974,2.1658,2.0696,1.8708,0.0,0.0,0.0,0.0,0.0,0.0,0.0,0.0,0.0,0.0,0.0,0.0,0.0,0.0,0.0,0.0,0.0,0.0,0.0,0.0,0.0,0.0,0.0,0.0,0.0,0.0,0.0,0.0,0.0,0.0,0.0,0.0,0.0,0.0,0.0,0.0,0.0,0.0,0.0,0.0,0.0,0.0,0.0,0.0,0.0,0.0,0.0,0.0,0.0,0.0,0.0,0.0,0.0,0.0,0.0,0.0,0.0,0.0,0.0,0.0,0.0,0.0,0.0,0.0,0.0,0.0,0.0,0.0,0.0,0.0,0.0,0.0,0.0,0.0,0.0,0.0,0.0,0.0,0.0,0.0,0.0,0.0,0.0,0.0,0.0,0.0,0.0,0.0,0.0,0.0,0.0,0.0,0.0,0.0,0.0,0.0,0.0,0.0,0.0,0.0,0.0,0.0,0.0,0.0,0.0,0.0,0.0,0.0,0.0,1.9939,2.1733,2.2917,2.3167,2.0177,1.8831,0.0,0.0,0.0,0.0,0.0,0.0,0.0,0.0,0.0,0.0,0.0,0.0,0.0,0.0,0.0,0.0,0.0,0.0,0.0,0.0,0.0,0.0,0.0,0.0,0.0,0.0,0.0,0.0,0.0,0.0,0.0,0.0,0.0,0.0,0.0,0.0,0.0,0.0,0.0,0.0,0.0,0.0,0.0,0.0,0.0,0.0,0.0,0.0,0.0,0.0,0.0,0.0,0.0,0.0,0.0,0.0,0.0,0.0,0.0,0.0,0.0,0.0,0.0,0.0,0.0,0.0,0.0,0.0,0.0,0.0,0.0,0.0,0.0,0.0,0.0,0.0,0.0,0.0,0.0,0.0,0.0,0.0,0.0,0.0,0.0,0.0,0.0,0.0,0.0,0.0,0.0,0.0,0.0,0.0,0.0,0.0,0.0,0.0,0.0,0.0,0.0,0.0,0.0,0.0,0.0,0.0,0.0,0.0,0.0,2.2072,2.3542,2.4274,2.411,2.1185,1.9754,1.9985,0.0,0.0,0.0,0.0,0.0,0.0,0.0,0.0,0.0,0.0,0.0,0.0,0.0,0.0,0.0,0.0,0.0,0.0,0.0,0.0,0.0,0.0,0.0,0.0,0.0,0.0,0.0,0.0,0.0,0.0,0.0,0.0,0.0,0.0,0.0,0.0,0.0,0.0,0.0,0.0,0.0,0.0,0.0,0.0,0.0,0.0,0.0,0.0,0.0,0.0,0.0,0.0,0.0,0.0,0.0,0.0,0.0,0.0,0.0,0.0,0.0,0.0,0.0,0.0,0.0,0.0,0.0,0.0,0.0,0.0,0.0,0.0,0.0,0.0,0.0,0.0,0.0,0.0,0.0,0.0,0.0,0.0,0.0,0.0,0.0,0.0,0.0,0.0,0.0,0.0,0.0,0.0,0.0,0.0,0.0,0.0,0.0,0.0,0.0,0.0,0.0,0.0,0.0,0.0,0.0,0.0,0.0,0.0,2.6848,2.8545,2.7804,2.463,2.3428,2.1358,0.0,0.0,0.0,0.0,0.0,0.0,0.0,0.0,0.0,0.0,0.0,0.0,0.0,0.0,0.0,0.0,0.0,0.0,0.0,0.0,0.0,0.0,0.0,0.0,0.0,0.0,0.0,0.0,0.0,0.0,0.0,0.0,0.0,0.0,0.0,0.0,0.0,0.0,0.0,0.0,0.0,0.0,0.0,0.0,0.0,0.0,0.0,0.0,0.0,0.0,0.0,0.0,0.0,0.0,0.0,0.0,0.0,0.0,0.0,0.0,0.0,0.0,0.0,0.0,0.0,0.0,0.0,0.0,0.0,0.0,0.0,0.0,0.0,0.0,0.0,0.0,0.0,0.0,0.0,0.0,0.0,0.0,0.0,0.0,0.0,0.0,0.0,0.0,0.0,0.0,0.0,0.0,0.0,0.0,0.0,0.0,0.0,0.0,0.0,0.0,0.0,0.0,0.0,0.0,0.0,0.0,0.0,0.0,0.0,2.77,3.0452,3.091,2.8775,2.5505,2.334,0.0,0.0,0.0,0.0,0.0,0.0,0.0,0.0,0.0,0.0,0.0,0.0,0.0,0.0,0.0,0.0,0.0,0.0,0.0,0.0,0.0,0.0,0.0,0.0,0.0,0.0,0.0,0.0,0.0,0.0,0.0,0.0,0.0,0.0,0.0,0.0,0.0,0.0,0.0,0.0,0.0,0.0,0.0,0.0,0.0,0.0,0.0,0.0,0.0,0.0,0.0,0.0,0.0,0.0,0.0,0.0,0.0,0.0,0.0,0.0,0.0,0.0,0.0,0.0,0.0,0.0,0.0,0.0,0.0,0.0,0.0,0.0,0.0,0.0,0.0,0.0,0.0,0.0,0.0,0.0,0.0,0.0,0.0,0.0,0.0,0.0,0.0,0.0,0.0,0.0,0.0,0.0,0.0,0.0,0.0,0.0,0.0,0.0,0.0,0.0,0.0,0.0,0.0,0.0,0.0,0.0,0.0,0.0,2.7189,2.9543,3.248,3.3353,3.2025,2.8602,2.5717,0.0,0.0,0.0,0.0,0.0,0.0,0.0,0.0,0.0,0.0,0.0,0.0,0.0,0.0,0.0,0.0,0.0,0.0,0.0,0.0,0.0,0.0,0.0,0.0,0.0,0.0,0.0,0.0,0.0,0.0,0.0,0.0,0.0,0.0,0.0,0.0,0.0,0.0,0.0,0.0,0.0,0.0,0.0,0.0,0.0,0.0,0.0,0.0,0.0,0.0,0.0,0.0,0.0,0.0,0.0,0.0,0.0,0.0,0.0,0.0,0.0,0.0,0.0,0.0,0.0,0.0,0.0,0.0,0.0,0.0,0.0,0.0,0.0,0.0,0.0,0.0,0.0,0.0,0.0,0.0,0.0,0.0,0.0,0.0,0.0,0.0,0.0,0.0,0.0,0.0,0.0,0.0,0.0,0.0,0.0,0.0,0.0,0.0,0.0,0.0,0.0,0.0,0.0,0.0,0.0,0.0,0.0,0.0,2.854,3.1751,3.423,3.5084,3.418,3.1737,2.814,0.0,0.0,0.0,0.0,0.0,0.0,0.0,0.0,0.0,0.0,0.0,0.0,0.0,0.0,0.0,0.0,0.0,0.0,0.0,0.0,0.0,0.0,0.0,0.0,0.0,0.0,0.0,0.0,0.0,0.0,0.0,0.0,0.0,0.0,0.0,0.0,0.0,0.0,0.0,0.0,0.0,0.0,0.0,0.0,0.0,0.0,0.0,0.0,0.0,0.0,0.0,0.0,0.0,0.0,0.0,0.0,0.0,0.0,0.0,0.0,0.0,0.0,0.0,0.0,0.0,0.0,0.0,0.0,0.0,0.0,0.0,0.0,0.0,0.0,0.0,0.0,0.0,0.0,0.0,0.0,0.0,0.0,0.0,0.0,0.0,0.0,0.0,0.0,0.0,0.0,0.0,0.0,0.0,0.0,0.0,0.0,0.0,0.0,0.0,0.0,0.0,0.0,0.0,0.0,0.0,0.0,0.0,0.0,2.9721,3.177,3.4211,3.5084,3.4199,3.1718,2.8948,0.0,0.0,0.0,0.0,0.0,0.0,0.0,0.0,0.0,0.0,0.0,0.0,0.0,0.0,0.0,0.0,0.0,0.0,0.0,0.0,0.0,0.0,0.0,0.0,0.0,0.0,0.0,0.0,0.0,0.0,0.0,0.0,0.0,0.0,0.0,0.0,0.0,0.0,0.0,0.0,0.0,0.0,0.0,0.0,0.0,0.0,0.0,0.0,1.6432,0.0,0.0,0.0,0.0,0.0,0.0,0.0,0.0,0.0,0.0,0.0,0.0,0.0,0.0,0.0,0.0,0.0,0.0,0.0,0.0,0.0,0.0,0.0,0.0,0.0,0.0,0.0,0.0,0.0,0.0,0.0,0.0,0.0,0.0,0.0,0.0,0.0,0.0,0.0,0.0,0.0,0.0,0.0,0.0,0.0,0.0,0.0,0.0,0.0,0.0,0.0,0.0,0.0,0.0,0.0,0.0,0.0,0.0,0.0,3.0497,3.2872,3.4609,3.5084,3.418,3.2487,3.0006,0.0,0.0,0.0,0.0,0.0,0.0,0.0,0.0,0.0,0.0,0.0,0.0,0.0,0.0,0.0,0.0,0.0,0.0,0.0,0.0,0.0,0.0,0.0,0.0,0.0,0.0,0.0,0.0,0.0,0.0,0.0,0.0,0.0,0.0,0.0,0.0,0.0,0.0,0.0,0.0,0.0,0.0,0.0,0.0,0.0,0.0,0.0,0.0,0.0,0.0,0.0,0.0,0.0,0.0,0.0,0.0,0.0,0.0,0.0,0.0,0.0,0.0,0.0,0.0,0.0,0.0,0.0,0.0,0.0,0.0,0.0,0.0,0.0,0.0,0.0,0.0,0.0,0.0,0.0,0.0,0.0,0.0,0.0,0.0,0.0,0.0,0.0,0.0,0.0,0.0,0.0,0.0,0.0,0.0,0.0,0.0,0.0,0.0,0.0,0.0,0.0,0.0,0.0,0.0,0.0,0.0,0.0,2.7755,3.0881,3.4064,3.5045,3.5084,3.4218,3.3353,3.0929,2.6783,0.0,0.0,0.0,0.0,0.0,0.0,0.0,0.0,0.0,0.0,0.0,0.0,0.0,0.0,0.0,0.0,0.0,0.0,0.0,0.0,0.0,0.0,0.0,0.0,0.0,0.0,0.0,0.0,0.0,0.0,0.0,0.0,0.0,0.0,0.0,0.0,0.0,0.0,1.3689,1.612,0.0,0.0,0.0,0.0,0.0,0.0,0.0,0.0,1.724,0.0,0.0,0.0,0.0,0.0,0.0,0.0,0.0,0.0,0.0,0.0,0.0,0.0,0.0,0.0,0.0,0.0,0.0,0.0,0.0,0.0,0.0,0.0,0.0,0.0,0.0,0.0,0.0,0.0,0.0,0.0,0.0,0.0,0.0,0.0,0.0,0.0,0.0,0.0,0.0,0.0,0.0,0.0,0.0,0.0,0.0,0.0,0.0,0.0,0.0,0.0,0.0,0.0,0.0,0.0,0.0,2.7304,2.8599,3.0822,3.4103,3.5064,3.5103,3.4231,3.3353,3.0924,2.6875,0.0,0.0,0.0,0.0,0.0,0.0,0.0,0.0,0.0,0.0,0.0,0.0,0.0,0.0,0.0,0.0,0.0,0.0,0.0,0.0,0.0,0.0,0.0,0.0,0.0,0.0,0.0,0.0,0.0,0.0,0.0,0.0,0.0,0.0,0.0,0.0,0.0,0.0,0.0,1.8731,1.9794,0.0,0.0,0.0,0.0,0.0,0.0,0.0,0.0,1.6926,0.0,0.0,0.0,0.0,0.0,0.0,0.0,0.0,0.0,0.0,0.0,0.0,0.0,0.0,0.0,0.0,0.0,0.0,0.0,0.0,0.0,0.0,0.0,0.0,0.0,0.0,0.0,0.0,0.0,0.0,0.0,0.0,0.0,0.0,0.0,0.0,0.0,0.0,0.0,0.0,0.0,0.0,0.0,0.0,0.0,0.0,0.0,0.0,0.0,0.0,0.0,0.0,0.0,0.0,0.0,2.7159,2.9447,3.1947,3.4757,3.5295,3.4872,3.3545,3.2314,2.9889,0.0,0.0,0.0,0.0,0.0,0.0,0.0,0.0,0.0,0.0,0.0,0.0,0.0,0.0,0.0,0.0,0.0,0.0,0.0,0.0,0.0,0.0,0.0,0.0,0.0,0.0,0.0,0.0,0.0,0.0,0.0,0.0,0.0,0.0,0.0,0.0,0.0,0.0,0.0,0.0,1.9645,2.0644,2.1826,0.0,0.0,0.0,0.0,0.0,0.0,1.8074,1.7553,0.0,0.0,0.0,0.0,0.0,0.0,0.0,0.0,0.0,0.0,0.0,0.0,0.0,0.0,0.0,0.0,0.0,0.0,0.0,0.0,0.0,0.0,0.0,0.0,0.0,0.0,0.0,0.0,0.0,0.0,0.0,0.0,0.0,0.0,0.0,0.0,0.0,0.0,0.0,0.0,0.0,0.0,0.0,0.0,0.0,0.0,0.0,0.0,0.0,0.0,0.0,0.0,0.0,0.0,0.0,2.6664,2.9877,3.2818,3.5339,3.5334,3.4507,3.2929,3.1328,2.889,0.0,0.0,0.0,0.0,0.0,0.0,0.0,0.0,0.0,0.0,0.0,0.0,0.0,0.0,0.0,0.0,0.0,0.0,0.0,0.0,0.0,0.0,0.0,0.0,0.0,0.0,0.0,0.0,0.0,0.0,0.0,0.0,0.0,0.0,0.0,0.0,0.0,0.0,0.0,0.0,0.0,2.1989,2.2666,2.162,0.0,0.0,0.0,0.0,1.9675,1.9487,0.0,0.0,0.0,0.0,0.0,0.0,0.0,0.0,0.0,0.0,0.0,0.0,0.0,0.0,0.0,0.0,0.0,0.0,0.0,0.0,0.0,0.0,0.0,0.0,0.0,0.0,0.0,0.0,0.0,0.0,0.0,0.0,0.0,0.0,0.0,0.0,0.0,0.0,0.0,0.0,0.0,0.0,0.0,0.0,0.0,0.0,0.0,0.0,0.0,0.0,0.0,0.0,0.0,0.0,0.0,0.0,2.6612,2.9257,3.219,3.5262,3.4737,3.3872,3.291,3.1282,2.8868,0.0,0.0,0.0,0.0,0.0,0.0,0.0,0.0,0.0,0.0,0.0,0.0,0.0,0.0,0.0,0.0,0.0,0.0,0.0,0.0,0.0,0.0,0.0,0.0,0.0,0.0,0.0,0.0,0.0,0.0,0.0,0.0,0.0,0.0,0.0,0.0,0.0,0.0,0.0,0.0,0.0,2.4917,2.2299,2.1784,2.1345,0.0,0.0,2.0519,2.1363,2.2041,0.0,0.0,0.0,0.0,0.0,0.0,0.0,0.0,0.0,0.0,0.0,0.0,0.0,0.0,0.0,0.0,0.0,0.0,0.0,0.0,0.0,0.0,0.0,0.0,0.0,0.0,0.0,0.0,0.0,0.0,0.0,0.0,0.0,0.0,0.0,0.0,0.0,0.0,0.0,0.0,0.0,0.0,0.0,0.0,0.0,0.0,0.0,0.0,0.0,0.0,0.0,0.0,0.0,0.0,0.0,2.359,2.7332,3.0316,3.3023,3.5359,3.4641,3.3776,3.291,3.0355,2.7631,0.0,0.0,0.0,0.0,0.0,0.0,0.0,0.0,0.0,0.0,0.0,0.0,0.0,0.0,0.0,0.0,0.0,0.0,0.0,0.0,0.0,0.0,0.0,0.0,0.0,0.0,0.0,0.0,0.0,0.0,0.0,0.0,0.0,0.0,0.0,0.0,0.0,0.0,0.0,0.0,0.0,0.0,2.3896,2.3437,0.0,0.0,0.0,2.2593,2.2501,0.0,0.0,0.0,0.0,0.0,0.0,0.0,0.0,0.0,0.0,0.0,0.0,0.0,0.0,0.0,0.0,0.0,0.0,0.0,0.0,0.0,0.0,0.0,0.0,0.0,0.0,0.0,0.0,0.0,0.0,0.0,0.0,0.0,0.0,0.0,0.0,0.0,0.0,0.0,0.0,0.0,0.0,0.0,0.0,0.0,0.0,0.0,0.0,0.0,0.0,0.0,0.0,0.0,0.0,0.0,0.0,0.0,2.7873,3.1002,3.3434,3.5084,3.4122,3.3256,3.2583,2.9536,0.0,0.0,0.0,0.0,0.0,0.0,0.0,0.0,0.0,0.0,0.0,0.0,0.0,0.0,0.0,0.0,0.0,0.0,0.0,0.0,0.0,0.0,0.0,0.0,0.0,0.0,0.0,1.1072,0.0,0.0,0.0,0.0,0.0,0.0,0.0,0.0,0.0,0.0,0.0,0.0,0.0,0.0,2.426,2.5273,2.5049,2.501,0.0,0.0,2.4521,2.3731,2.3951,2.296,0.0,0.0,0.0,0.0,0.0,0.0,0.0,0.0,0.0,0.0,0.0,0.0,0.0,0.0,0.0,0.0,0.0,0.0,0.0,0.0,0.0,0.0,0.0,0.0,0.0,0.0,0.0,0.0,0.0,0.0,0.0,0.0,0.0,0.0,0.0,0.0,0.0,0.0,0.0,0.0,0.0,0.0,0.0,0.0,0.0,0.0,0.0,0.0,0.0,0.0,0.0,0.0,0.0,0.0,0.0,2.7835,3.0459,3.2596,3.418,3.2699,3.1852,3.1737,2.9275,2.6717,0.0,0.0,0.0,0.0,0.0,0.0,0.0,0.0,0.0,0.0,0.0,0.0,0.0,0.0,0.0,0.0,0.0,0.0,0.0,0.0,0.0,0.0,0.0,0.0,0.0,0.0,0.0,0.0,0.0,0.0,0.0,0.0,0.0,0.0,0.0,0.0,0.0,0.0,0.0,0.0,0.0,2.6123,2.5495,2.5987,2.6449,0.0,0.0,2.6142,2.5348,2.6465,2.586,2.1108,0.0,0.0,0.0,0.0,0.0,0.0,0.0,0.0,0.0,0.0,0.0,0.0,0.0,0.0,0.0,0.0,0.0,0.0,0.0,0.0,0.0,0.0,0.0,0.0,0.0,0.0,0.0,0.0,0.0,0.0,0.0,0.0,0.0,0.0,0.0,0.0,0.0,0.0,0.0,0.0,0.0,0.0,0.0,0.0,0.0,0.0,0.0,0.0,0.0,0.0,0.0,0.0,0.0,2.3876,2.6824,2.9897,3.2034,3.3125,3.2225,3.1698,3.1698,2.9217,2.6647,0.0,0.0,0.0,0.0,0.0,0.0,0.0,0.0,0.0,0.0,0.0,0.0,0.0,0.0,0.0,0.0,0.0,0.0,0.0,0.0,0.0,0.0,0.0,0.0,0.0,0.0,0.0,0.0,1.3861,1.3799,1.3878,0.0,0.0,0.0,0.0,0.0,0.0,0.0,0.0,0.0,0.0,2.6108,2.678,2.7123,0.0,0.0,2.7651,2.7065,2.6264,2.5823,2.4428,2.1035,1.9659,0.0,0.0,0.0,0.0,0.0,0.0,0.0,0.0,0.0,0.0,0.0,0.0,0.0,0.0,0.0,0.0,0.0,0.0,0.0,0.0,0.0,0.0,0.0,0.0,0.0,0.0,0.0,0.0,0.0,0.0,0.0,0.0,0.0,0.0,0.0,0.0,0.0,0.0,0.0,0.0,0.0,0.0,0.0,0.0,0.0,0.0,0.0,0.0,0.0,0.0,0.0,0.0,2.3547,2.6208,2.9493,3.1478,3.2105,3.1679,3.135,3.1063,2.913,2.6803,0.0,0.0,0.0,0.0,0.0,0.0,0.0,0.0,0.0,0.0,0.0,0.0,0.0,0.0,0.0,0.0,0.0,0.0,0.0,0.0,0.0,0.0,0.0,0.0,0.0,0.0,0.0,0.0,1.5103,1.4802,1.4398,0.0,0.0,0.0,0.0,0.0,0.0,0.0,0.0,0.0,0.0,2.6165,2.775,2.8086,2.8338,2.892,2.8306,2.7537,2.672,2.564,2.408,2.1657,0.0,0.0,0.0,0.0,0.0,0.0,0.0,0.0,0.0,0.0,0.0,0.0,0.0,0.0,0.0,0.0,0.0,0.0,0.0,0.0,0.0,0.0,0.0,0.0,0.0,0.0,0.0,0.0,0.0,0.0,1.4483,0.0,0.0,0.0,0.0,0.0,0.0,0.0,0.0,0.0,0.0,0.0,0.0,0.0,0.0,0.0,0.0,0.0,0.0,0.0,0.0,0.0,0.0,2.3484,2.6268,2.9342,3.0959,3.1033,3.0959,3.0562,2.9787,2.8846,2.7207,2.4708,0.0,0.0,0.0,0.0,0.0,0.0,0.0,0.0,0.0,0.0,0.0,0.0,0.0,0.0,0.0,0.0,0.0,0.0,0.0,0.0,0.0,0.0,0.0,0.0,0.0,0.0,1.5876,1.5866,1.5545,0.0,0.0,0.0,0.0,0.0,0.0,0.0,0.0,0.0,0.0,2.4756,2.6571,2.8164,2.8714,2.8938,2.8975,2.8319,2.7533,2.6741,2.6539,2.575,0.0,0.0,0.0,0.0,0.0,0.0,0.0,0.0,0.0,0.0,0.0,0.0,0.0,0.0,0.0,0.0,0.0,0.0,0.0,0.0,0.0,0.0,0.0,0.0,0.0,0.0,0.0,1.8055,1.7735,0.0,0.0,0.0,0.0,0.0,0.0,0.0,0.0,0.0,0.0,0.0,2.5034,2.6089,0.0,0.0,0.0,0.0,0.0,0.0,0.0,0.0,0.0,0.0,0.0,0.0,2.3473,2.6603,2.9307,3.0704,3.0748,3.0829,3.0507,2.9715,2.8848,2.6833,2.3526,0.0,0.0,0.0,0.0,0.0,0.0,0.0,0.0,0.0,0.0,0.0,0.0,0.0,0.0,0.0,0.0,0.0,0.0,0.0,0.0,0.0,0.0,0.0,0.0,0.0,1.5859,0.0,0.0,0.0,0.0,0.0,0.0,0.0,0.0,0.0,0.0,0.0,2.2105,2.4387,2.5721,2.6946,2.8223,2.8507,2.8695,0.0,0.0,0.0,0.0,0.0,0.0,0.0,0.0,0.0,0.0,0.0,0.0,0.0,0.0,2.6758,2.2305,2.0996,2.0684,2.0977,0.0,0.0,0.0,0.0,0.0,0.0,0.0,0.0,0.0,0.0,0.0,0.0,0.0,0.0,2.1292,0.0,2.0229,0.0,0.0,0.0,0.0,0.0,0.0,0.0,0.0,2.6776,2.803,2.8319,2.9357,2.9138,0.0,2.7346,2.5061,0.0,0.0,0.0,0.0,0.0,0.0,0.0,0.0,2.3868,2.7157,2.9651,3.0898,3.088,3.0996,3.0689,2.9867,2.865,2.6577,2.3608,2.0641,1.8214,0.0,0.0,0.0,0.0,0.0,0.0,0.0,0.0,0.0,0.0,0.0,0.0,0.0,0.0,0.0,0.0,0.0,0.0,0.0,0.0,0.0,0.0,0.0,1.5921,0.0,0.0,0.0,0.0,0.0,0.0,0.0,0.0,0.0,1.983,2.1662,2.3683,2.5658,2.6476,2.7307,2.8443,0.0,0.0,0.0,0.0,0.0,0.0,0.0,2.6539,2.6264,2.5407,2.489,2.5192,2.6983,2.8222,2.7692,0.0,0.0,2.4863,2.3691,2.3457,2.4023,2.4316,2.4453,2.4453,2.5093,2.5515,0.0,0.0,0.0,0.0,0.0,0.0,0.0,0.0,2.3994,2.4157,0.0,2.3409,0.0,0.0,0.0,0.0,0.0,2.4595,0.0,0.0,3.0698,3.2224,3.1543,3.1535,3.1115,3.0485,3.1806,3.0728,2.7356,2.2775,0.0,0.0,0.0,0.0,0.0,0.0,2.4748,2.8033,3.0307,3.1421,3.1421,3.1384,3.0962,3.0094,2.8191,2.6483,2.4946,2.2782,2.0263,1.7378,1.5575,0.0,0.0,0.0,0.0,0.0,0.0,0.0,0.0,0.0,0.0,0.0,0.0,0.0,0.0,0.0,0.0,0.0,0.0,0.0,0.0,1.6038,0.0,0.0,0.0,0.0,0.0,0.0,0.0,0.0,0.0,0.0,2.0666,2.3079,2.5372,2.6571,0.0,0.0,0.0,0.0,2.891,3.0051,2.958,2.9384,3.0118,2.9549,2.876,2.8026,0.0,0.0,2.6667,2.7953,2.8679,2.7129,2.7733,2.8731,3.0428,2.9082,2.8105,2.8144,2.7519,2.7129,2.7148,2.7635,2.81,2.7951,0.0,0.0,0.0,0.0,2.5616,2.7148,2.9336,2.9096,2.852,2.7742,2.6724,0.0,0.0,0.0,0.0,0.0,0.0,2.8251,2.9969,3.203,3.3411,3.4311,3.4101,3.3825,3.3642,3.2918,3.1963,3.0695,2.8189,2.4815,2.0714,0.0,0.0,0.0,0.0,2.6896,2.9509,3.1334,3.2107,3.1837,3.1293,3.0243,2.8604,2.7451,2.6517,2.584,2.3653,2.1727,2.0082,1.8017,0.0,0.0,0.0,0.0,0.0,0.0,0.0,0.0,0.0,0.0,0.0,0.0,0.0,0.0,0.0,0.0,0.0,0.0,0.0,1.5252,1.5317,1.5809,0.0,0.0,0.0,0.0,0.0,0.0,0.0,0.0,0.0,2.4088,2.528,2.6499,0.0,0.0,2.8954,2.9075,2.9704,3.0381,3.0962,0.0,0.0,0.0,3.0393,2.9989,3.0301,3.0227,3.0054,2.9889,2.9966,2.989,2.9456,2.9629,3.0044,3.0488,2.9434,2.8613,2.9043,2.9023,2.9082,2.9648,2.9902,2.9921,3.1235,2.848,2.7255,2.7106,2.769,2.8278,2.9783,3.1742,3.1989,3.1738,3.1138,3.0366,2.8929,2.706,2.5836,0.0,0.0,0.0,3.0419,3.2153,3.3232,3.4352,3.5439,3.5301,3.5339,3.5459,3.4192,3.3442,3.3239,3.1619,2.884,2.4978,0.0,0.0,2.4682,2.6581,2.8663,3.082,3.1865,3.2299,3.2204,3.1166,2.9737,2.795,2.7267,2.6568,2.5756,2.4292,2.2764,2.1269,1.9302,1.7231,0.0,0.0,0.0,0.0,0.0,0.0,0.0,0.0,0.0,0.0,0.0,1.2058,0.0,0.0,0.0,0.0,1.4144,1.5491,1.6303,1.6429,0.0,0.0,0.0,0.0,0.0,0.0,0.0,2.2801,2.4523,2.5922,2.6826,2.7588,2.8216,2.8647,2.9212,2.9679,2.9937,0.0,3.1122,3.1774,3.1873,3.199,3.2284,3.1678,3.1274,3.1667,3.1656,3.1661,3.187,3.1609,3.1429,3.1429,3.1448,3.1407,3.1187,3.0372,2.9785,3.0039,3.0117,3.0312,3.082,3.0794,3.0646,3.3619,3.332,3.0328,2.9379,2.9886,3.0609,3.156,3.2705,3.3443,3.4066,3.4523,3.388,3.3136,3.228,3.0495,0.0,3.0887,3.1987,3.2845,3.3617,3.4427,3.5137,3.5612,3.562,3.5884,3.6358,3.5532,3.51,3.5009,3.355,3.2038,3.0528,2.8676,2.8173,2.8908,2.9135,3.0137,3.189,3.2001,3.2139,3.2309,3.0882,2.94,2.7953,2.7422,2.6528,2.5207,2.4686,2.3469,2.1444,1.9844,1.8031,1.597,0.0,0.0,0.0,0.0,0.0,0.0,0.0,0.0,0.0,0.0,0.0,0.0,0.0,0.0,0.0,1.6472,0.0,1.8218,1.8663,0.0,0.0,0.0,1.9839,2.1003,2.2147,2.3444,2.4974,0.0,0.0,2.8926,0.0,3.0268,3.025,2.9988,3.0197,3.122,3.1256,3.1501,3.2556,3.269,3.2963,3.3495,3.3099,3.2667,3.2579,3.2587,3.2741,3.2929,3.2852,3.2891,3.2795,3.2923,3.2743,3.2023,3.1915,3.1875,3.123,3.0976,3.0898,3.0898,3.0742,3.0618,3.4726,3.4188,3.3395,3.2901,3.2654,3.3927,3.4663,3.5033,3.6252,3.6282,3.5351,3.5165,3.437,3.3102,3.2642,3.253,3.2774,3.3588,3.4079,3.4318,3.5446,3.6278,3.6772,3.6533,3.6693,3.7129,3.6376,3.5991,3.5954,3.4945,3.4063,3.3386,3.2322,3.0695,2.8623,3.0338,3.1347,3.1463,3.2069,3.1965,3.1133,2.9903,2.8801,2.7844,2.6635,2.5836,2.5479,2.4286,2.3427,2.2872,2.0864,1.9232,1.8141,1.5503,0.0,0.0,0.0,0.0,0.0,0.0,0.0,0.0,0.0,1.4979,1.2424,0.0,1.6333,0.0,1.7188,1.8432,1.9647,1.924,0.0,0.0,2.1704,2.1971,2.4505,2.5021,2.5698,2.6964,2.8404,2.9431,2.9803,3.0954,3.167,3.1414,3.1637,3.1864,3.1944,3.2647,3.3195,3.3468,3.3542,3.3587,3.3778,3.3839,3.3919,3.4357,3.3908,3.3605,3.3857,3.334,3.2897,3.2897,3.2904,3.2852,3.2744,3.2731,3.2771,3.2637,3.1758,3.0918,3.0918,3.0765,3.0613,3.5265,3.4936,3.4936,3.4726,3.4478,3.4949,3.5364,3.5819,3.6901,3.7095,3.6637,3.6654,3.5994,3.4928,3.4912,3.4709,3.4438,3.481,3.4979,3.503,3.5701,3.6431,3.7175,3.7003,3.7339,3.7973,3.7202,3.671,3.6437,3.5624,3.4793,3.4053,3.3605,3.221,3.0026,3.1451,3.2014,3.1537,3.179,3.1445,3.0431,2.9476,2.845,2.7334,2.6522,2.5625,2.4644,2.4146,2.3442,2.2461,2.087,1.9508,1.8439,1.6237,1.4665,0.0,0.0,0.0,0.0,0.0,0.0,0.0,0.0,0.0,0.0,0.0,1.7948,0.0,1.9005,2.0148,2.1544,2.1507,2.2148,2.3973,2.395,2.45,2.6199,2.6928,2.7708,2.8736,2.9589,3.0362,3.0987,3.1986,3.2804,3.31,3.3554,3.3686,3.3284,3.3817,3.4467,3.4853,3.4926,3.4816,3.4626,3.446,3.4593,3.4961,3.4805,3.4611,3.4735,3.4397,3.407,3.4063,3.4057,3.3916,3.3602,3.3557,3.3531,3.3172,3.2572,3.2051,3.2012,3.1568,3.1183,3.5714,3.5624,3.5624,3.5579,3.5479,3.4896,3.5049,3.5856,3.6665,3.7319,3.7862,3.7681,3.7278,3.6656,3.675,3.6346,3.5638,3.5712,3.5723,3.5639,3.5639,3.6165,3.7175,3.7199,3.7723,3.8652,3.7912,3.7294,3.6831,3.5972,3.4986,3.3864,3.3706,3.309,3.2072,3.2231,3.2142,3.172,3.1365,3.0835,3.0125,2.9364,2.8298,2.6911,2.6573,2.5507,2.3663,2.3968,2.3338,2.1443,2.056,1.9546,1.8163,1.6686,1.5561,0.0,1.4699,0.0,0.0,0.0,0.0,0.0,0.0,0.0,0.0,1.9612,2.0016,2.0673,2.1361,2.2373,2.3682,2.4407,2.4862,2.5088,2.6216,2.7005,2.7188,2.8317,2.9445,3.0146,3.0297,3.0903,3.2076,3.2891,3.3813,3.4542,3.5236,3.5436,3.496,3.5026,3.5425,3.6237,3.6332,3.6011,3.5559,3.519,3.4983,3.5162,3.5281,3.5493,3.5435,3.543,3.5449,3.5449,3.5359,3.5185,3.4485,3.4408,3.4255,3.3737,3.3608,3.3535,3.3262,3.2641,3.2096,3.6761,3.6312,3.6297,3.5998,3.5489,3.5334,3.5736,3.6513,3.788,3.8236,3.7744,3.656,3.5986,3.591,3.6467,3.634,3.5662,3.6286,3.6214,3.5639,3.5639,3.6165,3.7175,3.7199,3.7723,3.8621,3.8103,3.7763,3.7659,3.6417,3.5539,3.4961,3.4349,3.3684,3.3071,0.0,0.0,0.0,3.1224,3.0835,3.0125,2.9364,2.8535,2.7604,2.5845,0.0,2.4272,2.3274,2.2513,2.2073,2.136,0.0,0.0,0.0,0.0,0.0,0.0,0.0,0.0,0.0,0.0,0.0,2.0228,1.9737,1.9648,2.1617,2.2988,2.315,2.3613,2.4488,2.5924,2.621,2.6791,2.8018,2.8407,2.8803,2.9403,2.9719,3.0154,3.0898,3.1529,3.1992,3.2405,3.3785,3.4843,3.4971,3.5791,3.6576,3.6876,3.6383,3.6109,3.6316,3.6583,3.6435,3.5882,3.593,3.5867,3.558,3.5446,3.5526,3.5545,3.5507,3.5507,3.5507,3.5507,3.5468,3.5262,3.5262,3.5185,3.5147,3.5175,3.4885,3.3669,3.3184,3.2955,3.721,0.0,3.6941,3.6746,0.0,3.6447,3.6667,3.7033,3.7531,3.781,3.7751,3.7022,3.6446,3.6182,3.6926,3.665,3.5663,3.6441,3.6366,3.5639,3.587,3.6396,3.721,3.7202,3.76,3.8249,3.7808,3.7433,3.7137,3.6482,3.574,3.4922,3.4521,3.3997,3.3389,3.2334,3.1506,3.0752,3.1033,3.1021,3.0649,2.9905,2.8975,2.7858,0.0,0.0,0.0,0.0,0.0,0.0,0.0,0.0,0.0,0.0,0.0,1.8934,1.8981,1.9201,1.9596,2.002,2.0946,2.2486,2.2929,2.2696,2.1757,2.3346,2.4465,2.4684,2.5246,2.6043,2.7087,2.7588,2.8163,2.891,2.9341,2.9694,3.0065,3.0408,3.0898,3.1664,3.2293,3.2934,3.3705,3.5049,3.6075,3.6345,3.7111,3.776,3.7953,3.7418,3.7052,3.7558,3.7404,3.7299,3.731,3.7053,3.6927,3.6718,3.6372,3.6136,3.6098,3.5757,3.5507,3.5507,3.5507,3.5507,3.5507,3.5507,3.5526,3.5578,3.5628,3.5463,3.4647,3.4174,3.3841,3.7704,3.7599,3.7569,3.7509,3.7404,3.7404,3.7404,3.7383,0.0,0.0,0.0,3.7456,3.7038,3.6558,3.7388,3.7049,3.5889,3.6614,3.6569,3.5842,3.6101,3.6534,3.702,3.7064,3.7325,3.7755,3.7285,3.6843,3.6416,3.6291,3.5685,3.4621,3.4648,3.4267,3.3463,3.2841,3.183,3.0594,3.0982,3.1123,3.0987,3.0429,2.9431,2.8044,2.7757,2.6759,2.4966,2.4659,2.393,2.2751,2.2113,2.1429,2.0659,2.0608,2.0889,2.1549,2.2158,2.253,2.2708,2.3266,2.365,2.379,2.5135,2.5481,2.4215,2.4995,2.5647,2.5963,2.6657,2.7386,2.8169,2.8762,2.9239,2.9365,2.9951,3.0314,3.0315,3.0942,3.167,3.2349,3.3072,3.3966,3.5192,3.6292,3.7196,3.7774,3.8231,3.8707,3.8634,3.8114,3.7973,3.8608,3.8447,3.8338,3.8472,3.8288,3.7934,3.7862,3.7348,3.6958,3.6824,3.6238,3.5776,3.5762,3.5608,3.5507,3.5507,3.5507,3.5526,3.5584,3.5584,3.5624,3.5611,3.5158,3.471,3.8781,3.8257,3.8242,3.7928,3.7404,3.7404,3.7404,3.7345,3.6775,3.6603,3.6737,3.6133,3.5737,3.571,3.7152,3.7343,3.6596,3.7386,3.733,0.0,3.5977,3.5993,3.6522,3.6496,3.6781,3.723,3.6764,3.6498,3.6333,3.5958,3.5323,3.4745,3.5148,3.4818,3.3662,3.3354,3.2594,3.1275,3.1207,3.0886,3.0277,3.0159,2.9702,2.8822,2.7554,2.6725,2.6387,2.5169,2.4407,2.4218,2.41,2.3708,2.2969,2.2883,2.2987,2.3071,2.3173,2.3519,2.4159,2.4279,2.4618,2.5265,2.665,2.686,2.5531,2.6607,2.7419,2.7537,2.8163,2.8999,2.967,2.9858,3.0173,3.0746,3.0999,3.1055,3.106,3.1743,3.2405,3.2995,3.4175,3.5182,3.5931,3.7005,3.7771,3.7972,3.8404,3.8707,3.8689,3.8585,3.8597,3.8785,3.9122,3.9058,3.8753,3.8821,3.8754,3.8104,3.7969,3.7815,3.781,3.7103,3.6551,3.6512,3.5993,3.5589,3.5507,3.5507,3.5507,3.5526,3.5565,3.5605,3.563,3.5476,3.54,3.923,3.896,3.8945,3.8781,3.8497,3.8497,3.8287,3.7883,3.7255,3.6797,3.6474,3.5784,3.5489,3.5619,3.6631,3.7001,3.6734,3.7472,3.7483,3.6806,3.6701,3.6524,3.6426,3.6409,3.6516,3.6724,3.6224,3.5985,3.5941,3.5711,3.5453,3.5161,3.5453,3.5116,3.4186,3.3631,3.3093,3.2508,3.1647,3.1021,3.0717,3.07,3.0345,2.9617,2.8873,2.8129,2.7334,2.6268,2.5505,2.5111,2.4689,2.4344,2.4022,2.3978,2.4171,2.456,2.4594,2.4913,2.5654,2.5675,2.6013,2.6724,2.7419,2.7709,2.7496,2.8043,2.8454,2.8467,2.9144,2.9743,3.0091,3.0445,3.0849,3.1179,3.1533,3.177,3.1924,3.2718,3.3546,3.4283,3.5366,3.6328,3.6952,3.7796,3.8303,3.8352,3.8574,3.8707,3.8707,3.8707,3.8822,3.9127,3.9451,3.9583,3.9471,3.9727,3.9758,3.9392,3.8992,3.8742,3.8642,3.7988,3.73,3.6781,3.6372,3.6007,3.5641,3.5507,3.5507,3.5507,3.5526,3.5545,3.5565,3.5565,3.5545,3.9424,3.9424,3.9424,3.9424,3.9424,3.9424,3.911,3.8571,3.7913,3.727,3.6641,3.5863,3.5489,3.5554,3.6275,3.6726,3.7022,3.753,3.7652,3.733,3.732,3.7014,3.6509,3.6341,3.6205,3.6156,3.5783,3.5515,3.5407,3.5515,3.5639,3.5577,3.5316,3.504,3.4824,3.3856,3.3389,3.3299,3.1964,3.119,3.119,3.119,3.0903,3.0412,3.0176,2.955,2.8383,2.7606,2.6962,2.637,2.5648,2.5263,2.5211,2.5071,2.5236,2.5795,2.5862,2.6167,2.686,2.6928,2.7267,2.8009,2.8216,2.8589,2.9185,2.9417,2.9406,2.9367,2.9922,3.0366,3.0438,3.084,3.1258,3.1421,3.1924,3.2428,3.2787,3.3744,3.4763,3.5561,3.6466,3.7295,3.7969,3.8433,3.8676,3.8676,3.8707,3.8707,3.8707,3.8707,3.8931,3.9308,3.9534,3.9759,4.0302,4.0454,4.0431,4.0489,3.9992,3.9627,3.9431,3.8873,3.8166,3.7526,3.7161,3.6719,3.6007,3.5815,3.5738,3.5603,3.5507,3.5507,3.5507,3.5526,3.5526,3.9424,3.9424,3.9352,3.9424,3.9337,3.9352,3.9292,3.9143,3.8586,3.7928,3.7255,3.6058,3.5519,3.5619,3.6275,3.6977,3.763,3.7758,3.8168,3.8516,3.7432,3.6831,3.6707,3.6022,3.5701,3.5711,3.5622,3.5316,3.4847,3.5316,3.5577,3.547,3.4399,3.4382,3.5177,3.4091,3.3405,3.3373,3.1947,3.119,3.119,3.119,3.114,3.1089,3.0446,3.0057,2.9786,2.9161,2.8733,2.8645,2.7896,2.7487,2.7417,2.686,2.6522,2.6607,2.6607,2.6928,2.7621,2.7726,2.8049,2.8813,2.9458,2.9866,3.0029,3.0605,3.0705,3.0311,3.0683,3.1021,3.1089,3.1207,3.1523,3.2141,3.2336,3.2722,3.3836,3.4702,3.5586,3.6572,3.7323,3.7993,3.8478,3.8658,3.8707,3.8707,3.8817,3.8854,3.8854,3.8946,3.9061,3.9266,3.9445,3.9788,4.0139,4.0356,4.0473,4.0489,4.045,4.0296,4.0104,3.97,3.9084,3.8623,3.8315,3.7603,3.693,3.6584,3.6295,3.5795,3.5603,3.5507,3.5507,3.5545,3.5565,3.9424,3.9352,3.8708,3.8055,3.7648,3.813,3.8456,3.8456,3.8406,3.8262,3.7868,3.6649,3.5878,3.5569,3.629,3.7024,3.779,3.8231,3.865,3.8905,3.7896,3.7222,3.6726,3.6011,3.5639,3.5639,3.5639,3.547,3.5207,3.5098,3.48,3.4447,3.4235,3.4464,3.4905,3.4376,3.4054,3.3994,3.3022,3.229,3.1833,3.141,3.119,3.1173,3.0903,3.0531,3.0142,2.9773,2.9454,2.903,2.8645,2.8508,2.8516,2.8213,2.8044,2.8044,2.8047,2.8218,2.8467,2.8474,2.8864,2.9607,2.9905,3.0264,3.0718,3.1033,3.1224,3.1376,3.1275,3.1343,3.1765,3.1844,3.2141,3.2816,3.3304,3.3912,3.4763,3.5792,3.6718,3.7389,3.7977,3.8415,3.8627,3.8707,3.8707,3.8781,3.9061,3.9392,3.9428,3.9795,4.0222,4.0551,4.0865,4.0711,4.0366,4.0321,4.0492,4.0508,4.0489,4.0489,4.0431,4.0296,3.9873,3.9411,3.9027,3.845,3.7642,3.7007,3.6546,3.6103,3.5699,3.5507,3.5545,3.5584,3.5622,3.9192,3.8782,3.7814,3.693,3.6277,3.7021,3.7534,3.7863,3.8091,3.8189,3.8038,3.7103,3.6267,3.5694,3.6275,3.704,3.7806,3.858,3.9049,3.9159,3.8556,3.7935,3.7334,3.6378,3.5904,3.5887,3.5492,3.5207,3.4958,3.4137,3.3668,3.3684,3.4087,3.4399,3.4562,3.4509,3.4482,3.4457,3.376,3.3153,3.2611,3.2087,3.1613,3.1258,3.119,3.0937,3.0446,3.0415,3.014,2.9651,2.9425,2.9302,2.9313,2.911,2.9011,2.9011,2.8996,2.9098,2.9262,2.9298,2.961,3.0285,3.0415,3.0611,3.1083,3.1393,3.1811,3.2383,3.219,3.231,3.2476,3.2604,3.2942,3.3643,3.4223,3.4783,3.5728,3.6724,3.7417,3.8031,3.8425,3.8707,3.8744,3.8909,3.9093,3.9135,3.9722,4.0203,4.0276,4.0712,4.1135,4.1427,4.1798,4.1713,4.0938,4.0858,4.0877,4.0758,4.0777,4.0489,4.0489,4.0469,4.045,3.9892,3.97,3.9277,3.8488,3.7719,3.6738,3.6372,3.5911,3.5526,3.5584,3.5599,3.5695,3.8782,3.7753,3.6682,3.6212,3.6198,3.6212,3.6886,3.7699,3.7753,3.7682,3.7575,3.7366,3.6656,3.5614,3.6352,3.704,3.7806,3.8635,3.9351,3.9851,3.9244,3.8924,3.8798,3.7432,3.6712,3.6446,3.5257,3.4382,3.37,3.2407,3.2296,3.3547,3.3633,3.3974,3.4505,3.46,3.4482,3.4522,3.389,3.3433,3.3381,3.3305,3.2611,3.1461,3.1224,3.1207,3.1106,3.114,3.1089,3.1072,3.0417,3.0044,3.0006,2.9431,2.9113,2.9059,2.9053,2.9357,2.9952,3.0034,3.0353,3.0965,3.1072,3.1173,3.1309,3.185,3.2514,3.3035,3.3679,3.383,3.3598,3.3598,3.3786,3.4449,3.4575,3.5419,3.6881,3.7096,3.765,3.8346,3.864,3.8762,3.8762,3.9368,3.9735,3.996,4.0529,4.1042,4.1064,4.1134,4.1309,4.147,4.1866,4.2186,4.2288,4.1989,4.1764,4.1508,4.1027,4.0546,4.0508,4.0489,4.0431,4.0412,4.0296,3.9931,3.9296,3.8373,3.7219,3.6507,3.5839,3.5545,3.5603,3.566,3.5747,3.7343,3.5775,3.5373,3.4884,3.4332,3.4966,3.5845,3.6798,3.7062,3.7506,3.7808,3.7218,3.6567,3.6169,3.7016,3.7499,3.7937,3.9102,3.9833,4.002,3.9362,3.9009,3.8824,3.7453,3.6506,3.5993,3.5083,3.403,3.3018,3.2437,3.2422,3.2933,3.3375,3.3925,3.453,3.5004,3.5183,3.5166,3.4936,3.4594,3.415,3.41,3.3609,3.2662,3.2138,3.1664,3.1207,3.119,3.119,3.119,3.0942,3.0806,3.0768,3.0548,3.0395,3.0412,3.0408,3.0526,3.0768,3.083,3.0909,3.1157,3.119,3.1444,3.1896,3.2474,3.3266,3.431,3.4981,3.5384,3.5675,3.537,3.5353,3.605,3.6225,3.6381,3.7068,3.747,3.7791,3.8156,3.8474,3.8891,3.9381,3.9743,4.011,4.0653,4.135,4.1772,4.1974,4.2286,4.2525,4.2713,4.3218,4.3725,4.3799,4.3101,4.2492,4.197,4.145,4.1008,4.0816,4.0546,4.045,4.045,4.0489,4.0335,3.9623,3.8796,3.7661,3.6776,3.6122,3.5911,3.5641,3.5854,3.5902,3.6015,3.4733,3.4358,3.3797,3.324,3.3869,3.4978,3.6186,3.6462,3.7186,3.7813,3.7121,3.6567,3.6396,3.7032,3.7381,3.7632,3.9279,4.0087,4.0054,3.9309,3.899,3.8722,3.742,3.6493,3.5887,3.4784,3.3537,3.2388,3.2216,3.2216,3.2256,3.2933,3.3607,3.4277,3.4923,3.5346,3.5543,3.5639,3.5334,3.4912,3.4861,3.4506,3.3812,3.3254,3.2527,3.1596,3.1326,3.119,3.119,3.119,3.119,3.119,3.119,3.119,3.119,3.1173,3.119,3.1224,3.141,3.1562,3.1573,3.1816,3.2154,3.2635,3.3377,3.4328,3.5364,3.6233,3.6934,3.7363,3.72,3.697,3.7179,3.7061,3.7013,3.7205,3.7485,3.7792,3.8192,3.8793,3.9318,3.9858,4.0368,4.0901,4.1442,4.2173,4.265,4.2763,4.3094,4.3479,4.3563,4.4013,4.435,4.4486,4.4053,4.3611,4.3107,4.1931,4.145,4.1027,4.0739,4.0489,4.0489,4.045,4.0354,3.9892,3.9084,3.8219,3.7315,3.6949,3.6738,3.6453,3.6164,3.6134,3.4746,3.4511,3.3556,3.3167,3.3167,3.324,3.435,3.5897,3.617,3.6661,3.736,3.7301,3.6716,3.5954,3.6569,3.6723,3.7068,3.8924,3.985,3.9782,3.9148,3.8813,3.8703,3.7343,3.6547,3.6303,3.4506,3.2905,3.176,3.1745,3.1657,3.1712,3.2327,3.3087,3.3598,3.4374,3.4987,3.5476,3.5639,3.5588,3.5622,3.5537,3.5182,3.459,3.4438,3.3761,3.2449,3.1698,3.1376,3.1365,3.1365,3.1241,3.1416,3.1455,3.1331,3.1433,3.1348,3.1314,3.136,3.1952,3.23,3.2377,3.2925,3.3262,3.359,3.4502,3.543,3.6164,3.7147,3.8047,3.8446,3.8491,3.8129,3.736,3.702,3.6996,3.7136,3.7267,3.7613,3.8624,3.9415,3.9882,4.0281,4.1126,4.204,4.2375,4.2873,4.3314,4.3296,4.3424,4.3461,4.3631,4.4095,4.4527,4.483,4.5023,4.4748,4.428,4.2838,4.1854,4.1412,4.1066,4.0585,4.0489,4.0546,4.045,4.0085,3.9335,3.8892,3.8161,3.7892,3.7411,3.6903,3.6501,3.6294,3.4275,3.3543,3.324,3.3081,3.3081,3.3081,3.3938,3.5195,3.5465,3.6127,3.6943,3.7297,3.6941,3.6496,3.6965,3.7033,3.6753,3.7962,3.8502,3.8446,3.8254,3.8117,3.7907,3.7101,3.6122,3.5163,3.4091,3.305,3.2362,3.2183,3.1945,3.173,3.2216,3.2927,3.3583,3.4268,3.4936,3.5526,3.5639,3.5639,3.5639,3.5639,3.5504,3.5318,3.5267,3.4793,3.3829,3.3102,3.2751,3.2701,3.2713,3.2717,3.2757,3.3088,3.3083,3.2778,3.3083,3.3088,3.2751,3.2906,3.306,3.3094,3.3288,3.3853,3.4599,3.5335,3.6198,3.7129,3.8005,3.8546,3.8676,3.8817,3.8547,3.7773,3.795,3.7853,3.7642,3.8206,3.9013,3.9659,4.0328,4.0895,4.1423,4.2209,4.2522,4.2983,4.3332,4.3479,4.3479,4.3479,4.3479,4.3529,4.4106,4.4455,4.4561,4.4787,4.4913,4.4557,4.3482,4.2537,4.2036,4.1527,4.1008,4.0623,4.0642,4.0462,4.0096,3.9758,3.9354,3.8931,3.8507,3.7887,3.7137,3.6907,3.6925,3.3725,3.3167,3.3081,3.3081,3.3081,3.3081,3.3951,3.5155,3.552,3.6302,3.7244,3.7367,3.7075,3.6655,3.6751,3.6562,3.6243,3.6768,3.6951,3.6995,3.7294,3.7377,3.725,3.6569,3.5641,3.4583,3.3799,3.3155,3.2527,3.2258,3.1943,3.1642,3.1951,3.266,3.3521,3.4027,3.4645,3.5436,3.5639,3.5639,3.5639,3.5639,3.5639,3.5622,3.5622,3.5385,3.4895,3.4455,3.3948,3.3519,3.3363,3.3465,3.3676,3.3978,3.4047,3.3865,3.3928,3.3955,3.3488,3.3618,3.3794,3.3826,3.4064,3.4516,3.5356,3.5955,3.6879,3.7542,3.8558,3.9048,3.8921,3.9208,3.9024,3.8233,3.8496,3.8667,3.838,3.8961,3.9783,4.0402,4.1129,4.1739,4.2139,4.2687,4.2889,4.3387,4.3479,4.3479,4.3479,4.3479,4.3479,4.3597,4.3943,4.4117,4.4117,4.4463,4.4943,4.4603,4.4018,4.3388,4.2889,4.2343,4.1816,4.1239,4.1066,4.0739,4.0366,4.026,3.995,3.9527,3.9191,3.8907,3.8484,3.8152,3.7982,3.3081,3.3081,3.3081,3.3081,3.3081,3.3081,3.4075,3.566,3.613,3.6849,3.7812,3.7778,3.73,3.6611,3.631,3.5949,3.5644,3.5668,3.5733,3.5894,3.6212,3.6551,3.6482,3.5902,3.5228,3.4472,3.3888,3.323,3.2527,3.1989,3.1497,3.1554,3.1612,3.2234,3.3352,3.3625,3.4317,3.5453,3.5639,3.5639,3.5639,3.5639,3.5639,3.5639,3.5622,3.5588,3.5504,3.5419,3.4861,3.3753,3.3785,3.4049,3.4271,3.4363,3.4557,3.4493,3.4376,3.4163,3.3896,3.4218,3.458,3.4633,3.5076,3.5656,3.5776,3.6417,3.7044,3.7481,3.8721,3.9465,3.9226,3.9581,3.959,3.8996,3.8888,3.9012,3.9476,3.9705,4.0399,4.1176,4.1834,4.2396,4.2506,4.3039,4.3332,4.3461,4.3479,4.3479,4.3479,4.3479,4.3479,4.3646,4.3881,4.3912,4.3924,4.4346,4.4732,4.4372,4.4109,4.4015,4.3427,4.2829,4.2277,4.1739,4.1354,4.1016,4.0707,4.0552,4.0491,4.0274,4.0092,4.0111,3.9696,3.9061,3.8594,3.3081,3.3081,3.3081,3.3081,3.3081,3.3081,3.3366,3.4144,3.5575,3.6451,3.7027,3.8275,3.8392,3.7838,3.7135,3.6686,3.6148,3.5684,3.5489,3.5504,3.5668,3.5785,3.5791,3.5578,3.516,3.4532,3.4203,3.3634,3.2572,3.2273,3.1958,3.1482,3.1539,3.2234,3.3372,3.3609,3.4331,3.5436,3.5639,3.5639,3.5639,3.5639,3.5639,3.5639,3.5639,3.5639,3.5639,3.5639,3.5504,3.5142,3.5421,3.567,3.5727,3.6089,3.6068,3.5769,3.574,3.5545,3.5145,3.5165,3.529,3.5313,3.5509,3.574,3.6163,3.6439,3.7061,3.7747,3.8556,3.897,3.926,3.9642,3.988,4.0201,3.9853,3.9841,4.0482,4.1328,4.1996,4.2304,4.2775,4.3041,4.3149,4.3277,4.3479,4.3479,4.3479,4.3479,4.3479,4.3479,4.3479,4.3597,4.3758,4.3758,4.3868,4.4308,4.4401,4.4046,4.4119,4.4505,4.3732,4.2907,4.2324,4.1758,4.1614,4.1319,4.1005,4.0772,4.0779,4.0822,4.0607,4.0385,3.9773,3.9157,3.8849,3.3081,3.3081,3.3081,3.3081,3.3081,3.3081,3.3354,3.4028,3.5426,3.6465,3.7099,3.8275,3.8601,3.7958,3.7285,3.6656,3.6073,3.5684,3.5504,3.5489,3.5489,3.5554,3.5489,3.5489,3.528,3.4876,3.4322,3.3664,3.2931,3.2407,3.1898,3.1657,3.1796,3.252,3.3525,3.3946,3.4508,3.5407,3.5639,3.5639,3.5639,3.5639,3.5639,3.5639,3.5639,3.5639,3.5639,3.5639,3.5622,3.5681,3.6099,3.6429,3.6446,3.689,3.696,3.6457,3.6405,3.6163,3.5722,3.5639,3.5639,3.5673,3.5853,3.6226,3.6627,3.6977,3.7741,3.8262,3.8901,3.9324,3.9536,3.9913,4.0517,4.1041,4.1086,4.1192,4.1603,4.2244,4.274,4.3014,4.3286,4.3479,4.3479,4.3479,4.3479,4.3479,4.3479,4.3479,4.3479,4.3479,4.3513,4.3597,4.3612,4.3612,4.3631,4.3943,4.4194,4.3868,4.4138,4.4615,4.4345,4.3423,4.3131,4.2691,4.2144,4.1701,4.149,4.1247,4.1101,4.1059,4.0872,4.0539,3.9985,3.9642,3.9296,3.3081,3.3081,3.3081,3.3081,3.3081,3.3081,3.3515,3.4529,3.5534,3.6564,3.7405,3.7994,3.8042,3.7464,3.6956,3.6207,3.5684,3.5594,3.5504,3.5489,3.5489,3.5489,3.5489,3.5489,3.5385,3.51,3.4098,3.3589,3.311,3.2213,3.1792,3.1902,3.2348,3.3027,3.3763,3.4285,3.4901,3.5487,3.5639,3.5639,3.5639,3.5639,3.5639,3.5639,3.5639,3.569,3.569,3.5656,3.5639,3.5639,3.611,3.6382,3.6457,3.6882,3.6843,3.6481,3.6305,3.6053,3.5858,3.5859,3.5887,3.6067,3.6599,3.6898,3.7135,3.7729,3.834,3.8612,3.9765,3.9922,4.013,4.0596,4.1305,4.1831,4.2342,4.2706,4.279,4.2777,4.297,4.3406,4.3479,4.3479,4.3479,4.3479,4.3479,4.3479,4.3479,4.3479,4.3479,4.3479,4.3479,4.3513,4.3513,4.3513,4.3513,4.3529,4.3758,4.3804,4.4252,4.4673,4.5055,4.4551,4.4374,4.392,4.299,4.2447,4.2252,4.1992,4.1668,4.1267,4.1012,4.0754,4.0469,4.0292,4.0008,3.3081,3.3081,3.3081,3.3081,3.3081,3.3081,3.323,3.3551,3.4564,3.5664,3.6458,3.6997,3.7504,3.8008,3.6985,3.6387,3.6103,3.5729,3.5504,3.5489,3.5489,3.5489,3.5489,3.5489,3.522,3.4816,3.4472,3.3754,3.2991,3.2976,3.2792,3.2542,3.3042,3.3662,3.4334,3.4593,3.4944,3.5487,3.5639,3.5639,3.5639,3.5639,3.5622,3.5667,3.5622,3.5853,3.6051,3.5836,3.5639,3.5762,3.6068,3.6319,3.6367,3.6539,3.6574,3.6419,3.6079,3.6038,3.6412,3.6552,3.6808,3.7229,3.7444,3.7682,3.7685,3.7949,3.8427,3.8775,3.9225,3.991,4.0659,4.1669,4.2185,4.2519,4.2957,4.3286,4.3321,4.3318,4.3369,4.3442,4.3479,4.3479,4.3479,4.3479,4.3479,4.3479,4.3479,4.3479,4.3479,4.3479,4.3479,4.3479,4.3479,4.3479,4.3479,4.3548,4.3744,4.3943,4.4364,4.4806,4.517,4.5201,4.4814,4.4259,4.3602,4.3231,4.3073,4.2563,4.2198,4.1686,4.1254,4.1046,4.0893,4.0796,4.0656,3.3081,3.3081,3.3081,3.3081,3.3081,3.3081,3.3081,3.3313,3.4262,3.4955,3.56,3.6344,3.6997,3.7208,3.6722,3.6342,3.5998,3.5699,3.5489,3.5489,3.5489,3.5489,3.5489,3.5489,3.5265,3.4921,3.4592,3.4023,3.3649,3.3456,3.3501,3.3578,3.3857,3.4393,3.4996,3.5051,3.5241,3.5532,3.5639,3.5639,3.5639,3.5639,3.5783,3.5854,3.58,3.5853,3.6282,3.587,3.5656,3.5673,3.587,3.6038,3.6079,3.6284,3.6439,3.6524,3.6361,3.6569,3.711,3.73,3.7449,3.7899,3.8193,3.8379,3.8522,3.8706,3.9058,3.9443,3.987,4.04,4.1568,4.2162,4.2709,4.3086,4.3305,4.3479,4.3479,4.3479,4.3479,4.3479,4.3479,4.3479,4.3479,4.3479,4.3479,4.3479,4.3479,4.3479,4.3479,4.3479,4.3479,4.3479,4.3479,4.3479,4.3479,4.3631,4.3886,4.4125,4.4474,4.4924,4.5361,4.526,4.5009,4.4624,4.4316,4.4124,4.3879,4.333,4.2829,4.2505,4.2104,4.1643,4.1335,4.1316,4.1059,3.3081,3.3081,3.3081,3.3081,3.3081,3.3081,3.3081,3.324,3.4024,3.4545,3.4875,3.5989,3.6082,3.6042,3.6191,3.5998,3.5654,3.5534,3.5489,3.5489,3.5489,3.5489,3.5489,3.5489,3.5474,3.5429,3.4996,3.4592,3.4292,3.4085,3.4273,3.4727,3.477,3.5146,3.5695,3.5632,3.5577,3.5622,3.5639,3.5639,3.5639,3.5622,3.5854,3.6139,3.5871,3.5875,3.6168,3.5926,3.5673,3.574,3.5763,3.5847,3.6017,3.618,3.6509,3.6785,3.6857,3.7364,3.7905,3.8094,3.8113,3.821,3.8795,3.9137,3.9294,3.9614,3.9934,4.0329,4.074,4.1551,4.2559,4.2826,4.305,4.3339,4.3479,4.3479,4.3479,4.3479,4.3479,4.3479,4.3479,4.3479,4.3479,4.3479,4.3479,4.3479,4.3479,4.3479,4.3479,4.3479,4.3479,4.3479,4.3479,4.3479,4.3479,4.3529,4.3823,4.4242,4.458,4.4966,4.5419,4.5396,4.5297,4.5413,4.5201,4.4932,4.4586,4.4122,4.3698,4.3374,4.2701,4.1931,4.1758,4.1835,4.1479,3.3081,3.3081,3.3081,3.3081,3.3081,3.3081,3.3081,3.3154,3.3326,3.3862,3.4619,3.4731,3.5254,3.5669,3.5718,3.5624,3.5519,3.5489,3.5489,3.5489,3.5489,3.5489,3.5489,3.5489,3.5489,3.5489,3.5295,3.5011,3.4786,3.491,3.5156,3.5449,3.5466,3.5857,3.6248,3.6039,3.569,3.5639,3.5639,3.5639,3.5639,3.5622,3.5854,3.6266,3.5915,3.5922,3.6174,3.5956,3.5887,3.6514,3.6578,3.6902,3.7165,3.6983,3.6927,3.7055,3.7483,3.8058,3.8684,3.8836,3.9174,3.9563,3.9765,3.9833,3.9918,4.0036,4.0336,4.0938,4.1664,4.248,4.2673,4.3069,4.3321,4.3479,4.3479,4.3479,4.3479,4.3479,4.3479,4.3479,4.3479,4.3479,4.3479,4.3479,4.3479,4.3479,4.3479,4.3479,4.3479,4.3479,4.3479,4.3479,4.3479,4.3479,4.3479,4.3529,4.3712,4.4242,4.4606,4.4915,4.5282,4.5513,4.5586,4.5586,4.5586,4.5374,4.5047,4.4739,4.4489,4.4143,4.3181,4.22,4.2354,4.2508,4.1832,3.3081,3.3081,3.3081,3.3081,3.3081,3.3081,3.3081,3.3081,3.3154,3.3508,3.4045,3.4294,3.471,3.5224,3.5488,3.5504,3.5489,3.5489,3.5489,3.5489,3.5489,3.5489,3.5489,3.5489,3.5489,3.5489,3.5474,3.537,3.507,3.5295,3.5968,3.6542,3.6422,3.6568,3.6992,3.6654,3.5982,3.5774,3.5639,3.5639,3.5639,3.5639,3.5898,3.6097,3.5941,3.5898,3.6251,3.6361,3.6378,3.6803,3.7124,3.7565,3.7816,3.7978,3.7889,3.7973,3.8278,3.8785,3.9377,3.9546,3.9732,3.9969,4.0087,4.0087,4.0087,4.0154,4.0514,4.1331,4.2062,4.2808,4.3087,4.3375,4.3444,4.3479,4.3479,4.3479,4.3479,4.3479,4.3479,4.3479,4.3479,4.3479,4.3479,4.3479,4.3479,4.3479,4.3479,4.3479,4.3479,4.3479,4.3479,4.3479,4.3479,4.3479,4.3479,4.3513,4.3646,4.4136,4.4508,4.483,4.5159,4.54,4.5531,4.5586,4.5586,4.5586,4.549,4.5182,4.5047,4.4932,4.4374,4.3816,4.3431,4.3082,4.2464,3.3081,3.3081,3.3081,3.3081,3.3081,3.3081,3.3081,3.3056,3.293,3.3206,3.3673,3.3973,3.4416,3.4879,3.5303,3.5489,3.5489,3.5489,3.5489,3.5489,3.5489,3.5489,3.5489,3.5489,3.5489,3.5489,3.5489,3.5489,3.5415,3.5474,3.6352,3.6927,3.6901,3.7004,3.7466,3.6793,3.6253,3.583,3.5639,3.5639,3.5639,3.5622,3.5783,3.6182,3.581,3.5878,3.6457,3.6618,3.6996,3.7386,3.7829,3.8204,3.8405,3.889,3.9191,3.9208,3.9208,3.9563,3.9851,4.002,4.0003,4.0087,4.0087,4.0087,4.0204,4.0417,4.0891,4.1725,4.2501,4.3014,4.3375,4.3479,4.3479,4.3479,4.3479,4.3479,4.3479,4.3479,4.3479,4.3479,4.3479,4.3479,4.3479,4.3479,4.3479,4.3479,4.3479,4.3479,4.3479,4.3479,4.3479,4.3479,4.3479,4.3479,4.3479,4.3479,4.366,4.4016,4.4299,4.4575,4.495,4.5303,4.5419,4.5549,4.5586,4.5586,4.5586,4.5586,4.5393,4.5316,4.5507,4.515,4.4307,4.379,4.333,3.3081,3.3081,3.3081,3.3081,3.3081,3.3081,3.3081,3.3018,3.2566,3.2848,3.3741,3.3593,3.4066,3.4819,3.5348,3.5454,3.5489,3.5489,3.5489,3.5489,3.5489,3.5489,3.5489,3.5489,3.5489,3.5489,3.5489,3.5489,3.5489,3.5489,3.6243,3.7191,3.6766,3.6413,3.7513,3.681,3.5757,3.5656,3.5639,3.5639,3.5639,3.5639,3.565,3.5694,3.5701,3.5955,3.661,3.6916,3.7342,3.8486,3.8738,3.9177,3.9733,3.9901,3.9952,3.9952,3.9969,3.9986,4.007,4.0087,4.0087,4.0087,4.0087,4.0087,4.0254,4.0844,4.1402,4.175,4.2696,4.3286,4.3463,4.3479,4.3479,4.3479,4.3479,4.3479,4.3479,4.3479,4.3479,4.3479,4.3479,4.3479,4.3479,4.3479,4.3479,4.3479,4.3479,4.3497,4.3479,4.3479,4.3479,4.3479,4.3479,4.3479,4.3479,4.3479,4.3579,4.3893,4.409,4.4344,4.4764,4.5148,4.5362,4.5475,4.5531,4.5586,4.5586,4.5586,4.5586,4.5565,4.5526,4.5206,4.4715,4.4376,4.4212,3.278,3.3081,3.3081,3.3081,3.3081,3.3081,3.3081,3.2955,3.2466,3.2894,3.3813,3.3547,3.4072,3.5078,3.5448,3.5504,3.5489,3.5489,3.5489,3.5489,3.5489,3.5489,3.5489,3.5489,3.5489,3.5489,3.5489,3.5489,3.5489,3.5619,3.6133,3.6886,3.6947,3.6836,3.7465,3.7064,3.64,3.5926,3.5639,3.5639,3.5639,3.5639,3.5639,3.5639,3.5639,3.6096,3.6717,3.7276,3.7895,3.8931,3.931,3.975,4.0003,4.007,4.007,4.007,4.007,4.007,4.0087,4.0087,4.0087,4.0087,4.0087,4.0087,4.0237,4.0797,4.1534,4.1793,4.2541,4.3142,4.3463,4.3479,4.3479,4.3479,4.3479,4.3479,4.3479,4.3479,4.3479,4.3479,4.3516,4.3608,4.3699,4.3791,4.3718,4.3516,4.3552,4.3642,4.3552,4.3479,4.3479,4.3479,4.3479,4.3479,4.3479,4.3479,4.3479,4.3707,4.3953,4.4214,4.4636,4.4966,4.5199,4.5419,4.5549,4.5586,4.5586,4.5586,4.5586,4.5526,4.5449,4.5297,4.5207,4.5465,4.5291,3.2,3.2654,3.2654,3.2729,3.2855,3.2867,3.2943,3.3079,3.2599,3.3079,3.3943,3.408,3.4596,3.5251,3.5519,3.5489,3.5489,3.5489,3.5489,3.5489,3.5489,3.5489,3.5489,3.5489,3.5489,3.5489,3.5489,3.5489,3.5489,3.5554,3.5894,3.66,3.7044,3.727,3.7203,3.7118,3.6797,3.574,3.5639,3.5639,3.5639,3.5639,3.5639,3.569,3.5859,3.6282,3.7026,3.7814,3.8526,3.9257,3.9765,4.0037,4.0087,4.0087,4.0087,4.0087,4.0087,4.0087,4.0087,4.0087,4.0087,4.0087,4.0137,4.0203,4.0435,4.0782,4.1385,4.2021,4.2637,4.3124,4.3375,4.3479,4.3479,4.3479,4.3479,4.3479,4.3516,4.3589,4.3608,4.3571,4.3681,4.3938,4.4048,4.4158,4.4011,4.3644,4.3624,4.3771,4.3771,4.3752,4.3605,4.3624,4.3479,4.3479,4.3479,4.3479,4.3479,4.3545,4.3788,4.4128,4.4543,4.4851,4.5069,4.5304,4.5566,4.5586,4.5586,4.5586,4.5586,4.5565,4.558,4.5733,4.5841,4.6101,4.61,3.0611,3.1499,3.1512,3.1838,3.2303,3.2265,3.2591,3.3136,3.2846,3.3352,3.4372,3.4915,3.5251,3.5439,3.5489,3.5489,3.5489,3.5489,3.5489,3.5489,3.5489,3.5489,3.5489,3.5489,3.5489,3.5489,3.5489,3.5489,3.5489,3.5489,3.5943,3.6569,3.7001,3.7254,3.7277,3.7095,3.6712,3.587,3.569,3.5639,3.5656,3.5718,3.5768,3.5859,3.6349,3.706,3.7804,3.8472,3.9117,3.9833,4.0036,4.0087,4.0087,4.0087,4.0087,4.0087,4.0087,4.0087,4.0087,4.0087,4.0087,4.0087,4.0137,4.0312,4.068,4.1315,4.1943,4.2458,4.3029,4.3341,4.3499,4.3516,4.3862,4.3773,4.3883,4.4026,4.4007,4.3809,4.3809,4.3718,4.3975,4.4452,4.469,4.4856,4.4727,4.4378,4.4432,4.4579,4.4393,4.4283,4.3918,4.3752,4.3534,4.3479,4.3479,4.3479,4.3479,4.3545,4.3717,4.4073,4.4521,4.4777,4.5055,4.5342,4.5586,4.5586,4.5586,4.5586,4.5605,4.5642,4.5693,4.5804,4.5849,4.5931,4.5945,3.0493,3.0884,3.0557,3.111,3.2202,3.2202,3.2663,3.3364,3.3132,3.3593,3.4782,3.5266,3.5489,3.5489,3.5489,3.5489,3.5489,3.5489,3.5489,3.5489,3.5489,3.5489,3.5489,3.5489,3.5489,3.5489,3.5489,3.5489,3.5489,3.5489,3.5943,3.6507,3.7033,3.709,3.7102,3.7069,3.6729,3.6333,3.5904,3.5656,3.5796,3.6481,3.6669,3.6383,3.746,3.8065,3.8574,3.8809,3.9406,3.9867,4.0104,4.0087,4.0087,4.0087,4.0087,4.0087,4.0087,4.0087,4.0087,4.0087,4.0087,4.0087,4.0137,4.0343,4.0937,4.1218,4.18,4.249,4.3429,4.3835,4.3608,4.4336,4.4941,4.4524,4.4397,4.4559,4.4593,4.445,4.449,4.4618,4.4984,4.5388,4.5535,4.5663,4.5424,4.5186,4.5295,4.5349,4.5165,4.4761,4.4412,4.3899,4.3644,4.3497,4.3479,4.3479,4.3479,4.3579,4.3656,4.4087,4.4512,4.487,4.5148,4.5432,4.5586,4.5586,4.5586,4.5586,4.5605,4.5624,4.5699,4.5811,4.5828,4.5806,4.5772,3.0015,3.0344,3.0131,3.067,3.1687,3.1738,3.2388,3.3264,3.3221,3.391,3.5117,3.5391,3.5489,3.5489,3.5489,3.5489,3.5489,3.5489,3.5489,3.5489,3.5489,3.5489,3.5489,3.5489,3.5489,3.5489,3.5489,3.5489,3.5489,3.5489,3.5943,3.6631,3.7322,3.7472,3.7641,3.74,3.7352,3.7012,3.6673,3.6282,3.6508,3.712,3.7545,3.7288,3.8128,3.8657,3.895,3.9221,3.9595,3.9952,4.0087,4.0087,4.0087,4.0087,4.0087,4.0087,4.0087,4.0087,4.0087,4.0087,4.0087,4.0087,4.007,4.059,4.1223,4.1595,4.2374,4.3733,4.4286,4.4379,4.423,4.5125,4.5515,4.5114,4.5132,4.5297,4.535,4.5314,4.5443,4.5572,4.5938,4.6287,4.6471,4.6581,4.6489,4.6232,4.6158,4.614,4.5957,4.5498,4.4834,4.4285,4.3736,4.3589,4.3479,4.3479,4.3513,4.3579,4.3721,4.4114,4.4522,4.4895,4.5222,4.547,4.5586,4.5586,4.5586,4.5586,4.5586,4.5586,4.568,4.5757,4.5736,4.5714,4.5717,2.8895,2.9789,3.0344,3.0595,3.0721,3.0658,3.1573,3.2959,3.341,3.4285,3.5451,3.5564,3.5489,3.5489,3.5489,3.5489,3.5489,3.5489,3.5489,3.5489,3.5489,3.5489,3.5489,3.5489,3.5489,3.5489,3.5489,3.5489,3.5489,3.5489,3.5943,3.6798,3.769,3.8335,3.878,3.8877,3.8587,3.799,3.778,3.7597,3.7614,3.7891,3.8057,3.8119,3.8772,3.9313,3.9323,3.9647,3.9935,4.007,4.0087,4.0087,4.0087,4.0087,4.0087,4.0087,4.0087,4.0087,4.0087,4.0087,4.0222,4.0324,4.0443,4.1171,4.2464,4.3093,4.3549,4.4872,4.559,4.5718,4.579,4.5918,4.603,4.5956,4.5992,4.6212,4.6324,4.636,4.6525,4.6635,4.6874,4.715,4.737,4.7517,4.7499,4.7353,4.7151,4.6948,4.669,4.603,4.5276,4.4524,4.3883,4.3608,4.3479,4.3479,4.3495,4.3594,4.3831,4.4252,4.4625,4.4954,4.5264,4.553,4.5586,4.5568,4.5568,4.5568,4.5419,4.5283,4.5531,4.5642,4.5622,4.5624,4.5643,2.9456,2.9804,2.9993,3.0068,3.0184,3.11,3.217,3.324,3.4312,3.528,3.5881,3.5729,3.5489,3.5489,3.5489,3.5489,3.5489,3.5489,3.5489,3.5489,3.5489,3.5489,3.5489,3.5489,3.5489,3.5489,3.5489,3.5489,3.5489,3.5554,3.6368,3.7338,3.8486,3.9362,3.9473,3.9345,3.88,3.8586,3.8198,3.7891,3.8038,3.8645,3.8948,3.8698,3.96,3.9907,3.9681,3.9986,4.0054,4.0087,4.0087,4.0087,4.0087,4.0087,4.0087,4.0087,4.0087,4.0087,4.0239,4.0459,4.0815,4.0951,4.1308,4.2092,4.3492,4.4153,4.4971,4.5789,4.6452,4.6416,4.603,4.704,4.7314,4.6963,4.7036,4.7441,4.7645,4.7627,4.7681,4.7717,4.7884,4.7829,4.7957,4.7921,4.7922,4.7958,4.7739,4.7407,4.7091,4.6324,4.5478,4.4707,4.4066,4.3699,4.3479,4.3479,4.3479,4.3563,4.3937,4.4452,4.4772,4.5053,4.5341,4.5586,4.5549,4.5531,4.5362,4.5201,4.4988,4.4966,4.5203,4.5342,4.5302,4.54,4.5605,2.9779,2.9869,3.0139,3.0279,3.0394,3.13,3.2395,3.3705,3.4963,3.5774,3.5968,3.5669,3.5489,3.5489,3.5489,3.5489,3.5489,3.5489,3.5489,3.5489,3.5489,3.5489,3.5489,3.5489,3.5489,3.5489,3.5489,3.5489,3.5554,3.5782,3.6753,3.8133,3.9454,3.9816,3.9918,3.963,3.941,3.9261,3.9023,3.8821,3.9001,3.9347,3.9699,3.9691,4.0012,4.0366,4.0187,4.0087,4.0087,4.0087,4.0087,4.0087,4.0087,4.0087,4.0087,4.0087,4.0087,4.0206,4.0578,4.0832,4.141,4.2381,4.2552,4.3187,4.4307,4.5058,4.5902,4.6665,4.7186,4.7131,4.704,4.8141,4.7992,4.7642,4.7752,4.8139,4.8214,4.8141,4.8141,4.8251,4.8288,4.8306,4.8324,4.8288,4.8214,4.8251,4.8269,4.7882,4.7404,4.6507,4.5698,4.4983,4.4195,4.3681,4.3479,4.3479,4.3497,4.3532,4.3986,4.4556,4.4801,4.5067,4.5343,4.5568,4.5438,4.5263,4.4988,4.48,4.4631,4.4657,4.483,4.4919,4.4919,4.5096,4.5342,2.9779,2.9934,3.0833,3.118,3.118,3.1455,3.2506,3.4124,3.5067,3.5519,3.5519,3.5534,3.5489,3.5489,3.5489,3.5489,3.5489,3.5489,3.5489,3.5489,3.5489,3.5489,3.5489,3.5489,3.5489,3.5489,3.5489,3.5489,3.5619,3.6305,3.744,3.869,3.961,4.002,4.007,4.0002,3.9935,3.9834,3.9783,3.9648,3.9764,3.9884,4.0017,4.0018,4.0103,4.0204,4.0087,4.0087,4.0087,4.0087,4.0087,4.0087,4.0087,4.0087,4.0087,4.0155,4.0206,4.0764,4.1119,4.1376,4.2329,4.3442,4.3732,4.4331,4.5149,4.6122,4.6906,4.749,4.7994,4.8104,4.8288,4.8288,4.8269,4.8157,4.8157,4.8306,4.8306,4.8288,4.8288,4.8306,4.8306,4.8324,4.8324,4.8324,4.8306,4.8214,4.8141,4.7884,4.7332,4.6507,4.5791,4.5259,4.4488,4.3663,4.3479,4.3479,4.3479,4.3497,4.4095,4.4619,4.4834,4.508,4.54,4.5513,4.5262,4.5007,4.4657,4.4428,4.4318,4.4373,4.4401,4.4508,4.4508,4.4701,4.4896,2.9779,2.9934,3.0833,3.1167,3.1389,3.2607,3.3891,3.5067,3.5424,3.5489,3.5489,3.5489,3.5489,3.5489,3.5489,3.5489,3.5489,3.5489,3.5489,3.5489,3.5489,3.5489,3.5489,3.5489,3.5489,3.5489,3.5489,3.5489,3.5797,3.6646,3.7831,3.8854,3.9714,4.002,4.0087,4.0087,4.0087,4.0087,4.0087,4.0087,4.0087,4.0087,4.0087,4.0087,4.0087,4.0087,4.0087,4.0087,4.0087,4.0087,4.0087,4.0087,4.0087,4.0104,4.0206,4.0899,4.1306,4.1816,4.2016,4.2469,4.318,4.4251,4.4834,4.5891,4.6681,4.7239,4.7761,4.8137,4.8324,4.8324,4.8324,4.8324,4.8324,4.8324,4.8324,4.8324,4.8324,4.8324,4.8324,4.8324,4.8324,4.8324,4.8324,4.8324,4.8288,4.8141,4.7921,4.7645,4.7131,4.6287,4.57,4.5204,4.4507,4.3608,4.3479,4.3479,4.3479,4.3597,4.4165,4.4606,4.4781,4.5033,4.5419,4.5381,4.5011,4.4638,4.4233,4.4076,4.3943,4.3804,4.3804,4.3943,4.4106,4.428,4.4519,2.9779,2.9998,3.1193,3.2177,3.3045,3.4109,3.4986,3.5424,3.5489,3.5489,3.5489,3.5489,3.5489,3.5489,3.5489,3.5489,3.5489,3.5489,3.5489,3.5489,3.5489,3.5489,3.5489,3.5489,3.5489,3.5489,3.5489,3.5489,3.5973,3.7071,3.8246,3.9368,3.9952,4.002,4.0087,4.0087,4.0087,4.0087,4.0087,4.0087,4.0087,4.0087,4.0087,4.0087,4.0087,4.0087,4.0087,4.0087,4.0087,4.0087,4.0087,4.0087,4.0087,4.0104,4.0138,4.0696,4.0917,4.134,4.1694,4.2348,4.3236,4.4218,4.5281,4.6142,4.7062,4.767,4.8046,4.8324,4.8324,4.8324,4.8324,4.8324,4.8324,4.8324,4.8324,4.8324,4.8324,4.8324,4.8324,4.8324,4.8324,4.8324,4.8324,4.8324,4.8269,4.8122,4.7682,4.7095,4.6544,4.5773,4.5296,4.4911,4.4232,4.3479,4.3479,4.3479,4.3479,4.3646,4.4165,4.4553,4.4682,4.4966,4.5342,4.514,4.4707,4.4318,4.3943,4.3726,4.3597,4.3479,4.3479,4.3646,4.3823,4.3886,4.4095,2.9856,3.0062,3.1915,3.3685,3.5344,3.5424,3.5439,3.5489,3.5489,3.5489,3.5489,3.5489,3.5489,3.5489,3.5489,3.5489,3.5489,3.5489,3.5489,3.5489,3.5489,3.5489,3.5489,3.5489,3.5489,3.5489,3.5554,3.5733,3.6148,3.7175,3.8541,4.002,4.007,4.0087,4.0087,4.0087,4.0087,4.0087,4.0087,4.0087,4.0087,4.0087,4.0087,4.0087,4.0087,4.0087,4.0087,4.0087,4.0087,4.0087,4.0087,4.0087,4.0087,4.0257,4.029,4.046,4.0815,4.1153,4.168,4.2258,4.3059,4.3907,4.4663,4.5681,4.6635,4.7514,4.7847,4.8251,4.8324,4.8324,4.8324,4.8324,4.8324,4.8324,4.8324,4.8324,4.8324,4.8324,4.8324,4.8324,4.8324,4.8324,4.8324,4.8324,4.8324,4.8141,4.7407,4.6636,4.6012,4.5278,4.48,4.4507,4.4011,4.3479,4.3479,4.3479,4.3479,4.3726,4.4223,4.4474,4.4631,4.4943,4.5263,4.4853,4.4373,4.4016,4.366,4.3529,4.3479,4.3479,4.3479,4.3479,4.3548,4.3664,4.3836,3.0203,3.1044,3.289,3.4394,3.5424,3.5489,3.5489,3.5489,3.5489,3.5489,3.5489,3.5489,3.5489,3.5489,3.5489,3.5489,3.5489,3.5489,3.5489,3.5489,3.5489,3.5489,3.5489,3.5489,3.5489,3.5489,3.5619,3.6148,3.6951,3.7748,3.8541,3.9901,4.0087,4.0087,4.0087,4.0087,4.0087,4.0087,4.0087,4.0087,4.0087,4.0087,4.0087,4.0087,4.0087,4.0087,4.0087,4.0087,4.0087,4.0087,4.0087,4.0087,4.0087,4.0595,4.0865,4.1001,4.117,4.1424,4.1784,4.2243,4.3044,4.3767,4.4542,4.5332,4.6122,4.693,4.7573,4.7976,4.8324,4.8324,4.8324,4.8324,4.8324,4.8324,4.8324,4.8324,4.8324,4.8324,4.8324,4.8324,4.8324,4.8324,4.8324,4.8324,4.8324,4.7737,4.6764,4.5993,4.5553,4.4929,4.4213,4.3901,4.3809,4.3479,4.3479,4.3513,4.3548,4.3758,4.4194,4.4419,4.4606,4.4757,4.49,4.4482,4.4016,4.374,4.3579,4.3529,4.3479,4.3479,4.3479,4.3479,4.3579,4.3693,4.3849,3.0343,3.1402,3.3227,3.461,3.5424,3.5489,3.5489,3.5489,3.5489,3.5489,3.5489,3.5489,3.5489,3.5489,3.5489,3.5489,3.5489,3.5489,3.5489,3.5489,3.5489,3.5489,3.5489,3.5489,3.5489,3.5554,3.5943,3.6646,3.7748,3.8318,3.8978,3.9952,4.0087,4.0087,4.0087,4.0087,4.0087,4.0087,4.0087,4.0087,4.0087,4.0087,4.0087,4.0087,4.0087,4.0087,4.0087,4.0087,4.0087,4.0087,4.0087,4.0087,4.0138,4.0392,4.0595,4.0713,4.0916,4.1305,4.1563,4.2144,4.2791,4.3358,4.3989,4.4545,4.5186,4.5938,4.6617,4.7131,4.8122,4.8288,4.8306,4.8324,4.8324,4.8324,4.8324,4.8324,4.8324,4.8324,4.8324,4.8324,4.8324,4.8324,4.8324,4.8324,4.8269,4.7976,4.6893,4.5938,4.5388,4.4635,4.3901,4.3479,4.3479,4.3479,4.3479,4.3548,4.3597,4.3868,4.4223,4.4553,4.4757,4.4587,4.4455,4.4204,4.3974,4.3712,4.3563,4.3548,4.3479,4.3479,4.3479,4.3479,4.3646,4.3786,4.4046,3.0419,3.1609,3.3463,3.4691,3.5439,3.5489,3.5489,3.5489,3.5489,3.5489,3.5489,3.5489,3.5489,3.5489,3.5489,3.5489,3.5489,3.5489,3.5489,3.5489,3.5489,3.5489,3.5489,3.5489,3.5604,3.5894,3.629,3.71,3.8035,3.8541,3.9156,3.9901,4.0087,4.0087,4.0087,4.0087,4.0087,4.0087,4.0087,4.0087,4.0087,4.0087,4.0087,4.0087,4.0087,4.0087,4.0087,4.0087,4.0087,4.0087,4.0087,4.0087,4.0087,4.0206,4.0189,4.029,4.0324,4.0392,4.0559,4.1388,4.1842,4.2338,4.3051,4.3793,4.4525,4.5223,4.5902,4.6544,4.7535,4.8177,4.8214,4.8324,4.8324,4.8324,4.8324,4.8324,4.8324,4.8306,4.8306,4.8306,4.8288,4.8288,4.8251,4.8251,4.8067,4.781,4.7205,4.6379,4.5498,4.4544,4.3699,4.3479,4.3479,4.3479,4.3479,4.3612,4.3726,4.3986,4.4346,4.4688,4.4924,4.4806,4.4587,4.4204,4.3974,4.3791,4.3631,4.3563,4.3548,4.3513,4.3479,4.3548,4.3772,4.3955,4.4308,3.0771,3.2451,3.4409,3.5344,3.5489,3.5489,3.5489,3.5489,3.5489,3.5489,3.5489,3.5489,3.5489,3.5489,3.5489,3.5489,3.5489,3.5489,3.5489,3.5489,3.5489,3.5489,3.5574,3.5691,3.5928,3.629,3.6737,3.7408,3.8358,3.8816,3.9315,4.002,4.007,4.0087,4.0087,4.0087,4.0087,4.0087,4.0087,4.0087,4.0104,4.0104,4.0087,4.0087,4.0087,4.0087,4.0087,4.0087,4.0087,4.0087,4.0155,4.0172,4.0087,4.0087,4.0087,4.0087,4.0087,4.0189,4.0504,4.1244,4.1793,4.2584,4.3324,4.3883,4.4599,4.5333,4.581,4.5938,4.6856,4.7719,4.7939,4.8233,4.8324,4.8324,4.8324,4.8324,4.8324,4.8288,4.8269,4.8214,4.8141,4.8086,4.7976,4.7884,4.7682,4.7278,4.6562,4.5755,4.5131,4.4305,4.3479,4.3513,4.3513,4.3479,4.3513,4.3772,4.3924,4.4204,4.4463,4.483,4.5052,4.5052,4.4806,4.4401,4.4146,4.3986,4.3868,4.3712,4.3582,4.3513,4.3479,4.3563,4.3836,4.4165,4.4474]},{"header":{"parameterUnit":"m.s-1","parameterCategory":1,"la1":31.0,"la2":29.5877,"lo1":-88.7671,"lo2":-86.6584,"dy":0.0162,"dx":0.0185,"nx":115,"ny":88,"refTime":"2026-05-11T12:00:00:Z","depth":0,"parameterNumber":3,"parameterNumberName":"V-component_of_WINDS"},"data":[0.0,0.0,0.0,0.0,0.0,0.0,0.0,0.0,0.0,0.0,0.0,0.0,0.0,0.0,0.0,0.0,0.0,0.0,0.0,0.0,0.0,0.0,0.0,0.0,0.0,0.0,0.0,0.0,0.0,0.0,0.0,0.0,0.0,0.0,0.0,0.0,0.0,0.0,0.0,0.0,0.0,0.0,0.0,0.0,0.0,0.0,0.0,0.0,0.0,0.0,0.0,0.0,0.0,0.0,0.0,0.0,0.0,0.0,0.0,0.0,0.0,0.0,0.0,0.0,0.0,0.0,0.0,0.0,0.0,0.0,0.0,0.0,0.0,0.0,0.0,0.0,0.0,0.0,0.0,0.0,0.0,0.0,0.0,0.0,0.0,0.0,0.0,0.0,0.0,0.0,0.0,0.0,0.0,0.0,0.0,0.0,0.0,0.0,0.0,0.0,0.0,0.0,0.0,0.0,0.0,0.0,0.0,0.0,0.0,0.0,0.0,0.0,0.0,0.0,0.0,0.0,0.0,0.0,0.0,0.0,0.0,0.0,0.0,0.0,0.0,0.0,0.0,0.0,0.0,0.0,0.0,0.0,0.0,0.0,0.0,0.0,0.0,0.0,0.0,0.0,0.0,0.0,0.0,0.0,0.0,0.0,0.0,0.0,0.0,0.0,0.0,0.0,0.0,0.0,0.0,0.0,0.0,0.0,0.0,0.0,0.0,0.0,0.0,0.0,0.0,0.0,0.0,0.0,0.0,0.0,0.0,0.0,0.0,0.0,0.0,0.0,0.0,0.0,0.0,0.0,0.0,0.0,0.0,0.0,0.0,0.0,0.0,0.0,0.0,0.0,0.0,0.0,0.0,0.0,0.0,0.0,0.0,0.0,0.0,0.0,0.0,0.0,0.0,0.0,0.0,0.0,0.0,0.0,0.0,0.0,0.0,0.0,0.0,0.0,0.0,0.0,0.0,0.0,0.0,0.0,0.0,0.0,0.0,0.0,0.0,0.0,0.0,0.0,0.0,0.0,0.0,0.0,0.0,0.0,0.0,0.0,0.0,0.0,0.0,0.0,0.0,0.0,0.0,0.0,0.0,0.0,0.0,0.0,0.0,0.0,0.0,0.0,0.0,0.0,0.0,0.0,0.0,0.0,0.0,0.0,0.0,0.0,0.0,0.0,0.0,0.0,0.0,0.0,0.0,0.0,0.0,0.0,0.0,0.0,0.0,0.0,0.0,0.0,0.0,0.0,0.0,0.0,0.0,0.0,0.0,0.0,0.0,0.0,0.0,0.0,0.0,0.0,0.0,0.0,0.0,0.0,0.0,0.0,0.0,0.0,0.0,0.0,0.0,0.0,0.0,0.0,0.0,0.0,0.0,0.0,0.0,0.0,0.0,0.0,0.0,0.0,0.0,0.0,0.0,0.0,0.0,0.0,0.0,0.0,0.0,0.0,0.0,0.0,0.0,0.0,0.0,0.0,0.0,0.0,0.0,0.0,0.0,0.0,0.0,0.0,0.0,0.0,0.0,0.0,0.0,0.0,0.0,0.0,0.0,0.0,0.0,0.0,0.0,0.0,0.0,0.0,0.0,0.0,0.0,0.0,0.0,0.0,0.0,0.0,0.0,0.0,0.0,0.0,0.0,0.0,0.0,0.0,0.0,0.0,0.0,0.0,0.0,0.0,0.0,0.0,0.0,0.0,0.0,0.0,0.0,0.0,0.0,0.0,0.0,0.0,0.0,0.0,0.0,0.0,0.0,0.0,0.0,0.0,0.0,0.0,0.0,0.0,0.0,0.0,0.0,0.0,0.0,0.0,0.0,0.0,0.0,0.0,0.0,0.0,0.0,0.0,0.0,0.0,0.0,0.0,0.0,0.0,0.0,0.0,0.0,0.0,0.0,0.0,0.0,0.0,0.0,0.0,0.0,0.0,0.0,0.0,0.0,0.0,0.0,0.0,0.0,0.0,0.0,0.0,0.0,0.0,0.0,0.0,0.0,0.0,0.0,0.0,0.0,0.0,0.0,0.0,0.0,0.0,0.0,0.0,0.0,0.0,0.0,0.0,0.0,0.0,0.0,0.0,0.0,0.0,0.0,0.0,0.0,0.0,0.0,0.0,0.0,0.0,0.0,0.0,0.0,0.0,0.0,0.0,0.0,0.0,0.0,0.0,0.0,0.0,0.0,0.0,0.0,0.0,0.0,0.0,0.0,0.0,0.0,0.0,0.0,0.0,0.0,0.0,0.0,0.0,0.0,0.0,0.0,0.0,0.0,0.0,0.0,0.0,0.0,0.0,0.0,0.0,0.0,0.0,0.0,0.0,0.0,0.0,0.0,0.0,0.0,0.0,0.0,0.0,0.0,0.0,0.0,0.0,0.0,0.0,0.0,0.0,0.0,0.0,0.0,0.0,0.0,0.0,0.0,0.0,0.0,0.0,0.0,0.0,0.0,0.0,0.0,0.0,0.0,0.0,0.0,0.0,0.0,0.0,0.0,0.0,0.0,0.0,0.0,0.0,0.0,0.0,0.0,0.0,0.0,0.0,0.0,0.0,0.0,0.0,0.0,0.0,0.0,0.0,0.0,0.0,0.0,0.0,0.0,0.0,0.0,0.0,0.0,0.0,0.0,0.0,0.0,0.0,0.0,0.0,0.0,0.0,0.0,0.0,0.0,0.0,0.0,0.0,0.0,0.0,0.0,0.0,0.0,0.0,0.0,0.0,0.0,0.0,0.0,0.0,0.0,0.0,0.0,0.0,0.0,0.0,0.0,0.0,0.0,0.0,0.0,0.0,0.0,0.0,0.0,0.0,0.0,0.0,0.0,0.0,0.0,0.0,0.0,0.0,0.0,0.0,0.0,0.0,0.0,0.0,0.0,0.0,0.0,0.0,0.0,0.0,0.0,0.0,0.0,0.0,0.0,0.0,0.0,0.0,0.0,0.0,0.0,0.0,0.0,0.0,0.0,0.0,0.0,0.0,0.0,0.0,0.0,0.0,0.0,0.0,0.0,0.0,0.0,0.0,0.0,0.0,0.0,0.0,0.0,0.0,0.0,0.0,0.0,0.0,0.0,0.0,0.0,0.0,0.0,0.0,0.0,0.0,0.0,0.0,0.0,0.0,0.0,0.0,0.0,0.0,0.0,0.0,0.0,0.0,0.0,0.0,0.0,0.0,0.0,0.0,0.0,0.0,0.0,0.0,0.0,0.0,0.0,0.0,0.0,0.0,0.0,0.0,0.0,0.0,0.0,0.0,0.0,0.0,0.0,0.0,0.0,0.0,0.0,0.0,0.0,0.0,0.0,0.0,0.0,0.0,0.0,0.0,0.0,0.0,0.0,0.0,0.0,0.0,0.0,0.0,0.0,0.0,0.0,0.0,0.0,0.0,0.0,0.0,0.0,0.0,0.0,0.0,0.0,0.0,0.0,0.0,0.0,0.0,0.0,0.0,0.0,0.0,0.0,0.0,0.0,0.0,0.0,0.0,0.0,0.0,0.0,0.0,0.0,0.0,0.0,0.0,0.0,0.0,0.0,0.0,0.0,0.0,0.0,0.0,0.0,0.0,0.0,0.0,0.0,0.0,0.0,0.0,0.0,0.0,0.0,0.0,0.0,0.0,0.0,0.0,0.0,0.0,0.0,0.0,0.0,0.0,0.0,0.0,0.0,0.0,0.0,0.0,0.0,0.0,0.0,0.0,0.0,0.0,0.0,0.0,0.0,0.0,0.0,0.0,0.0,0.0,0.0,0.0,0.0,0.0,0.0,0.0,0.0,0.0,0.0,0.0,0.0,0.0,0.0,0.0,0.0,0.0,0.0,0.0,0.0,0.0,0.0,0.0,0.0,0.0,0.0,0.0,0.0,0.0,0.0,0.0,0.0,0.0,0.0,0.0,0.0,0.0,0.0,0.0,0.0,0.0,0.0,0.0,0.0,0.0,0.0,0.0,0.0,0.0,0.0,0.0,0.0,0.0,0.0,0.0,0.0,0.0,0.0,0.0,0.0,0.0,0.0,0.0,0.0,0.0,0.0,0.0,0.0,0.0,0.0,0.0,0.0,0.0,0.0,0.0,0.0,0.0,0.0,0.0,0.0,0.0,0.0,0.0,0.0,0.0,0.0,0.0,0.0,0.0,0.0,0.0,0.0,0.0,0.0,0.0,0.0,0.0,0.0,0.0,0.0,0.0,0.0,0.0,0.0,0.0,0.0,0.0,0.0,0.0,0.0,0.0,0.0,0.0,0.0,0.0,0.0,0.0,0.0,0.0,0.0,0.0,0.0,0.0,0.0,0.0,0.3092,0.0,0.0,0.0,0.0,0.0,0.0,0.0,0.0,0.0,0.0,0.0,0.0,0.0,0.0,0.0,0.0,0.0,0.0,0.0,0.0,0.0,0.0,0.0,0.0,0.0,0.0,0.0,0.0,0.0,0.0,0.0,0.0,0.0,0.0,0.0,0.0,0.0,0.0,0.0,0.0,0.0,0.0,0.0,0.0,0.0,0.0,0.0,0.0,0.0,0.0,0.0,0.0,0.0,0.0,0.0,0.0,0.0,0.0,0.0,0.0,0.0,0.0,0.0,0.0,0.0,0.0,0.0,0.0,0.0,0.0,0.0,0.0,0.0,0.0,0.0,0.0,0.0,0.0,0.0,0.0,0.0,0.0,0.0,0.0,0.0,0.0,0.0,0.0,0.0,0.0,0.0,0.0,0.0,0.0,0.0,0.0,0.0,0.0,0.0,0.0,0.0,0.0,0.0,0.0,0.0,0.0,0.0,0.0,0.0,0.0,0.3334,0.2821,0.3098,0.3208,0.3092,0.0,0.0,0.0,0.0,0.0,0.0,0.0,0.0,0.0,0.0,0.0,0.0,0.0,0.0,0.0,0.0,0.0,0.0,0.0,0.0,0.0,0.0,0.0,0.0,0.0,0.0,0.0,0.0,0.0,0.0,0.0,0.0,0.0,0.0,0.0,0.0,0.0,0.0,0.0,0.0,0.0,0.0,0.0,0.0,0.0,0.0,0.0,0.0,0.0,0.0,0.0,0.0,0.0,0.0,0.0,0.0,0.0,0.0,0.0,0.0,0.0,0.0,0.0,0.0,0.0,0.0,0.0,0.0,0.0,0.0,0.0,0.0,0.0,0.0,0.0,0.0,0.0,0.0,0.0,0.0,0.0,0.0,0.0,0.0,0.0,0.0,0.0,0.0,0.0,0.0,0.0,0.0,0.0,0.0,0.0,0.0,0.0,0.0,0.0,0.0,0.0,0.0,0.0,0.0,0.0,0.0,0.0,0.0,0.0,0.0,0.0,0.0,0.3534,0.3413,0.3289,0.0,0.0,0.0,0.0,0.0,0.0,0.0,0.0,0.0,0.0,0.0,0.0,0.0,0.0,0.0,0.0,0.0,0.0,0.0,0.0,0.0,0.0,0.0,0.0,0.0,0.0,0.0,0.0,0.0,0.0,0.0,0.0,0.0,0.0,0.0,0.0,0.0,0.0,0.0,0.0,0.0,0.0,0.0,0.0,0.0,0.0,0.0,0.0,0.0,0.0,0.0,0.0,0.0,0.0,0.0,0.0,0.0,0.0,0.0,0.0,0.0,0.0,0.0,0.0,0.0,0.0,0.0,0.0,0.0,0.0,0.0,0.0,0.0,0.0,0.0,0.0,0.0,0.0,0.0,0.0,0.0,0.0,0.0,0.0,0.0,0.0,0.0,0.0,0.0,0.0,0.0,0.0,0.0,0.0,0.0,0.0,0.0,0.0,0.0,0.0,0.0,0.0,0.0,0.0,0.0,0.0,0.0,0.0,0.0,0.0,0.2641,0.4091,0.4017,0.0,0.3879,0.0,0.0,0.0,0.0,0.0,0.0,0.0,0.0,0.0,0.0,0.0,0.0,0.0,0.0,0.0,0.0,0.0,0.0,0.0,0.0,0.0,0.0,0.0,0.0,0.0,0.0,0.0,0.0,0.0,0.0,0.0,0.0,0.0,0.0,0.0,0.0,0.0,0.0,0.0,0.0,0.0,0.0,0.0,0.0,0.0,0.0,0.0,0.0,0.0,0.0,0.0,0.0,0.0,0.0,0.0,0.0,0.0,0.0,0.0,0.0,0.0,0.0,0.0,0.0,0.0,0.0,0.0,0.0,0.0,0.0,0.0,0.0,0.0,0.0,0.0,0.0,0.0,0.0,0.0,0.0,0.0,0.0,0.0,0.0,0.0,0.0,0.0,0.0,0.0,0.0,0.0,0.0,0.0,0.0,0.0,0.0,0.0,0.0,0.0,0.0,0.0,0.0,0.0,0.0,0.0,0.0,0.0,0.0,0.0,0.0,0.0,0.4189,0.3904,0.3758,0.0,0.0,0.0,0.0,0.0,0.0,0.0,0.0,0.0,0.0,0.0,0.0,0.0,0.0,0.0,0.0,0.0,0.0,0.0,0.0,0.0,0.0,0.0,0.0,0.0,0.0,0.0,0.0,0.0,0.0,0.0,0.0,0.0,0.0,0.0,0.0,0.0,0.0,0.0,0.0,0.0,0.0,0.0,0.0,0.0,0.0,0.0,0.0,0.0,0.0,0.0,0.0,0.0,0.0,0.0,0.0,0.0,0.0,0.0,0.0,0.0,0.0,0.0,0.0,0.0,0.0,0.0,0.0,0.0,0.0,0.0,0.0,0.0,0.0,0.0,0.0,0.0,0.0,0.0,0.0,0.0,0.0,0.0,0.0,0.0,0.0,0.0,0.0,0.0,0.0,0.0,0.0,0.0,0.0,0.0,0.0,0.0,0.0,0.0,0.0,0.0,0.0,0.0,0.0,0.0,0.0,0.0,0.0,0.0,0.0,0.4532,0.0,0.4231,0.3887,0.3663,0.3581,0.0,0.0,0.0,0.0,0.0,0.0,0.0,0.0,0.0,0.0,0.0,0.0,0.0,0.0,0.0,0.0,0.0,0.0,0.0,0.0,0.0,0.0,0.0,0.0,0.0,0.0,0.0,0.0,0.0,0.0,0.0,0.0,0.0,0.0,0.0,0.0,0.0,0.0,0.0,0.0,0.0,0.0,0.0,0.0,0.0,0.0,0.0,0.0,0.0,0.0,0.0,0.0,0.0,0.0,0.0,0.0,0.0,0.0,0.0,0.0,0.0,0.0,0.0,0.0,0.0,0.0,0.0,0.0,0.0,0.0,0.0,0.0,0.0,0.0,0.0,0.0,0.0,0.0,0.0,0.0,0.0,0.0,0.0,0.0,0.0,0.0,0.0,0.0,0.0,0.0,0.0,0.0,0.0,0.0,0.0,0.0,0.0,0.0,0.0,0.0,0.0,0.0,0.0,0.0,0.0,0.0,0.0,0.0,0.0,0.3902,0.4417,0.4226,0.408,0.3866,0.0,0.0,0.0,0.0,0.0,0.0,0.0,0.0,0.0,0.0,0.0,0.0,0.0,0.0,0.0,0.0,0.0,0.0,0.0,0.0,0.0,0.0,0.0,0.0,0.0,0.0,0.0,0.0,0.0,0.0,0.0,0.0,0.0,0.0,0.0,0.0,0.0,0.0,0.0,0.0,0.0,0.0,0.0,0.0,0.0,0.0,0.0,0.0,0.0,0.0,0.0,0.0,0.0,0.0,0.0,0.0,0.0,0.0,0.0,0.0,0.0,0.0,0.0,0.0,0.0,0.0,0.0,0.0,0.0,0.0,0.0,0.0,0.0,0.0,0.0,0.0,0.0,0.0,0.0,0.0,0.0,0.0,0.0,0.0,0.0,0.0,0.0,0.0,0.0,0.0,0.0,0.0,0.0,0.0,0.0,0.0,0.0,0.0,0.0,0.0,0.0,0.0,0.0,0.0,0.0,0.0,0.0,0.0,0.0,0.1855,0.3211,0.4097,0.4345,0.3873,0.3632,0.0,0.0,0.0,0.0,0.0,0.0,0.0,0.0,0.0,0.0,0.0,0.0,0.0,0.0,0.0,0.0,0.0,0.0,0.0,0.0,0.0,0.0,0.0,0.0,0.0,0.0,0.0,0.0,0.0,0.0,0.0,0.0,0.0,0.0,0.0,0.0,0.0,0.0,0.0,0.0,0.0,0.0,0.0,0.0,0.0,0.0,0.0,0.0,0.0,0.0,0.0,0.0,0.0,0.0,0.0,0.0,0.0,0.0,0.0,0.0,0.0,0.0,0.0,0.0,0.0,0.0,0.0,0.0,0.0,0.0,0.0,0.0,0.0,0.0,0.0,0.0,0.0,0.0,0.0,0.0,0.0,0.0,0.0,0.0,0.0,0.0,0.0,0.0,0.0,0.0,0.0,0.0,0.0,0.0,0.0,0.0,0.0,0.0,0.0,0.0,0.0,0.0,0.0,0.0,0.0,0.0,0.0,0.0,0.0,0.2036,0.0,0.3946,0.0,0.376,0.3471,0.0,0.0,0.0,0.0,0.0,0.0,0.0,0.0,0.0,0.0,0.0,0.0,0.0,0.0,0.0,0.0,0.0,0.0,0.0,0.0,0.0,0.0,0.0,0.0,0.0,0.0,0.0,0.0,0.0,0.0,0.0,0.0,0.0,0.0,0.0,0.0,0.0,0.0,0.0,0.0,0.0,0.0,0.0,0.0,0.0,0.0,0.0,0.0,0.0,0.0,0.0,0.0,0.0,0.0,0.0,0.0,0.0,0.0,0.0,0.0,0.0,0.0,0.0,0.0,0.0,0.0,0.0,0.0,0.0,0.0,0.0,0.0,0.0,0.0,0.0,0.0,0.0,0.0,0.0,0.0,0.0,0.0,0.0,0.0,0.0,0.0,0.0,0.0,0.0,0.0,0.0,0.0,0.0,0.0,0.0,0.0,0.0,0.0,0.0,0.0,0.0,0.0,0.0,0.0,0.0,0.0,0.0,0.0,0.1263,0.3447,0.3948,0.4066,0.3819,0.3649,0.3341,0.0,0.0,0.0,0.0,0.0,0.0,0.0,0.0,0.0,0.0,0.0,0.0,0.0,0.0,0.0,0.0,0.0,0.0,0.0,0.0,0.0,0.0,0.0,0.0,0.0,0.0,0.0,0.0,0.0,0.0,0.0,0.0,0.0,0.0,0.0,0.0,0.0,0.0,0.0,0.0,0.0,0.0,0.0,0.0,0.0,0.0,0.0,0.0,0.0,0.0,0.0,0.0,0.0,0.0,0.0,0.0,0.0,0.0,0.0,0.0,0.0,0.0,0.0,0.0,0.0,0.0,0.0,0.0,0.0,0.0,0.0,0.0,0.0,0.0,0.0,0.0,0.0,0.0,0.0,0.0,0.0,0.0,0.0,0.0,0.0,0.0,0.0,0.0,0.0,0.0,0.0,0.0,0.0,0.0,0.0,0.0,0.0,0.0,0.0,0.0,0.0,0.0,0.0,0.0,0.0,0.0,0.0,0.0,0.0,0.2669,0.3491,0.3989,0.4033,0.3558,0.332,0.0,0.0,0.0,0.0,0.0,0.0,0.0,0.0,0.0,0.0,0.0,0.0,0.0,0.0,0.0,0.0,0.0,0.0,0.0,0.0,0.0,0.0,0.0,0.0,0.0,0.0,0.0,0.0,0.0,0.0,0.0,0.0,0.0,0.0,0.0,0.0,0.0,0.0,0.0,0.0,0.0,0.0,0.0,0.0,0.0,0.0,0.0,0.0,0.0,0.0,0.0,0.0,0.0,0.0,0.0,0.0,0.0,0.0,0.0,0.0,0.0,0.0,0.0,0.0,0.0,0.0,0.0,0.0,0.0,0.0,0.0,0.0,0.0,0.0,0.0,0.0,0.0,0.0,0.0,0.0,0.0,0.0,0.0,0.0,0.0,0.0,0.0,0.0,0.0,0.0,0.0,0.0,0.0,0.0,0.0,0.0,0.0,0.0,0.0,0.0,0.0,0.0,0.0,0.0,0.0,0.0,0.0,0.0,0.0,0.3595,0.4045,0.428,0.4197,0.3688,0.3483,0.3524,0.0,0.0,0.0,0.0,0.0,0.0,0.0,0.0,0.0,0.0,0.0,0.0,0.0,0.0,0.0,0.0,0.0,0.0,0.0,0.0,0.0,0.0,0.0,0.0,0.0,0.0,0.0,0.0,0.0,0.0,0.0,0.0,0.0,0.0,0.0,0.0,0.0,0.0,0.0,0.0,0.0,0.0,0.0,0.0,0.0,0.0,0.0,0.0,0.0,0.0,0.0,0.0,0.0,0.0,0.0,0.0,0.0,0.0,0.0,0.0,0.0,0.0,0.0,0.0,0.0,0.0,0.0,0.0,0.0,0.0,0.0,0.0,0.0,0.0,0.0,0.0,0.0,0.0,0.0,0.0,0.0,0.0,0.0,0.0,0.0,0.0,0.0,0.0,0.0,0.0,0.0,0.0,0.0,0.0,0.0,0.0,0.0,0.0,0.0,0.0,0.0,0.0,0.0,0.0,0.0,0.0,0.0,0.0,0.5768,0.5355,0.484,0.4287,0.4131,0.3718,0.0,0.0,0.0,0.0,0.0,0.0,0.0,0.0,0.0,0.0,0.0,0.0,0.0,0.0,0.0,0.0,0.0,0.0,0.0,0.0,0.0,0.0,0.0,0.0,0.0,0.0,0.0,0.0,0.0,0.0,0.0,0.0,0.0,0.0,0.0,0.0,0.0,0.0,0.0,0.0,0.0,0.0,0.0,0.0,0.0,0.0,0.0,0.0,0.0,0.0,0.0,0.0,0.0,0.0,0.0,0.0,0.0,0.0,0.0,0.0,0.0,0.0,0.0,0.0,0.0,0.0,0.0,0.0,0.0,0.0,0.0,0.0,0.0,0.0,0.0,0.0,0.0,0.0,0.0,0.0,0.0,0.0,0.0,0.0,0.0,0.0,0.0,0.0,0.0,0.0,0.0,0.0,0.0,0.0,0.0,0.0,0.0,0.0,0.0,0.0,0.0,0.0,0.0,0.0,0.0,0.0,0.0,0.0,0.0,0.6078,0.5782,0.545,0.5074,0.4497,0.4063,0.0,0.0,0.0,0.0,0.0,0.0,0.0,0.0,0.0,0.0,0.0,0.0,0.0,0.0,0.0,0.0,0.0,0.0,0.0,0.0,0.0,0.0,0.0,0.0,0.0,0.0,0.0,0.0,0.0,0.0,0.0,0.0,0.0,0.0,0.0,0.0,0.0,0.0,0.0,0.0,0.0,0.0,0.0,0.0,0.0,0.0,0.0,0.0,0.0,0.0,0.0,0.0,0.0,0.0,0.0,0.0,0.0,0.0,0.0,0.0,0.0,0.0,0.0,0.0,0.0,0.0,0.0,0.0,0.0,0.0,0.0,0.0,0.0,0.0,0.0,0.0,0.0,0.0,0.0,0.0,0.0,0.0,0.0,0.0,0.0,0.0,0.0,0.0,0.0,0.0,0.0,0.0,0.0,0.0,0.0,0.0,0.0,0.0,0.0,0.0,0.0,0.0,0.0,0.0,0.0,0.0,0.0,0.0,0.4124,0.6145,0.6093,0.5881,0.5647,0.5043,0.4535,0.0,0.0,0.0,0.0,0.0,0.0,0.0,0.0,0.0,0.0,0.0,0.0,0.0,0.0,0.0,0.0,0.0,0.0,0.0,0.0,0.0,0.0,0.0,0.0,0.0,0.0,0.0,0.0,0.0,0.0,0.0,0.0,0.0,0.0,0.0,0.0,0.0,0.0,0.0,0.0,0.0,0.0,0.0,0.0,0.0,0.0,0.0,0.0,0.0,0.0,0.0,0.0,0.0,0.0,0.0,0.0,0.0,0.0,0.0,0.0,0.0,0.0,0.0,0.0,0.0,0.0,0.0,0.0,0.0,0.0,0.0,0.0,0.0,0.0,0.0,0.0,0.0,0.0,0.0,0.0,0.0,0.0,0.0,0.0,0.0,0.0,0.0,0.0,0.0,0.0,0.0,0.0,0.0,0.0,0.0,0.0,0.0,0.0,0.0,0.0,0.0,0.0,0.0,0.0,0.0,0.0,0.0,0.0,0.4202,0.5956,0.619,0.6186,0.6027,0.5596,0.4962,0.0,0.0,0.0,0.0,0.0,0.0,0.0,0.0,0.0,0.0,0.0,0.0,0.0,0.0,0.0,0.0,0.0,0.0,0.0,0.0,0.0,0.0,0.0,0.0,0.0,0.0,0.0,0.0,0.0,0.0,0.0,0.0,0.0,0.0,0.0,0.0,0.0,0.0,0.0,0.0,0.0,0.0,0.0,0.0,0.0,0.0,0.0,0.0,0.0,0.0,0.0,0.0,0.0,0.0,0.0,0.0,0.0,0.0,0.0,0.0,0.0,0.0,0.0,0.0,0.0,0.0,0.0,0.0,0.0,0.0,0.0,0.0,0.0,0.0,0.0,0.0,0.0,0.0,0.0,0.0,0.0,0.0,0.0,0.0,0.0,0.0,0.0,0.0,0.0,0.0,0.0,0.0,0.0,0.0,0.0,0.0,0.0,0.0,0.0,0.0,0.0,0.0,0.0,0.0,0.0,0.0,0.0,0.0,0.5441,0.596,0.6186,0.6186,0.603,0.5593,0.5104,0.0,0.0,0.0,0.0,0.0,0.0,0.0,0.0,0.0,0.0,0.0,0.0,0.0,0.0,0.0,0.0,0.0,0.0,0.0,0.0,0.0,0.0,0.0,0.0,0.0,0.0,0.0,0.0,0.0,0.0,0.0,0.0,0.0,0.0,0.0,0.0,0.0,0.0,0.0,0.0,0.0,0.0,0.0,0.0,0.0,0.0,0.0,0.0,0.53,0.0,0.0,0.0,0.0,0.0,0.0,0.0,0.0,0.0,0.0,0.0,0.0,0.0,0.0,0.0,0.0,0.0,0.0,0.0,0.0,0.0,0.0,0.0,0.0,0.0,0.0,0.0,0.0,0.0,0.0,0.0,0.0,0.0,0.0,0.0,0.0,0.0,0.0,0.0,0.0,0.0,0.0,0.0,0.0,0.0,0.0,0.0,0.0,0.0,0.0,0.0,0.0,0.0,0.0,0.0,0.0,0.0,0.0,0.0,0.5859,0.6018,0.618,0.6186,0.6027,0.5728,0.5291,0.0,0.0,0.0,0.0,0.0,0.0,0.0,0.0,0.0,0.0,0.0,0.0,0.0,0.0,0.0,0.0,0.0,0.0,0.0,0.0,0.0,0.0,0.0,0.0,0.0,0.0,0.0,0.0,0.0,0.0,0.0,0.0,0.0,0.0,0.0,0.0,0.0,0.0,0.0,0.0,0.0,0.0,0.0,0.0,0.0,0.0,0.0,0.0,0.0,0.0,0.0,0.0,0.0,0.0,0.0,0.0,0.0,0.0,0.0,0.0,0.0,0.0,0.0,0.0,0.0,0.0,0.0,0.0,0.0,0.0,0.0,0.0,0.0,0.0,0.0,0.0,0.0,0.0,0.0,0.0,0.0,0.0,0.0,0.0,0.0,0.0,0.0,0.0,0.0,0.0,0.0,0.0,0.0,0.0,0.0,0.0,0.0,0.0,0.0,0.0,0.0,0.0,0.0,0.0,0.0,0.0,0.0,0.4894,0.5933,0.6006,0.6179,0.6186,0.6034,0.5881,0.5454,0.4783,0.0,0.0,0.0,0.0,0.0,0.0,0.0,0.0,0.0,0.0,0.0,0.0,0.0,0.0,0.0,0.0,0.0,0.0,0.0,0.0,0.0,0.0,0.0,0.0,0.0,0.0,0.0,0.0,0.0,0.0,0.0,0.0,0.0,0.0,0.0,0.0,0.0,0.0,0.6275,0.7346,0.0,0.0,0.0,0.0,0.0,0.0,0.0,0.0,0.5271,0.0,0.0,0.0,0.0,0.0,0.0,0.0,0.0,0.0,0.0,0.0,0.0,0.0,0.0,0.0,0.0,0.0,0.0,0.0,0.0,0.0,0.0,0.0,0.0,0.0,0.0,0.0,0.0,0.0,0.0,0.0,0.0,0.0,0.0,0.0,0.0,0.0,0.0,0.0,0.0,0.0,0.0,0.0,0.0,0.0,0.0,0.0,0.0,0.0,0.0,0.0,0.0,0.0,0.0,0.0,0.0,0.3111,0.5171,0.6131,0.6013,0.6183,0.619,0.5959,0.5881,0.5592,0.5042,0.0,0.0,0.0,0.0,0.0,0.0,0.0,0.0,0.0,0.0,0.0,0.0,0.0,0.0,0.0,0.0,0.0,0.0,0.0,0.0,0.0,0.0,0.0,0.0,0.0,0.0,0.0,0.0,0.0,0.0,0.0,0.0,0.0,0.0,0.0,0.0,0.0,0.0,0.0,0.7807,0.8453,0.0,0.0,0.0,0.0,0.0,0.0,0.0,0.0,0.5094,0.0,0.0,0.0,0.0,0.0,0.0,0.0,0.0,0.0,0.0,0.0,0.0,0.0,0.0,0.0,0.0,0.0,0.0,0.0,0.0,0.0,0.0,0.0,0.0,0.0,0.0,0.0,0.0,0.0,0.0,0.0,0.0,0.0,0.0,0.0,0.0,0.0,0.0,0.0,0.0,0.0,0.0,0.0,0.0,0.0,0.0,0.0,0.0,0.0,0.0,0.0,0.0,0.0,0.0,0.0,0.4059,0.5524,0.6282,0.6129,0.6224,0.6149,0.5915,0.5916,0.5607,0.0,0.0,0.0,0.0,0.0,0.0,0.0,0.0,0.0,0.0,0.0,0.0,0.0,0.0,0.0,0.0,0.0,0.0,0.0,0.0,0.0,0.0,0.0,0.0,0.0,0.0,0.0,0.0,0.0,0.0,0.0,0.0,0.0,0.0,0.0,0.0,0.0,0.0,0.0,0.0,0.7788,0.8132,0.8488,0.0,0.0,0.0,0.0,0.0,0.0,0.6179,0.5577,0.0,0.0,0.0,0.0,0.0,0.0,0.0,0.0,0.0,0.0,0.0,0.0,0.0,0.0,0.0,0.0,0.0,0.0,0.0,0.0,0.0,0.0,0.0,0.0,0.0,0.0,0.0,0.0,0.0,0.0,0.0,0.0,0.0,0.0,0.0,0.0,0.0,0.0,0.0,0.0,0.0,0.0,0.0,0.0,0.0,0.0,0.0,0.0,0.0,0.0,0.0,0.0,0.0,0.0,0.0,0.5002,0.5875,0.6305,0.6311,0.623,0.6084,0.5806,0.5877,0.542,0.0,0.0,0.0,0.0,0.0,0.0,0.0,0.0,0.0,0.0,0.0,0.0,0.0,0.0,0.0,0.0,0.0,0.0,0.0,0.0,0.0,0.0,0.0,0.0,0.0,0.0,0.0,0.0,0.0,0.0,0.0,0.0,0.0,0.0,0.0,0.0,0.0,0.0,0.0,0.0,0.0,0.8112,0.825,0.7869,0.0,0.0,0.0,0.0,0.7161,0.6757,0.0,0.0,0.0,0.0,0.0,0.0,0.0,0.0,0.0,0.0,0.0,0.0,0.0,0.0,0.0,0.0,0.0,0.0,0.0,0.0,0.0,0.0,0.0,0.0,0.0,0.0,0.0,0.0,0.0,0.0,0.0,0.0,0.0,0.0,0.0,0.0,0.0,0.0,0.0,0.0,0.0,0.0,0.0,0.0,0.0,0.0,0.0,0.0,0.0,0.0,0.0,0.0,0.0,0.0,0.0,0.0,0.5657,0.6085,0.6257,0.6297,0.6125,0.5973,0.5803,0.5586,0.4637,0.0,0.0,0.0,0.0,0.0,0.0,0.0,0.0,0.0,0.0,0.0,0.0,0.0,0.0,0.0,0.0,0.0,0.0,0.0,0.0,0.0,0.0,0.0,0.0,0.0,0.0,0.0,0.0,0.0,0.0,0.0,0.0,0.0,0.0,0.0,0.0,0.0,0.0,0.0,0.0,0.0,0.9316,0.8116,0.7875,0.7769,0.0,0.0,0.7468,0.7776,0.7968,0.0,0.0,0.0,0.0,0.0,0.0,0.0,0.0,0.0,0.0,0.0,0.0,0.0,0.0,0.0,0.0,0.0,0.0,0.0,0.0,0.0,0.0,0.0,0.0,0.0,0.0,0.0,0.0,0.0,0.0,0.0,0.0,0.0,0.0,0.0,0.0,0.0,0.0,0.0,0.0,0.0,0.0,0.0,0.0,0.0,0.0,0.0,0.0,0.0,0.0,0.0,0.0,0.0,0.0,0.0,0.4107,0.5747,0.6168,0.627,0.6314,0.6108,0.5956,0.5803,0.5557,0.481,0.0,0.0,0.0,0.0,0.0,0.0,0.0,0.0,0.0,0.0,0.0,0.0,0.0,0.0,0.0,0.0,0.0,0.0,0.0,0.0,0.0,0.0,0.0,0.0,0.0,0.0,0.0,0.0,0.0,0.0,0.0,0.0,0.0,0.0,0.0,0.0,0.0,0.0,0.0,0.0,0.0,0.0,0.8697,0.853,0.0,0.0,0.0,0.8223,0.819,0.0,0.0,0.0,0.0,0.0,0.0,0.0,0.0,0.0,0.0,0.0,0.0,0.0,0.0,0.0,0.0,0.0,0.0,0.0,0.0,0.0,0.0,0.0,0.0,0.0,0.0,0.0,0.0,0.0,0.0,0.0,0.0,0.0,0.0,0.0,0.0,0.0,0.0,0.0,0.0,0.0,0.0,0.0,0.0,0.0,0.0,0.0,0.0,0.0,0.0,0.0,0.0,0.0,0.0,0.0,0.0,0.0,0.5734,0.6026,0.6197,0.6186,0.6017,0.5864,0.5745,0.5474,0.0,0.0,0.0,0.0,0.0,0.0,0.0,0.0,0.0,0.0,0.0,0.0,0.0,0.0,0.0,0.0,0.0,0.0,0.0,0.0,0.0,0.0,0.0,0.0,0.0,0.0,0.0,0.163,0.0,0.0,0.0,0.0,0.0,0.0,0.0,0.0,0.0,0.0,0.0,0.0,0.0,0.0,0.901,0.9198,0.9241,0.9289,0.0,0.0,0.8864,0.8637,0.8717,0.8357,0.0,0.0,0.0,0.0,0.0,0.0,0.0,0.0,0.0,0.0,0.0,0.0,0.0,0.0,0.0,0.0,0.0,0.0,0.0,0.0,0.0,0.0,0.0,0.0,0.0,0.0,0.0,0.0,0.0,0.0,0.0,0.0,0.0,0.0,0.0,0.0,0.0,0.0,0.0,0.0,0.0,0.0,0.0,0.0,0.0,0.0,0.0,0.0,0.0,0.0,0.0,0.0,0.0,0.0,0.0,0.5726,0.5852,0.5894,0.6027,0.5766,0.5616,0.5596,0.5162,0.4711,0.0,0.0,0.0,0.0,0.0,0.0,0.0,0.0,0.0,0.0,0.0,0.0,0.0,0.0,0.0,0.0,0.0,0.0,0.0,0.0,0.0,0.0,0.0,0.0,0.0,0.0,0.0,0.0,0.0,0.0,0.0,0.0,0.0,0.0,0.0,0.0,0.0,0.0,0.0,0.0,0.0,0.9315,0.9216,0.991,1.0286,0.0,0.0,0.9321,0.9163,0.9633,0.9412,0.7735,0.0,0.0,0.0,0.0,0.0,0.0,0.0,0.0,0.0,0.0,0.0,0.0,0.0,0.0,0.0,0.0,0.0,0.0,0.0,0.0,0.0,0.0,0.0,0.0,0.0,0.0,0.0,0.0,0.0,0.0,0.0,0.0,0.0,0.0,0.0,0.0,0.0,0.0,0.0,0.0,0.0,0.0,0.0,0.0,0.0,0.0,0.0,0.0,0.0,0.0,0.0,0.0,0.0,0.5457,0.7125,0.6902,0.6736,0.6664,0.5972,0.5589,0.5589,0.5152,0.4879,0.0,0.0,0.0,0.0,0.0,0.0,0.0,0.0,0.0,0.0,0.0,0.0,0.0,0.0,0.0,0.0,0.0,0.0,0.0,0.0,0.0,0.0,0.0,0.0,0.0,0.0,0.0,0.0,0.3811,0.4617,0.5154,0.0,0.0,0.0,0.0,0.0,0.0,0.0,0.0,0.0,0.0,0.9181,0.9681,1.0276,0.0,0.0,1.0201,0.9985,0.9559,0.9399,0.8891,0.7708,0.7204,0.0,0.0,0.0,0.0,0.0,0.0,0.0,0.0,0.0,0.0,0.0,0.0,0.0,0.0,0.0,0.0,0.0,0.0,0.0,0.0,0.0,0.0,0.0,0.0,0.0,0.0,0.0,0.0,0.0,0.0,0.0,0.0,0.0,0.0,0.0,0.0,0.0,0.0,0.0,0.0,0.0,0.0,0.0,0.0,0.0,0.0,0.0,0.0,0.0,0.0,0.0,0.0,0.6808,0.8769,0.8249,0.7848,0.7412,0.6806,0.6378,0.632,0.5927,0.5697,0.0,0.0,0.0,0.0,0.0,0.0,0.0,0.0,0.0,0.0,0.0,0.0,0.0,0.0,0.0,0.0,0.0,0.0,0.0,0.0,0.0,0.0,0.0,0.0,0.0,0.0,0.0,0.0,0.4082,0.4881,0.5383,0.0,0.0,0.0,0.0,0.0,0.0,0.0,0.0,0.0,0.0,0.9137,1.01,1.0431,1.0595,1.0598,1.0513,1.0227,0.9791,0.9332,0.8764,0.7882,0.0,0.0,0.0,0.0,0.0,0.0,0.0,0.0,0.0,0.0,0.0,0.0,0.0,0.0,0.0,0.0,0.0,0.0,0.0,0.0,0.0,0.0,0.0,0.0,0.0,0.0,0.0,0.0,0.0,0.0,0.5379,0.0,0.0,0.0,0.0,0.0,0.0,0.0,0.0,0.0,0.0,0.0,0.0,0.0,0.0,0.0,0.0,0.0,0.0,0.0,0.0,0.0,0.0,0.7801,1.048,0.9746,0.895,0.8243,0.8295,0.8189,0.7912,0.7729,0.7354,0.6794,0.0,0.0,0.0,0.0,0.0,0.0,0.0,0.0,0.0,0.0,0.0,0.0,0.0,0.0,0.0,0.0,0.0,0.0,0.0,0.0,0.0,0.0,0.0,0.0,0.0,0.0,0.4365,0.44,0.4458,0.0,0.0,0.0,0.0,0.0,0.0,0.0,0.0,0.0,0.0,0.9133,0.9279,1.039,1.0593,1.0604,1.0618,1.0307,0.9953,0.9733,0.9659,0.9372,0.0,0.0,0.0,0.0,0.0,0.0,0.0,0.0,0.0,0.0,0.0,0.0,0.0,0.0,0.0,0.0,0.0,0.0,0.0,0.0,0.0,0.0,0.0,0.0,0.0,0.0,0.0,0.9349,0.785,0.0,0.0,0.0,0.0,0.0,0.0,0.0,0.0,0.0,0.0,0.0,0.9112,1.008,0.0,0.0,0.0,0.0,0.0,0.0,0.0,0.0,0.0,0.0,0.0,0.0,0.866,1.0952,1.0091,0.9461,0.9181,0.8695,0.8246,0.8032,0.7797,0.7821,0.8043,0.0,0.0,0.0,0.0,0.0,0.0,0.0,0.0,0.0,0.0,0.0,0.0,0.0,0.0,0.0,0.0,0.0,0.0,0.0,0.0,0.0,0.0,0.0,0.0,0.0,0.5039,0.0,0.0,0.0,0.0,0.0,0.0,0.0,0.0,0.0,0.0,0.0,1.0132,1.0478,1.0786,1.0887,1.0623,1.0588,1.0586,0.0,0.0,0.0,0.0,0.0,0.0,0.0,0.0,0.0,0.0,0.0,0.0,0.0,0.0,0.0,0.0,0.0,0.0,0.0,0.0,0.0,0.0,0.0,0.0,0.0,0.0,0.0,0.0,0.0,0.0,0.0,0.0,0.0,1.15,0.0,1.0418,0.0,0.0,0.0,0.0,0.0,0.0,0.0,0.0,0.9285,0.972,1.0307,1.1269,1.1185,0.0,0.9953,0.9432,0.0,0.0,0.0,0.0,0.0,0.0,0.0,0.0,0.9162,1.1249,1.0646,1.0264,1.0257,0.9773,0.9309,0.906,0.8965,0.9022,0.924,0.8656,0.8542,0.0,0.0,0.0,0.0,0.0,0.0,0.0,0.0,0.0,0.0,0.0,0.0,0.0,0.0,0.0,0.0,0.0,0.0,0.0,0.0,0.0,0.0,0.0,0.5992,0.0,0.0,0.0,0.0,0.0,0.0,0.0,0.0,0.0,0.9995,1.0918,1.1679,1.2033,1.277,1.3025,1.2367,0.0,0.0,0.0,0.0,0.0,0.0,0.0,0.9659,0.9559,0.8997,0.8027,0.6574,0.5306,0.447,0.4324,0.0,0.0,0.0108,0.0,0.0,0.0,0.0,0.0,0.0,0.0493,0.1616,0.0,0.0,0.0,0.0,0.0,0.0,0.0,0.0,1.3714,1.4018,0.0,1.3042,0.0,0.0,0.0,0.0,0.0,0.9503,0.0,0.0,1.1477,1.1968,1.1559,1.2026,1.1866,1.1096,1.1577,1.1565,1.0914,0.9375,0.0,0.0,0.0,0.0,0.0,0.0,0.9376,1.1326,1.1407,1.1436,1.1436,1.1423,1.1269,1.1028,1.1247,1.1038,1.0461,1.0623,1.0048,0.8523,0.8022,0.0,0.0,0.0,0.0,0.0,0.0,0.0,0.0,0.0,0.0,0.0,0.0,0.0,0.0,0.0,0.0,0.0,0.0,0.0,0.0,0.6602,0.0,0.0,0.0,0.0,0.0,0.0,0.0,0.0,0.0,0.0,1.1221,1.2466,1.3562,1.4054,0.0,0.0,0.0,0.0,1.0737,1.1087,1.084,1.0695,1.0962,1.0755,1.0468,1.02,0.0,0.0,0.6218,0.5434,0.5057,0.4845,0.3467,0.182,0.0266,0.0,0.0,0.0,0.0,0.0,0.0,0.1509,0.283,2.0967,0.0,0.0,0.0,0.0,1.8272,1.7546,1.6767,1.6714,1.6383,1.5776,1.5274,0.0,0.0,0.0,0.0,0.0,0.0,1.28,1.3265,1.1817,1.2078,1.3775,1.275,1.2311,1.2245,1.2063,1.211,1.2401,1.1461,1.0216,0.8633,0.0,0.0,0.0,0.0,0.959,1.1254,1.156,1.2004,1.2702,1.2485,1.2373,1.2438,1.2294,1.2365,1.2603,1.1473,1.0832,1.0904,1.0039,0.0,0.0,0.0,0.0,0.0,0.0,0.0,0.0,0.0,0.0,0.0,0.0,0.0,0.0,0.0,0.0,0.0,0.0,0.0,0.6201,0.694,0.7414,0.0,0.0,0.0,0.0,0.0,0.0,0.0,0.0,0.0,1.3628,1.4376,1.484,0.0,0.0,1.6132,1.546,1.2993,1.1208,1.1269,0.0,0.0,0.0,1.1062,1.0915,1.1029,0.9676,0.8123,0.7107,0.6029,0.527,0.526,0.4825,0.3556,0.0,0.0,0.0,0.0,0.0,0.0,0.0,0.2419,0.4605,2.4957,2.296,2.2668,2.2048,2.1247,2.0357,1.9619,1.9072,1.8655,1.8232,1.7707,1.7444,1.6534,1.5077,1.4101,0.0,0.0,0.0,1.4754,1.525,1.368,1.3618,1.4679,1.3551,1.295,1.2906,1.2445,1.2503,1.2926,1.2296,1.1143,0.9651,0.0,0.0,0.7311,0.8573,1.0504,1.2766,1.2632,1.2968,1.4003,1.3551,1.3162,1.3033,1.3152,1.3246,1.3336,1.2848,1.2553,1.2341,1.137,0.9999,0.0,0.0,0.0,0.0,0.0,0.0,0.0,0.0,0.0,0.0,0.0,0.4389,0.0,0.0,0.0,0.0,0.463,0.6024,0.7602,0.8281,0.0,0.0,0.0,0.0,0.0,0.0,0.0,1.4736,1.459,1.4591,1.541,1.5928,1.6127,1.5961,1.6109,1.5697,1.436,0.0,1.1791,1.1722,1.168,1.1643,1.175,1.153,1.1152,1.0366,0.8928,0.7674,0.6847,0.6073,0.5542,0.5542,0.5545,0.4834,0.2523,0.1061,0.0,0.0,0.0,0.0,0.0,0.2288,0.4512,2.821,2.7959,2.5448,2.3897,2.3036,2.1934,2.1388,2.1037,1.9995,1.9668,1.9932,1.9561,1.9131,1.8543,1.6817,0.0,1.6337,1.6035,1.6108,1.6306,1.6606,1.6106,1.5025,1.4392,1.3775,1.3233,1.2933,1.2862,1.2829,1.2211,1.174,1.1262,1.1296,1.0534,0.9184,0.9748,1.1795,1.5211,1.4415,1.4393,1.5238,1.4647,1.3944,1.3258,1.3897,1.3883,1.3122,1.4468,1.4594,1.3077,1.2101,1.0834,0.9174,0.0,0.0,0.0,0.0,0.0,0.0,0.0,0.0,0.0,0.0,0.0,0.0,0.0,0.0,0.0,0.6572,0.0,0.9585,1.008,0.0,0.0,0.0,0.9891,0.7905,1.0504,1.3535,1.6374,0.0,0.0,1.6617,0.0,1.73,1.6854,1.6113,1.481,1.2614,1.2312,1.2329,1.2253,1.206,1.1997,1.2191,1.1965,1.101,0.9035,0.7748,0.6885,0.6029,0.5793,0.58,0.5783,0.5731,0.5626,0.5431,0.2722,0.0,0.0,0.0,0.0,0.0,0.1544,0.3353,2.9139,2.8687,2.8021,2.7363,2.668,2.4877,2.4047,2.3853,2.2107,2.0947,2.041,2.0303,1.9844,1.9111,1.8657,1.8498,1.8543,1.881,1.889,1.9023,1.9446,1.8585,1.6661,1.4946,1.3902,1.3514,1.324,1.31,1.3086,1.2719,1.2905,1.3404,1.3223,1.2557,1.1637,1.1268,1.2665,1.5859,1.6605,1.6551,1.5777,1.5983,1.5883,1.5355,1.4916,1.4543,1.4342,1.4377,1.4216,1.3811,1.2413,1.1103,1.0056,0.8771,0.0,0.0,0.0,0.0,0.0,0.0,0.0,0.0,0.0,0.37,0.5564,0.0,0.6392,0.0,0.8152,0.9341,0.9529,1.0284,0.0,0.0,1.0703,1.1805,1.3236,1.3515,1.4391,1.6443,1.6815,1.6992,1.7207,1.7871,1.8193,1.7773,1.7536,1.6148,1.2906,1.2287,1.2328,1.2264,1.2291,1.2225,1.2211,1.1569,1.037,0.8328,0.7673,0.7143,0.6275,0.5954,0.5875,0.6097,0.595,0.5793,0.5847,0.4965,0.3228,0.0,0.0,0.0,0.0,0.1478,0.3218,2.9591,2.9315,2.9315,2.9139,2.8675,2.6576,2.5458,2.4848,2.3283,2.2069,2.1152,2.1162,2.0781,2.0166,2.0156,2.0039,1.9883,2.0098,2.0195,2.0225,2.0508,1.9473,1.7236,1.5139,1.396,1.3821,1.354,1.3634,1.4078,1.3853,1.4146,1.4895,1.4699,1.4425,1.4081,1.3431,1.4337,1.6945,1.7622,1.752,1.6609,1.6677,1.6426,1.5781,1.5312,1.4795,1.4228,1.4152,1.3809,1.3165,1.2171,1.1093,0.996,0.914,0.8467,0.0,0.0,0.0,0.0,0.0,0.0,0.0,0.0,0.0,0.0,0.0,0.8465,0.0,0.9893,1.0657,1.0977,1.1799,1.2214,1.2018,1.3072,1.436,1.582,1.5547,1.5756,1.7096,1.7342,1.7529,1.7891,1.7913,1.809,1.8442,1.756,1.5708,1.3027,1.256,1.2716,1.2685,1.2712,1.25,1.1923,1.0865,0.9593,0.8152,0.7319,0.6806,0.6359,0.6143,0.6084,0.6236,0.6159,0.6057,0.6152,0.6068,0.5161,0.334,0.128,0.0,0.0,0.1447,0.3209,2.9967,2.9892,2.9892,2.9854,2.9639,2.7758,2.6412,2.534,2.4153,2.3094,2.2192,2.2307,2.2068,2.17,2.154,2.1303,2.0888,2.0722,2.0625,2.0576,2.0576,1.9432,1.7236,1.5124,1.4104,1.4068,1.3987,1.4409,1.535,1.5177,1.5394,1.6062,1.6077,1.6229,1.643,1.5895,1.6377,1.7946,1.8018,1.7803,1.7393,1.6953,1.6338,1.5537,1.5342,1.4727,1.3662,1.3838,1.3406,1.2194,1.1811,1.0946,0.9607,0.9297,0.8984,0.0,0.8486,0.0,0.0,0.0,0.0,0.0,0.0,0.0,0.0,0.9512,1.0531,1.1166,1.1659,1.2211,1.2992,1.3738,1.4282,1.4631,1.583,1.6711,1.6824,1.6847,1.7086,1.7935,1.7757,1.7842,1.8426,1.7766,1.7696,1.8366,1.6996,1.5042,1.3071,1.3008,1.3333,1.3279,1.3134,1.24,1.1212,0.9925,0.8803,0.7795,0.6938,0.6338,0.6328,0.6247,0.6251,0.6251,0.6314,0.6283,0.6314,0.63,0.6271,0.5949,0.3088,0.0,0.0,0.1497,0.3303,3.0846,3.047,3.0457,3.0206,2.9779,2.9387,2.8553,2.739,2.5431,2.4242,2.3815,2.4313,2.4502,2.4336,2.3456,2.2818,2.2392,2.1481,2.0908,2.0576,2.0576,1.9432,1.7236,1.5124,1.4104,1.4153,1.4913,1.5449,1.5599,1.6214,1.6951,1.7814,1.7596,1.7816,1.8332,0.0,0.0,0.0,1.8027,1.7803,1.7393,1.6953,1.6475,1.5937,1.4922,0.0,1.4014,1.3437,1.2998,1.2744,1.2024,0.0,0.0,0.0,0.0,0.0,0.0,0.0,0.0,0.0,0.0,0.0,0.843,0.8633,1.0392,1.1555,1.2223,1.2374,1.3157,1.3714,1.3856,1.4231,1.5235,1.7002,1.6733,1.6713,1.758,1.7506,1.7497,1.7929,1.8203,1.8377,1.8521,1.8248,1.7658,1.6962,1.6785,1.5999,1.3971,1.3784,1.3952,1.385,1.2775,1.1488,1.0204,0.9042,0.7952,0.6835,0.649,0.6264,0.6268,0.6261,0.6261,0.6261,0.6261,0.6254,0.6297,0.6297,0.6283,0.6276,0.4241,0.1981,0.0441,0.1594,0.3536,3.1223,0.0,3.0997,3.0834,0.0,3.0583,3.0226,2.9589,2.7393,2.5986,2.5343,2.5683,2.5757,2.5453,2.4325,2.3461,2.2829,2.168,2.0996,2.0576,2.0605,1.9454,1.7253,1.6176,1.5383,1.497,1.5951,1.6764,1.7317,1.7695,1.8309,1.906,1.8939,1.9039,1.9277,1.8762,1.8282,1.8024,1.8007,1.791,1.7695,1.7266,1.6728,1.6084,0.0,0.0,0.0,0.0,0.0,0.0,0.0,0.0,0.0,0.0,0.0,1.0877,1.0794,1.0643,1.0529,1.0814,1.1196,1.1581,1.2,1.2516,1.3202,1.3074,1.3146,1.3683,1.4357,1.4734,1.4784,1.5292,1.626,1.7716,1.7456,1.7317,1.7534,1.7644,1.7929,1.8281,1.8085,1.7975,1.8396,1.7379,1.6822,1.6563,1.604,1.5352,1.4379,1.4083,1.3945,1.33,1.2425,1.1137,0.9562,0.864,0.7765,0.6805,0.6413,0.6291,0.6284,0.6305,0.6261,0.6261,0.6261,0.6261,0.6261,0.6261,0.6264,0.6193,0.5404,0.3962,0.2043,0.239,0.3706,3.1637,3.1549,3.1524,3.1474,3.1386,3.1386,3.1386,3.1229,0.0,0.0,0.0,2.6964,2.6909,2.6439,2.5218,2.4175,2.3307,2.2,2.1113,2.0693,2.0634,1.9528,1.7658,1.7382,1.6814,1.6026,1.709,1.8069,1.8957,1.9195,1.9578,2.019,2.0105,1.9984,1.981,1.9249,1.8656,1.8022,1.7978,1.7969,1.7891,1.7568,1.6992,1.6191,1.6025,1.5449,1.4414,1.4165,1.3747,1.2937,1.3025,1.2876,1.2413,1.2078,1.2061,1.2441,1.2793,1.2812,1.233,1.3097,1.3449,1.3119,1.4512,1.5386,1.5426,1.4286,1.3998,1.4914,1.5391,1.5652,1.5614,1.6273,1.7052,1.7907,1.7996,1.7767,1.7414,1.7774,1.8193,1.8302,1.7677,1.74,1.7835,1.6444,1.5693,1.6719,1.5543,1.4088,1.4062,1.4061,1.3821,1.3012,1.2122,1.0993,0.9503,0.8313,0.7718,0.6847,0.6502,0.6351,0.6327,0.639,0.6308,0.6386,0.6359,0.6261,0.6261,0.6261,0.6264,0.6274,0.6274,0.5802,0.4215,0.3695,0.4339,3.2541,3.2102,3.2089,3.1825,3.1386,3.1386,3.1386,3.1336,3.0586,2.9377,2.7936,2.887,2.9328,2.9176,2.7117,2.5906,2.5269,2.291,2.1553,0.0,2.0771,1.9951,1.8709,1.78,1.7249,1.7163,1.823,1.8798,1.9116,1.9932,2.0807,2.1501,2.0911,2.051,2.0427,1.9647,1.8818,1.8057,1.8018,1.7832,1.748,1.7412,1.7148,1.6641,1.5908,1.543,1.5234,1.4531,1.3738,1.2945,1.3566,1.3896,1.3801,1.3412,1.3271,1.332,1.3379,1.3442,1.3461,1.3806,1.3999,1.4005,1.4849,1.543,1.5416,1.5594,1.5751,1.5898,1.626,1.649,1.6531,1.6636,1.7071,1.7841,1.7988,1.793,1.7842,1.8143,1.7963,1.6812,1.7507,1.7637,1.6946,1.609,1.5838,1.6609,1.5322,1.4088,1.4082,1.4139,1.4048,1.3639,1.2054,1.074,0.9752,0.834,0.7183,0.6719,0.6695,0.6668,0.6582,0.6542,0.6527,0.652,0.6428,0.6355,0.6261,0.6261,0.6261,0.6264,0.6271,0.6038,0.5643,0.5619,0.5844,3.2918,3.2692,3.2679,3.2541,3.2303,3.2303,3.2127,3.1788,3.126,3.0468,2.9536,2.9761,2.9779,2.9624,2.8108,2.676,2.5721,2.3987,2.2411,2.125,2.0764,2.0038,1.9063,1.9054,1.8807,1.831,1.9362,1.9844,1.9923,2.0411,2.0779,2.1231,2.0779,2.0582,2.0541,1.9909,1.901,1.8019,1.7996,1.791,1.7734,1.7725,1.7519,1.71,1.667,1.624,1.5781,1.5166,1.4651,1.4279,1.4616,1.47,1.4363,1.4054,1.3955,1.418,1.4199,1.4311,1.4588,1.4749,1.4943,1.5274,1.5355,1.5677,1.6277,1.6272,1.6263,1.6436,1.6826,1.6999,1.6938,1.7225,1.7543,1.791,1.839,1.8527,1.8062,1.8043,1.7743,1.6813,1.6586,1.646,1.6163,1.5367,1.4992,1.5398,1.4614,1.4088,1.4088,1.4088,1.3652,1.2431,1.1219,1.0053,0.8931,0.7812,0.701,0.6946,0.6963,0.6919,0.6814,0.6698,0.6661,0.6568,0.6413,0.6349,0.6285,0.6261,0.6261,0.6261,0.6264,0.6268,0.6271,0.6271,0.6268,3.3081,3.3081,3.3081,3.3081,3.3081,3.3081,3.2817,3.2365,3.1813,3.1273,3.0746,3.0093,2.9779,2.9702,2.8597,2.73,2.5923,2.4723,2.3186,2.1553,2.09,2.0202,1.9617,2.0248,2.0172,1.9529,2.0245,2.0712,2.0857,2.0712,2.0576,2.0644,2.1011,2.1054,2.0615,2.0142,1.9277,1.808,1.7992,1.8008,1.8008,1.8008,1.7842,1.7559,1.7422,1.7061,1.6387,1.5778,1.5488,1.5611,1.5487,1.5255,1.4999,1.4621,1.457,1.4893,1.4932,1.5107,1.5508,1.5469,1.5663,1.6253,1.6127,1.634,1.7105,1.6899,1.6722,1.687,1.7275,1.7444,1.7397,1.7716,1.8047,1.8233,1.8805,1.8911,1.8361,1.8036,1.7427,1.6677,1.5761,1.5353,1.5148,1.4657,1.4173,1.4173,1.4088,1.4088,1.4088,1.4088,1.3215,1.1643,1.0778,0.9913,0.7925,0.7224,0.7129,0.7139,0.7142,0.7076,0.6953,0.6854,0.6816,0.6617,0.6552,0.6474,0.6349,0.6315,0.6302,0.6278,0.6261,0.6261,0.6261,0.6264,0.6264,3.3081,3.3081,3.3167,3.3081,3.3154,3.3167,3.3116,3.2991,3.2378,3.1825,3.126,3.0256,2.9804,2.9624,2.8597,2.7487,2.6349,2.4873,2.3504,2.235,2.1178,2.0732,2.0873,2.0693,2.0508,2.0411,2.0566,2.1011,2.1669,2.1011,2.0644,2.0789,2.2339,2.2328,2.0824,2.0585,1.9677,1.8026,1.7983,1.8008,1.8008,1.8008,1.7978,1.7949,1.7578,1.7353,1.7197,1.6081,1.5682,1.6124,1.5702,1.5631,1.5989,1.5586,1.5312,1.5361,1.5361,1.5547,1.5947,1.5607,1.5708,1.6302,1.7179,1.768,1.7865,1.7849,1.7638,1.75,1.7715,1.791,1.7949,1.8018,1.8291,1.8744,1.8952,1.8987,1.9046,1.8646,1.726,1.4591,1.5079,1.535,1.4482,1.4166,1.4088,1.4088,1.4128,1.4142,1.4142,1.4175,1.3736,1.2381,1.1311,1.0197,0.8807,0.7753,0.7228,0.7139,0.7132,0.7105,0.7071,0.7,0.6892,0.681,0.6756,0.663,0.6512,0.6451,0.64,0.6312,0.6278,0.6261,0.6261,0.6268,0.6271,3.3081,3.3167,3.3797,3.4415,3.4802,3.4332,3.4173,3.4173,3.2802,3.2248,3.22,3.0889,3.0105,2.9714,2.8609,2.7522,2.6461,2.5185,2.3801,2.2575,2.2211,2.1816,2.1311,2.0791,2.0576,2.0576,2.0576,2.0789,2.1155,2.1298,2.1745,2.2264,2.2553,2.2488,2.2237,2.1169,1.996,1.8843,1.8778,1.8643,1.8379,1.8135,1.8008,1.7998,1.7842,1.7627,1.7402,1.7103,1.6834,1.6592,1.6789,1.6792,1.6547,1.6289,1.6191,1.6191,1.603,1.6046,1.6436,1.6773,1.6918,1.6922,1.7615,1.8005,1.8004,1.8007,1.8027,1.8115,1.8057,1.8096,1.834,1.8478,1.8744,1.9137,1.9618,1.9777,1.9269,1.8335,1.6733,1.454,1.4483,1.465,1.425,1.4088,1.4088,1.4115,1.4314,1.4435,1.4448,1.4583,1.4145,1.2981,1.1815,1.0529,0.9134,0.7929,0.7231,0.7143,0.7139,0.7139,0.7129,0.7105,0.7031,0.6949,0.6881,0.678,0.6637,0.6525,0.6444,0.6366,0.6295,0.6261,0.6268,0.6274,0.6281,3.3326,3.3713,3.465,3.5507,3.6119,3.544,3.5154,3.5001,3.3553,3.2906,3.2631,3.141,3.0432,2.9686,2.8597,2.7533,2.6472,2.5294,2.4047,2.2837,2.2938,2.2569,2.1663,2.0897,2.0625,2.0615,2.0906,2.1155,2.1527,2.2702,2.3356,2.3368,2.2776,2.2553,2.2552,2.1251,2.0311,1.9694,1.9688,1.9334,1.8828,1.8525,1.8252,1.8047,1.8008,1.7861,1.7578,1.7826,1.7754,1.7119,1.7506,1.752,1.6924,1.6807,1.6665,1.6665,1.6573,1.6631,1.6894,1.7604,1.788,1.7662,1.7826,1.8031,1.8037,1.8125,1.8182,1.8043,1.8027,1.8094,1.875,1.8919,1.9115,1.9424,2.0058,2.0183,1.9703,1.831,1.6464,1.4504,1.4176,1.4088,1.4102,1.4162,1.4229,1.4341,1.4556,1.4832,1.4859,1.4919,1.4668,1.3761,1.2381,1.0788,0.9263,0.8035,0.73,0.7187,0.719,0.7139,0.7139,0.7136,0.7132,0.7034,0.7,0.6926,0.6787,0.6651,0.6478,0.6413,0.6332,0.6264,0.6274,0.5957,0.5733,3.3713,3.4746,3.5734,3.6212,3.6198,3.6212,3.5777,3.5463,3.4746,3.3632,3.2092,3.1493,3.0758,2.9752,2.853,2.7533,2.6472,2.521,2.4114,2.3124,2.3117,2.2814,2.2175,2.1178,2.0665,2.0936,2.1712,2.2435,2.3379,2.5205,2.5346,2.3599,2.3441,2.2487,2.1145,2.0687,2.0617,2.0436,2.0464,2.0088,1.937,1.9228,1.8828,1.8164,1.8027,1.8018,1.7959,1.7978,1.7949,1.7939,1.7473,1.7259,1.7324,1.6992,1.6724,1.6777,1.6943,1.712,1.738,1.778,1.7969,1.7968,1.7939,1.7998,1.8076,1.8389,1.8209,1.7288,1.7532,1.8082,1.8912,1.8912,1.9213,1.9589,1.9761,1.9937,2.0443,1.8394,1.6468,1.472,1.4159,1.4108,1.4108,1.4329,1.4462,1.4643,1.4851,1.504,1.5149,1.5073,1.4933,1.4482,1.29,1.091,0.9666,0.8257,0.7552,0.7319,0.7234,0.7149,0.7143,0.7139,0.7129,0.7126,0.7105,0.7041,0.6929,0.6766,0.6563,0.6437,0.64,0.6268,0.6278,0.4457,0.4389,3.5129,3.6724,3.7112,3.7572,3.813,3.7496,3.7444,3.761,3.5171,3.3183,3.1725,3.1091,3.0683,3.0215,2.802,2.6871,2.6318,2.4553,2.3464,2.3105,2.3071,2.2978,2.2869,2.2951,2.2811,2.26,2.3111,2.3828,2.4432,2.5229,2.5217,2.448,2.3806,2.2561,2.0954,2.0619,2.0621,2.0611,2.0579,2.0276,1.9717,1.9687,1.9404,1.8857,1.8555,1.8281,1.8018,1.8008,1.8008,1.8008,1.7774,1.7696,1.7764,1.7637,1.7549,1.7559,1.7644,1.7713,1.7764,1.789,1.8026,1.7988,1.8008,1.8154,1.823,1.8,1.7688,1.7671,1.7251,1.745,1.7787,1.7828,1.7819,1.8171,1.8259,1.8939,1.9606,1.8074,1.6041,1.5416,1.4769,1.4155,1.4236,1.4269,1.4401,1.4796,1.505,1.5204,1.5277,1.5391,1.5478,1.5126,1.342,1.1512,1.1225,0.8965,0.7588,0.74,0.7309,0.7231,0.7197,0.7149,0.7132,0.7132,0.7139,0.7112,0.6987,0.6841,0.6641,0.6485,0.6369,0.6332,0.6285,0.4482,0.4567,3.6489,3.7738,3.8159,3.8708,3.9265,3.862,3.8678,3.8975,3.5987,3.319,3.117,3.0873,3.0683,3.0002,2.8032,2.7035,2.6719,2.4307,2.3144,2.3125,2.3619,2.3543,2.3382,2.4534,2.5316,2.5363,2.4926,2.5043,2.5419,2.5511,2.5511,2.5429,2.448,2.3205,2.1732,2.0984,2.0613,2.0624,2.0576,2.04,2.0156,2.0127,1.9922,1.9521,1.9199,1.8779,1.8242,1.8086,1.8008,1.8008,1.8008,1.8008,1.8008,1.8008,1.8008,1.8008,1.7998,1.8008,1.8027,1.8135,1.8223,1.8321,1.8369,1.8564,1.8747,1.7934,1.768,1.7535,1.6992,1.6444,1.6246,1.5982,1.6267,1.7041,1.7479,1.8253,1.9471,1.7679,1.6237,1.5431,1.4698,1.4408,1.4409,1.4493,1.4685,1.5084,1.5245,1.5418,1.5565,1.5685,1.5825,1.5534,1.3561,1.2195,1.1298,0.9464,0.7984,0.7698,0.7394,0.7309,0.7234,0.7183,0.7139,0.7139,0.7132,0.7115,0.7034,0.6892,0.6739,0.658,0.6515,0.6478,0.5692,0.452,0.4277,3.7753,3.7994,3.8943,3.9352,3.9352,3.9265,3.9341,3.9003,3.6967,3.3741,3.0798,3.1023,3.0809,2.977,2.857,2.8051,2.7429,2.4798,2.3474,2.3551,2.47,2.4608,2.3601,2.5665,2.754,2.8876,2.6959,2.6057,2.6414,2.6402,2.6446,2.6258,2.537,2.4371,2.3526,2.1688,2.0609,2.0585,2.0576,2.0547,2.0566,2.0518,2.0312,1.9971,1.9883,1.9492,1.864,1.8301,1.8115,1.8018,1.8018,1.8037,1.8047,1.7978,1.7998,1.8056,1.8008,1.7988,1.8105,1.8447,1.8742,1.8882,1.9105,1.9107,1.9004,1.8442,1.7665,1.6863,1.6056,1.5372,1.4566,1.4391,1.5115,1.6927,1.7658,1.8244,1.8313,1.7775,1.655,1.4923,1.4541,1.4516,1.4562,1.4867,1.5094,1.5319,1.5605,1.5765,1.5758,1.5805,1.5818,1.5343,1.3692,1.2139,1.097,0.9878,0.88,0.7907,0.765,0.738,0.7302,0.7241,0.7156,0.7139,0.7149,0.7132,0.7068,0.6936,0.6858,0.6729,0.6681,0.6597,0.5845,0.4805,0.3096,3.8234,3.8929,3.9265,3.9424,3.9424,3.9424,3.9387,3.9088,3.6726,3.4283,3.2256,3.1574,3.0997,3.0219,2.9141,2.8417,2.7947,2.6213,2.5484,2.5568,2.5924,2.5953,2.581,2.6955,2.8222,2.8857,2.7978,2.7244,2.7034,2.7005,2.6924,2.6389,2.5511,2.5266,2.5307,2.236,2.0579,2.0615,2.0576,2.0576,2.0576,2.0576,2.0498,2.0391,2.0361,2.0088,1.9531,1.9111,1.8624,1.8033,1.8414,1.8605,1.8533,1.8059,1.815,1.8734,1.815,1.8059,1.8624,1.8903,1.9183,1.9397,1.9413,1.9056,1.8591,1.781,1.6975,1.6048,1.5162,1.4412,1.4173,1.4128,1.4797,1.6034,1.6996,1.7953,1.8258,1.7613,1.6761,1.6023,1.5279,1.4986,1.5077,1.5259,1.5372,1.5645,1.5772,1.5825,1.5825,1.5825,1.5825,1.5629,1.359,1.2328,1.194,1.1063,0.9649,0.8863,0.8354,0.7884,0.7696,0.7322,0.7231,0.7163,0.7166,0.6953,0.689,0.701,0.6939,0.6865,0.679,0.6595,0.6465,0.5433,0.3881,3.8797,3.9352,3.9424,3.9424,3.9424,3.9424,3.9402,3.9044,3.6782,3.4751,3.3096,3.1914,3.111,3.0486,2.9628,2.9083,2.87,2.7959,2.7718,2.7626,2.7221,2.6907,2.6816,2.806,2.8733,2.8762,2.836,2.7821,2.7293,2.7067,2.6804,2.6433,2.5873,2.5863,2.619,2.3386,2.1439,2.0769,2.0576,2.0576,2.0576,2.0576,2.0576,2.0566,2.0566,2.043,2.0146,1.9893,1.9403,1.8772,1.9165,1.9224,1.8571,1.7971,1.8008,1.8387,1.823,1.8054,1.8947,1.9311,1.9708,1.9925,1.9866,1.9628,1.8997,1.7926,1.671,1.6226,1.5091,1.4406,1.4746,1.4368,1.5078,1.7223,1.8465,1.8651,1.8616,1.8168,1.7195,1.6426,1.548,1.5295,1.5337,1.5431,1.5504,1.5792,1.5825,1.5825,1.5825,1.5825,1.5825,1.5439,1.4172,1.3488,1.3488,1.2226,1.0583,0.9786,0.9256,0.8827,0.8434,0.7752,0.7373,0.7272,0.7241,0.6088,0.5943,0.6737,0.7044,0.697,0.6734,0.6773,0.6699,0.6556,0.5507,3.9424,3.9424,3.9424,3.9424,3.9424,3.9424,3.9372,3.9087,3.7088,3.4969,3.316,3.2124,3.1298,3.0721,3.0198,2.9899,2.9777,2.9534,2.9456,2.9197,2.8676,2.7794,2.7366,2.8814,2.9299,2.8925,2.8436,2.7883,2.7293,2.6961,2.6546,2.6477,2.6408,2.6454,2.6057,2.443,2.2285,2.0779,2.0576,2.0576,2.0576,2.0576,2.0576,2.0576,2.0566,2.0547,2.0498,2.0449,2.0127,1.9585,1.9802,1.9264,1.8126,1.7698,1.7703,1.7956,1.78,1.8453,1.9178,1.9756,2.0066,2.0401,2.0456,2.0586,2.0138,1.8656,1.7471,1.718,1.5841,1.5347,1.5948,1.5691,1.6601,1.9443,2.0677,2.0525,1.9041,1.9151,1.7881,1.6012,1.5433,1.5431,1.5471,1.5665,1.5772,1.5818,1.5825,1.5825,1.5825,1.5825,1.5825,1.5242,1.4364,1.4268,1.4166,1.2716,1.1361,1.1889,1.0793,0.9456,0.8835,0.8131,0.7455,0.736,0.6828,0.5673,0.5179,0.588,0.6413,0.6289,0.644,0.6802,0.691,0.68,0.6632,3.9424,3.9424,3.9424,3.9424,3.9424,3.9424,3.9414,3.9106,3.7162,3.5047,3.3339,3.2835,3.2215,3.175,3.116,3.0783,3.0331,2.9942,2.9779,2.9792,2.9534,2.9238,2.8983,2.9459,2.9503,2.8976,2.8699,2.8222,2.7331,2.708,2.6816,2.6533,2.6465,2.6454,2.619,2.4084,2.2083,2.0769,2.0576,2.0576,2.0576,2.0576,2.0576,2.0576,2.0576,2.0576,2.0576,2.0576,2.0498,2.0187,1.8834,1.8273,1.8204,1.7699,1.7787,1.8422,1.8605,1.9099,1.9985,2.0303,2.0477,2.0594,2.0605,2.0635,2.0564,1.9375,1.8377,1.7903,1.7267,1.7249,1.7892,1.8275,1.9236,2.0263,2.119,2.1296,2.0183,1.8292,1.6755,1.6878,1.6206,1.5772,1.5705,1.5752,1.5825,1.5825,1.5825,1.5825,1.5825,1.5825,1.5825,1.5439,1.4854,1.4854,1.4465,1.2915,1.2522,1.3782,1.2443,0.9867,0.9096,0.8243,0.7749,0.7363,0.6312,0.5165,0.4491,0.4465,0.4917,0.5646,0.6432,0.6939,0.6924,0.6816,0.6763,3.9424,3.9424,3.9424,3.9424,3.9424,3.9424,3.9399,3.8973,3.7169,3.506,3.3404,3.2835,3.239,3.1851,3.1286,3.0758,3.0269,2.9942,2.9792,2.9779,2.9779,2.9702,2.9779,2.9779,2.9603,2.9264,2.88,2.8247,2.7632,2.7193,2.6766,2.6446,2.6094,2.61,2.6311,2.388,2.1878,2.0857,2.0576,2.0576,2.0576,2.0576,2.0576,2.0576,2.0576,2.0576,2.0576,2.0576,2.0566,2.0187,1.8592,1.7669,1.847,1.7794,1.7827,1.8877,1.885,1.9228,2.0313,2.0576,2.0576,2.0596,2.0596,2.081,2.0934,2.0391,1.9752,1.9077,1.8659,1.8862,1.9497,2.0227,2.0201,1.9796,2.015,2.0202,1.9844,1.739,1.6406,1.6511,1.6292,1.5825,1.5825,1.5825,1.5825,1.5825,1.5825,1.5825,1.5825,1.5825,1.573,1.5439,1.5337,1.5337,1.5343,1.4172,1.3301,1.4465,1.3284,1.0608,0.9123,0.8244,0.7897,0.724,0.5923,0.4936,0.4544,0.4244,0.4683,0.5497,0.6382,0.6966,0.696,0.699,0.6929,3.9424,3.9424,3.9424,3.9424,3.9424,3.9424,3.9415,3.9028,3.7282,3.5155,3.3385,3.2593,3.2205,3.1436,3.1009,3.0382,2.9942,2.9867,2.9792,2.9779,2.9779,2.9779,2.9779,2.9779,2.9691,2.9453,2.8612,2.8185,2.7783,2.703,2.6559,2.6181,2.5501,2.5457,2.5327,2.3563,2.1915,2.0799,2.0576,2.0576,2.0576,2.0576,2.0576,2.0576,2.0576,2.0605,2.0605,2.0586,2.0576,2.0576,1.8698,1.8338,1.8877,1.7989,1.8069,1.8789,1.9,1.9474,2.0391,2.0703,2.0615,2.0614,2.0707,2.1089,2.1656,2.1564,2.1034,2.053,1.9826,2.0123,2.0447,2.0908,1.9923,1.8843,1.8411,1.7908,1.7397,1.6528,1.5852,1.5798,1.5825,1.5825,1.5825,1.5825,1.5825,1.5825,1.5825,1.5825,1.5825,1.5825,1.5825,1.573,1.573,1.573,1.573,1.5629,1.4854,1.4657,1.3108,1.1035,0.886,0.8056,0.7824,0.735,0.6617,0.5871,0.5094,0.497,0.5208,0.5708,0.6863,0.7094,0.7136,0.7014,0.7054,3.9424,3.9424,3.9424,3.9424,3.9424,3.9424,3.9427,3.9283,3.8052,3.582,3.3701,3.3313,3.289,3.2034,3.1035,3.0532,3.0294,2.998,2.9792,2.9779,2.9779,2.9779,2.9779,2.9779,2.9553,2.9214,2.8925,2.8323,2.7682,2.7548,2.6912,2.5539,2.5469,2.5137,2.4041,2.2897,2.1624,2.0799,2.0576,2.0576,2.0576,2.0576,2.0566,2.0489,2.0566,2.0596,2.0605,2.0586,2.0576,2.044,2.0096,1.9515,1.9134,1.8718,1.8736,1.9161,1.9794,2.0389,2.0917,2.1103,2.0931,2.0742,2.1077,2.1646,2.2644,2.2353,2.2074,2.1938,2.1855,2.1332,2.0829,1.943,1.8672,1.8048,1.7138,1.64,1.6197,1.5981,1.5785,1.5812,1.5825,1.5825,1.5825,1.5825,1.5825,1.5825,1.5825,1.5825,1.5825,1.5825,1.5825,1.5825,1.5825,1.5825,1.5825,1.5635,1.4956,1.4172,1.2721,1.1068,0.8985,0.797,0.7801,0.7804,0.759,0.6847,0.6053,0.6171,0.6495,0.6976,0.7182,0.7238,0.721,0.7193,0.6621,3.9424,3.9424,3.9424,3.9424,3.9424,3.9424,3.9424,3.9177,3.8219,3.6835,3.5137,3.4338,3.3313,3.2487,3.1225,3.0495,3.0206,2.9955,2.9779,2.9779,2.9779,2.9779,2.9779,2.9779,2.9591,2.9302,2.9026,2.8549,2.8235,2.7949,2.7249,2.5765,2.5397,2.4532,2.3384,2.2116,2.1175,2.0722,2.0576,2.0576,2.0576,2.0576,2.0245,2.0079,2.0255,2.0596,2.0632,2.0605,2.0586,2.0596,2.0605,2.0389,1.9794,1.9292,1.9375,2.0038,2.0572,2.1113,2.1426,2.1644,2.1621,2.1224,2.1499,2.2158,2.2804,2.28,2.2778,2.2658,2.21,2.1368,1.9827,1.8772,1.78,1.6972,1.6407,1.5825,1.5825,1.5825,1.5825,1.5825,1.5825,1.5825,1.5825,1.5825,1.5825,1.5825,1.5825,1.5825,1.5825,1.5825,1.5825,1.5825,1.5825,1.5825,1.5825,1.5343,1.4472,1.3596,1.2334,1.0578,0.8612,0.8082,0.7936,0.7868,0.7814,0.778,0.7244,0.7445,0.7359,0.7399,0.7424,0.7343,0.7288,0.7285,0.632,3.9424,3.9424,3.9424,3.9424,3.9424,3.9424,3.9424,3.9265,3.8457,3.7699,3.6912,3.4906,3.3647,3.2738,3.1185,3.0206,2.9917,2.9817,2.9779,2.9779,2.9779,2.9779,2.9779,2.9779,2.9767,2.9729,2.9365,2.9026,2.8775,2.8474,2.763,2.6288,2.5146,2.393,2.285,2.1622,2.0644,2.0566,2.0576,2.0576,2.0576,2.0566,2.0079,1.952,2.0089,2.04,2.0359,2.0429,2.0596,2.0635,2.0752,2.0801,2.0585,2.0055,1.9823,2.1131,2.1279,2.1572,2.1885,2.2105,2.2227,2.206,2.2061,2.2368,2.2916,2.2987,2.2824,2.224,2.1435,1.9819,1.7956,1.7412,1.685,1.6204,1.5825,1.5825,1.5825,1.5825,1.5825,1.5825,1.5825,1.5825,1.5825,1.5825,1.5825,1.5825,1.5825,1.5825,1.5825,1.5825,1.5825,1.5825,1.5825,1.5825,1.5825,1.5629,1.4663,1.321,1.1945,1.0485,0.8726,0.8209,0.7987,0.8007,0.797,0.7923,0.7862,0.7681,0.7607,0.7648,0.7529,0.7394,0.7363,0.7377,0.6292,3.9424,3.9424,3.9424,3.9424,3.9424,3.9424,3.9424,3.9337,3.9192,3.8443,3.7125,3.5342,3.3896,3.2684,3.0777,2.9892,2.9804,2.9779,2.9779,2.9779,2.9779,2.9779,2.9779,2.9779,2.9779,2.9779,2.9616,2.9377,2.9189,2.9163,2.7964,2.5873,2.5181,2.3959,2.1888,2.0703,2.0605,2.0576,2.0576,2.0576,2.0576,2.0566,2.0079,1.9283,2.001,2.0117,1.9743,2.0136,2.0615,2.0659,2.1332,2.1629,2.1565,2.1138,2.0999,2.1286,2.1641,2.1973,2.2334,2.2422,2.2617,2.2842,2.2843,2.2882,2.3047,2.2999,2.2589,2.1311,1.9761,1.8141,1.7785,1.6857,1.6197,1.5825,1.5825,1.5825,1.5825,1.5825,1.5825,1.5825,1.5825,1.5825,1.5825,1.5825,1.5825,1.5825,1.5825,1.5825,1.5825,1.5825,1.5825,1.5825,1.5825,1.5825,1.5825,1.5629,1.5051,1.321,1.1848,1.0783,0.9316,0.8333,0.8038,0.8038,0.8038,0.8001,0.7943,0.7889,0.7845,0.7784,0.7614,0.7441,0.7468,0.7495,0.7282,3.9424,3.9424,3.9424,3.9424,3.9424,3.9424,3.9424,3.9424,3.9337,3.8546,3.6991,3.5358,3.3813,3.2418,3.0714,2.9792,2.9779,2.9779,2.9779,2.9779,2.9779,2.9779,2.9779,2.9779,2.9779,2.9779,2.9767,2.9679,2.9428,2.9616,2.8228,2.6428,2.5622,2.4089,2.1899,2.1162,2.0879,2.0654,2.0576,2.0576,2.0576,2.0576,2.0001,1.9599,1.9923,2.0001,1.9478,2.0052,2.0582,2.0822,2.1868,2.2349,2.2386,2.2148,2.1875,2.1924,2.21,2.2393,2.2734,2.2832,2.2939,2.3076,2.3144,2.3144,2.3144,2.295,2.2227,2.0494,1.8948,1.7404,1.6756,1.6109,1.592,1.5825,1.5825,1.5825,1.5825,1.5825,1.5825,1.5825,1.5825,1.5825,1.5825,1.5825,1.5825,1.5825,1.5825,1.5825,1.5825,1.5825,1.5825,1.5825,1.5825,1.5825,1.5825,1.573,1.5242,1.3494,1.2134,1.097,0.9805,0.8722,0.8233,0.8038,0.8038,0.8038,0.8021,0.7967,0.7943,0.7923,0.7824,0.7726,0.7658,0.75,0.7297,3.9424,3.9424,3.9424,3.9424,3.9424,3.9424,3.9424,3.9394,3.9245,3.8368,3.6909,3.518,3.3527,3.2101,3.0689,2.9779,2.9779,2.9779,2.9779,2.9779,2.9779,2.9779,2.9779,2.9779,2.9779,2.9779,2.9779,2.9779,2.9716,2.9767,2.853,2.6829,2.5959,2.4492,2.2401,2.135,2.1036,2.0791,2.0576,2.0576,2.0576,2.0566,2.0245,1.9441,2.0157,2.0196,1.9795,2.0193,2.0719,2.126,2.2172,2.3069,2.3076,2.2794,2.2627,2.2637,2.2637,2.2842,2.3008,2.3105,2.3096,2.3144,2.3144,2.3144,2.2862,2.2403,2.14,1.9679,1.8041,1.6943,1.6109,1.5825,1.5825,1.5825,1.5825,1.5825,1.5825,1.5825,1.5825,1.5825,1.5825,1.5825,1.5825,1.5825,1.5825,1.5825,1.5825,1.5825,1.5825,1.5825,1.5825,1.5825,1.5825,1.5825,1.5825,1.5825,1.514,1.3878,1.2807,1.1736,1.0378,0.9114,0.8623,0.8134,0.8038,0.8038,0.8038,0.8038,0.8004,0.7991,0.7922,0.7454,0.6523,0.6936,0.7445,3.9424,3.9424,3.9424,3.9424,3.9424,3.9424,3.9424,3.9349,3.8811,3.7955,3.6661,3.4787,3.3186,3.1906,3.0458,2.9882,2.9779,2.9779,2.9779,2.9779,2.9779,2.9779,2.9779,2.9779,2.9779,2.9779,2.9779,2.9779,2.9779,2.9779,2.87,2.6897,2.5744,2.4216,2.2207,2.136,2.0644,2.0586,2.0576,2.0576,2.0576,2.0576,2.0479,2.0401,2.0508,2.0654,2.0608,2.078,2.102,2.1774,2.2591,2.3077,2.3055,2.3037,2.3066,2.3066,2.3076,2.3086,2.3135,2.3144,2.3144,2.3144,2.3144,2.3144,2.2775,2.1489,2.0305,1.9579,1.7576,1.6292,1.5927,1.5825,1.5825,1.5825,1.5825,1.5825,1.5825,1.5825,1.5825,1.5825,1.5825,1.5825,1.5825,1.5825,1.5825,1.5825,1.5825,1.5832,1.5825,1.5825,1.5825,1.5825,1.5825,1.5825,1.5825,1.5825,1.5432,1.4262,1.3375,1.2506,1.1473,1.0216,0.8817,0.8428,0.8233,0.8038,0.8038,0.8038,0.8038,0.7932,0.7925,0.6454,0.47,0.5744,0.7498,3.9065,3.9424,3.9424,3.9424,3.9424,3.9424,3.9424,3.9275,3.8691,3.7344,3.5631,3.4287,3.2617,3.1034,3.0009,2.9792,2.9779,2.9779,2.9779,2.9779,2.9779,2.9779,2.9779,2.9779,2.9779,2.9779,2.9779,2.9779,2.9779,2.9624,2.887,2.7544,2.6232,2.4497,2.2289,2.1507,2.1016,2.0742,2.0576,2.0576,2.0576,2.0576,2.0576,2.0576,2.0576,2.084,2.1092,2.1413,2.1549,2.2138,2.281,2.3065,2.3096,2.3135,2.3135,2.3135,2.3135,2.3135,2.3144,2.3144,2.3144,2.3144,2.3144,2.3144,2.2765,2.1578,2.0034,1.9488,1.7948,1.6669,1.5927,1.5825,1.5825,1.5825,1.5825,1.5825,1.5825,1.5825,1.5825,1.5825,1.5838,1.5872,1.5905,1.5939,1.5912,1.5838,1.5852,1.5777,1.5852,1.5825,1.5825,1.5825,1.5825,1.5825,1.5825,1.5825,1.5825,1.4943,1.3753,1.3097,1.2694,1.1629,0.971,0.852,0.8134,0.8038,0.8038,0.8038,0.8038,0.7925,0.7912,0.6366,0.5051,0.6289,0.7681,3.8647,3.8916,3.8916,3.9005,3.9155,3.917,3.926,3.9247,3.8169,3.6577,3.4692,3.3199,3.1425,3.0241,2.9804,2.9779,2.9779,2.9779,2.9779,2.9779,2.9779,2.9779,2.9779,2.9779,2.9779,2.9779,2.9779,2.9779,2.9779,2.9702,2.9197,2.8084,2.6668,2.4903,2.291,2.1646,2.1031,2.0635,2.0576,2.0576,2.0576,2.0576,2.0576,2.0605,2.0703,2.0947,2.1377,2.1613,2.202,2.2551,2.2843,2.3115,2.3144,2.3144,2.3144,2.3144,2.3144,2.3144,2.3144,2.3144,2.3144,2.3144,2.294,2.2746,2.1841,2.123,2.0296,1.9039,1.777,1.6662,1.6109,1.5825,1.5825,1.5825,1.5825,1.5825,1.5838,1.5865,1.5872,1.5858,1.5899,1.5992,1.6032,1.6072,1.6019,1.5885,1.577,1.5823,1.5823,1.5817,1.5763,1.577,1.5825,1.5825,1.5825,1.5825,1.5825,1.5527,1.4333,1.3913,1.3831,1.1913,0.9477,0.8601,0.8035,0.8038,0.8038,0.8038,0.8038,0.7932,0.773,0.6631,0.6137,0.7199,0.7818,3.8141,3.7539,3.7554,3.7943,3.8497,3.8452,3.8841,3.8969,3.7126,3.5609,3.4073,3.1714,3.0241,2.9869,2.9779,2.9779,2.9779,2.9779,2.9779,2.9779,2.9779,2.9779,2.9779,2.9779,2.9779,2.9779,2.9779,2.9779,2.9779,2.9779,2.9106,2.806,2.676,2.5484,2.3748,2.2069,2.0983,2.0605,2.0605,2.0576,2.0586,2.0518,2.0547,2.0703,2.0986,2.1396,2.1826,2.1878,2.2244,2.2882,2.2999,2.3144,2.3144,2.3144,2.3144,2.3144,2.3144,2.3144,2.3144,2.3144,2.3144,2.3144,2.294,2.223,2.0616,2.0039,1.9115,1.8241,1.7276,1.6421,1.594,1.5838,1.5856,1.5932,1.5972,1.5807,1.58,1.5945,1.5945,1.5912,1.6005,1.6179,1.6266,1.6326,1.6279,1.6152,1.6062,1.6115,1.5939,1.5899,1.5876,1.5817,1.5845,1.5825,1.5825,1.5825,1.5825,1.5527,1.4734,1.4961,1.5221,1.2628,0.886,0.8506,0.8038,0.8038,0.8038,0.8038,0.8041,0.7945,0.7646,0.6948,0.6648,0.7275,0.7792,3.7156,3.6806,3.6417,3.7075,3.8377,3.8377,3.8243,3.7711,3.6476,3.4787,3.2863,3.0791,2.9779,2.9779,2.9779,2.9779,2.9779,2.9779,2.9779,2.9779,2.9779,2.9779,2.9779,2.9779,2.9779,2.9779,2.9779,2.9779,2.9779,2.9779,2.9106,2.8012,2.6783,2.6334,2.4908,2.2605,2.0992,2.0661,2.0625,2.0586,2.0459,2.0118,2.0221,2.1006,2.0445,2.1208,2.1935,2.1957,2.2409,2.2901,2.3038,2.3144,2.3144,2.3144,2.3144,2.3144,2.3144,2.3144,2.3144,2.3144,2.3144,2.3144,2.294,2.2133,1.9966,2.0103,1.9381,1.8365,1.7326,1.6717,1.5872,1.5809,1.5914,1.6095,1.6159,1.5998,1.5901,1.6069,1.6303,1.635,1.6373,1.652,1.6573,1.662,1.6533,1.6446,1.6374,1.6282,1.6216,1.6071,1.5945,1.587,1.5885,1.5832,1.5825,1.5825,1.5825,1.5432,1.5032,1.4858,1.457,1.1292,0.8266,0.8011,0.8038,0.8038,0.8038,0.8038,0.8041,0.8045,0.7955,0.7769,0.7669,0.7563,0.7762,3.6411,3.6163,3.5908,3.6552,3.7764,3.7823,3.7423,3.662,3.5625,3.3762,3.1343,3.0227,2.9779,2.9779,2.9779,2.9779,2.9779,2.9779,2.9779,2.9779,2.9779,2.9779,2.9779,2.9779,2.9779,2.9779,2.9779,2.9779,2.9779,2.9779,2.9106,2.8108,2.7116,2.6606,2.5749,2.337,2.124,2.1047,2.0854,2.0947,2.0866,2.0576,2.0492,2.1312,2.1135,2.1428,2.2262,2.2417,2.263,2.295,2.3144,2.3144,2.3144,2.3144,2.3144,2.3144,2.3144,2.3144,2.3144,2.3144,2.3144,2.3144,2.3135,2.1924,2.0666,2.04,1.9535,1.7669,1.7445,1.7258,1.5989,1.598,1.6341,1.6643,1.6762,1.6599,1.6394,1.6381,1.6652,1.6925,1.6948,1.6847,1.6914,1.6954,1.6806,1.6713,1.6572,1.668,1.6841,1.656,1.6097,1.6009,1.5919,1.5865,1.5825,1.5825,1.573,1.5432,1.4841,1.3698,1.2452,0.9543,0.8076,0.8018,0.8038,0.8038,0.8038,0.8038,0.8038,0.8038,0.7952,0.7965,0.7859,0.7753,0.7856,3.6163,3.5659,3.6163,3.6462,3.6611,3.6537,3.632,3.5655,3.4147,3.2252,3.0278,2.9842,2.9779,2.9779,2.9779,2.9779,2.9779,2.9779,2.9779,2.9779,2.9779,2.9779,2.9779,2.9779,2.9779,2.9779,2.9779,2.9779,2.9779,2.9779,2.9106,2.7855,2.6637,2.5979,2.6157,2.4176,2.2616,2.1934,2.1593,2.1598,2.1607,2.1438,2.1422,2.1787,2.1824,2.2017,2.2475,2.2775,2.294,2.3018,2.3144,2.3144,2.3144,2.3144,2.3144,2.3144,2.3144,2.3144,2.3144,2.3144,2.3106,2.3164,2.3232,2.2122,2.0711,1.998,1.9162,1.7337,1.6932,1.6866,1.644,1.6373,1.6754,1.7068,1.7196,1.7163,1.686,1.6759,1.7049,1.7204,1.7177,1.7161,1.7241,1.7295,1.7171,1.7001,1.6813,1.6856,1.7225,1.6867,1.6256,1.6095,1.5972,1.5872,1.5825,1.5825,1.5724,1.533,1.4453,1.3108,1.1541,0.9453,0.8389,0.8131,0.8038,0.8137,0.8137,0.8137,0.8726,0.9213,0.8233,0.7945,0.7942,0.8045,0.8048,3.5733,3.5519,3.5744,3.5833,3.5813,3.5619,3.5107,3.4122,3.2137,3.0804,3.0375,2.998,2.9779,2.9779,2.9779,2.9779,2.9779,2.9779,2.9779,2.9779,2.9779,2.9779,2.9779,2.9779,2.9779,2.9779,2.9779,2.9779,2.9779,2.9702,2.8542,2.7128,2.5473,2.4358,2.3953,2.2945,2.2288,2.2503,2.2276,2.1987,2.1851,2.1531,2.1589,2.223,2.2064,2.2235,2.2794,2.3086,2.3125,2.3144,2.3144,2.3144,2.3144,2.3144,2.3144,2.3144,2.3144,2.3144,2.3115,2.3124,2.3328,2.3405,2.3252,2.2263,2.0281,1.9774,1.8513,1.7348,1.7022,1.6894,1.664,1.7005,1.7338,1.7442,1.7469,1.7502,1.7341,1.7335,1.7472,1.7486,1.7428,1.7408,1.7455,1.7442,1.7324,1.7337,1.714,1.7138,1.749,1.686,1.6328,1.6162,1.6039,1.5905,1.5825,1.5825,1.5825,1.5534,1.4064,1.2119,1.0542,0.9166,0.8403,0.8038,0.8134,0.8233,0.892,0.9608,1.0386,1.0485,0.9505,0.9019,0.9217,0.8825,0.8041,3.5489,3.5439,3.5133,3.4986,3.4964,3.4762,3.3988,3.2548,3.0662,3.0018,3.0181,2.993,2.9779,2.9779,2.9779,2.9779,2.9779,2.9779,2.9779,2.9779,2.9779,2.9779,2.9779,2.9779,2.9779,2.9779,2.9779,2.9779,2.9702,2.9365,2.7947,2.5964,2.4059,2.357,2.3047,2.2765,2.2639,2.2896,2.2644,2.2526,2.2291,2.2036,2.2006,2.2342,2.2408,2.2375,2.2853,2.3144,2.3144,2.3144,2.3144,2.3144,2.3144,2.3144,2.3144,2.3144,2.3144,2.3213,2.331,2.3102,2.3309,2.3492,2.3466,2.2362,2.0426,1.9709,1.8662,1.768,1.7291,1.7154,1.7121,1.7522,1.7586,1.7576,1.7617,1.764,1.7549,1.7522,1.7522,1.7562,1.7575,1.7582,1.7589,1.7575,1.7549,1.7562,1.7569,1.7546,1.7488,1.6927,1.6407,1.6261,1.6086,1.5899,1.5825,1.5825,1.5832,1.5737,1.3974,1.1731,1.0756,0.9579,0.8814,0.8137,0.8627,0.9312,1.0386,1.117,1.175,1.1653,1.097,1.0681,1.0681,0.9998,0.9019,3.5489,3.5359,3.4394,3.4027,3.4027,3.3879,3.2791,3.1132,3.0216,2.9804,2.9804,2.9817,2.9779,2.9779,2.9779,2.9779,2.9779,2.9779,2.9779,2.9779,2.9779,2.9779,2.9779,2.9779,2.9779,2.9779,2.9779,2.9779,2.9624,2.8621,2.6953,2.5126,2.38,2.3222,2.3018,2.2979,2.294,2.2998,2.2969,2.2891,2.2727,2.2911,2.2756,2.2872,2.2921,2.2862,2.3144,2.3144,2.3144,2.3144,2.3144,2.3144,2.3144,2.3144,2.3144,2.3184,2.3213,2.3417,2.374,2.3528,2.3223,2.3342,2.3131,2.2224,2.0933,1.9459,1.8359,1.7874,1.7468,1.7508,1.7575,1.7575,1.7569,1.7647,1.7647,1.7582,1.7582,1.7575,1.7575,1.7582,1.7582,1.7589,1.7589,1.7589,1.7582,1.7549,1.7522,1.7428,1.7345,1.7042,1.6554,1.6473,1.6192,1.5892,1.5825,1.5825,1.5825,1.5832,1.3692,1.1643,1.0867,0.9891,0.8722,0.8333,0.9414,1.0391,1.1653,1.2425,1.2813,1.2619,1.2522,1.2134,1.2134,1.156,1.0779,3.5489,3.5359,3.4394,3.4013,3.3808,3.2607,3.1328,3.0216,2.9856,2.9779,2.9779,2.9779,2.9779,2.9779,2.9779,2.9779,2.9779,2.9779,2.9779,2.9779,2.9779,2.9779,2.9779,2.9779,2.9779,2.9779,2.9779,2.9779,2.9378,2.8119,2.6367,2.4872,2.3627,2.3222,2.3144,2.3144,2.3144,2.3144,2.3144,2.3144,2.3144,2.3144,2.3144,2.3144,2.3144,2.3144,2.3144,2.3144,2.3144,2.3144,2.3144,2.3144,2.3144,2.3154,2.3213,2.3613,2.3728,2.39,2.4258,2.4643,2.4306,2.2426,2.1145,2.0192,1.9336,1.8846,1.8095,1.7759,1.7589,1.7589,1.7589,1.7589,1.7589,1.7589,1.7589,1.7589,1.7589,1.7589,1.7589,1.7589,1.7589,1.7589,1.7589,1.7589,1.7575,1.7522,1.7442,1.7341,1.7154,1.6847,1.6633,1.6453,1.6199,1.5872,1.5825,1.5825,1.5825,1.5439,1.3397,1.1848,1.1165,1.019,0.8623,0.8821,1.0288,1.1648,1.3102,1.3686,1.4172,1.4657,1.4657,1.4172,1.359,1.3011,1.2242,3.5489,3.5279,3.4041,3.3031,3.2191,3.1119,3.0279,2.9856,2.9779,2.9779,2.9779,2.9779,2.9779,2.9779,2.9779,2.9779,2.9779,2.9779,2.9779,2.9779,2.9779,2.9779,2.9779,2.9779,2.9779,2.9779,2.9779,2.9779,2.9131,2.7557,2.5797,2.4125,2.3299,2.3222,2.3144,2.3144,2.3144,2.3144,2.3144,2.3144,2.3144,2.3144,2.3144,2.3144,2.3144,2.3144,2.3144,2.3144,2.3144,2.3144,2.3144,2.3144,2.3144,2.3154,2.3174,2.3496,2.3504,2.3748,2.4072,2.4697,2.3843,2.1926,1.8988,1.806,1.8065,1.806,1.7725,1.7589,1.7589,1.7589,1.7589,1.7589,1.7589,1.7589,1.7589,1.7589,1.7589,1.7589,1.7589,1.7589,1.7589,1.7589,1.7589,1.7589,1.7569,1.7515,1.7355,1.7141,1.6941,1.666,1.6486,1.6346,1.6099,1.5825,1.5825,1.5825,1.5825,1.5242,1.3397,1.2042,1.1556,1.0485,0.9019,0.9801,1.1458,1.2813,1.4172,1.4949,1.5439,1.5825,1.5825,1.5242,1.4663,1.4472,1.3692,3.5424,3.5198,3.3339,3.1549,2.9921,2.9856,2.9869,2.9779,2.9779,2.9779,2.9779,2.9779,2.9779,2.9779,2.9779,2.9779,2.9779,2.9779,2.9779,2.9779,2.9779,2.9779,2.9779,2.9779,2.9779,2.9779,2.9702,2.9456,2.8882,2.7383,2.5389,2.3222,2.3135,2.3144,2.3144,2.3144,2.3144,2.3144,2.3144,2.3144,2.3144,2.3144,2.3144,2.3144,2.3144,2.3144,2.3144,2.3144,2.3144,2.3144,2.3144,2.3144,2.3144,2.3242,2.3262,2.3359,2.3446,2.376,2.3822,2.4031,2.2774,2.0591,1.7819,1.7079,1.7204,1.7529,1.7415,1.7562,1.7589,1.7589,1.7589,1.7589,1.7589,1.7589,1.7589,1.7589,1.7589,1.7589,1.7589,1.7589,1.7589,1.7589,1.7589,1.7589,1.7589,1.7522,1.7255,1.6974,1.6747,1.648,1.6306,1.6199,1.6019,1.5825,1.5825,1.5825,1.5825,1.4949,1.3204,1.2334,1.175,1.0583,0.9312,1.0872,1.2619,1.3878,1.514,1.5629,1.5825,1.5825,1.5825,1.5825,1.5635,1.5248,1.4561,3.5052,3.4177,3.2321,3.0833,2.9856,2.9779,2.9779,2.9779,2.9779,2.9779,2.9779,2.9779,2.9779,2.9779,2.9779,2.9779,2.9779,2.9779,2.9779,2.9779,2.9779,2.9779,2.9779,2.9779,2.9779,2.9779,2.9624,2.8882,2.7718,2.6554,2.5389,2.3387,2.3144,2.3144,2.3144,2.3144,2.3144,2.3144,2.3144,2.3144,2.3144,2.3144,2.3144,2.3144,2.3144,2.3144,2.3144,2.3144,2.3144,2.3144,2.3144,2.3144,2.3144,2.3437,2.3594,2.3672,2.3769,2.3916,2.364,2.3055,2.1696,2.0293,1.8222,1.7175,1.6787,1.6965,1.7198,1.7462,1.7589,1.7589,1.7589,1.7589,1.7589,1.7589,1.7589,1.7589,1.7589,1.7589,1.7589,1.7589,1.7589,1.7589,1.7589,1.7589,1.7589,1.7375,1.7021,1.674,1.658,1.6353,1.6092,1.5979,1.5945,1.5825,1.5825,1.573,1.5635,1.4854,1.3301,1.2528,1.1848,1.1263,1.0676,1.2231,1.3878,1.4848,1.5432,1.5629,1.5825,1.5825,1.5825,1.5825,1.5432,1.5045,1.4459,3.4905,3.3822,3.1947,3.062,2.9856,2.9779,2.9779,2.9779,2.9779,2.9779,2.9779,2.9779,2.9779,2.9779,2.9779,2.9779,2.9779,2.9779,2.9779,2.9779,2.9779,2.9779,2.9779,2.9779,2.9779,2.9702,2.9106,2.8119,2.6554,2.5724,2.4713,2.3299,2.3144,2.3144,2.3144,2.3144,2.3144,2.3144,2.3144,2.3144,2.3144,2.3144,2.3144,2.3144,2.3144,2.3144,2.3144,2.3144,2.3144,2.3144,2.3144,2.3144,2.3174,2.332,2.3437,2.3506,2.3623,2.3848,2.3396,2.229,2.0755,1.9304,1.7661,1.6323,1.6446,1.672,1.6967,1.7154,1.7515,1.7575,1.7582,1.7589,1.7589,1.7589,1.7589,1.7589,1.7589,1.7589,1.7589,1.7589,1.7589,1.7589,1.7589,1.7589,1.7569,1.7462,1.7068,1.672,1.652,1.6246,1.5979,1.5825,1.5825,1.5825,1.5825,1.5635,1.5439,1.4465,1.3204,1.2042,1.1263,1.1843,1.2328,1.3199,1.4076,1.5051,1.5534,1.5635,1.5825,1.5825,1.5825,1.5825,1.5242,1.4651,1.3782,3.4839,3.3602,3.1756,3.0558,2.9869,2.9779,2.9779,2.9779,2.9779,2.9779,2.9779,2.9779,2.9779,2.9779,2.9779,2.9779,2.9779,2.9779,2.9779,2.9779,2.9779,2.9779,2.9779,2.9779,2.9611,2.9197,2.8609,2.7452,2.6141,2.5389,2.4467,2.3387,2.3144,2.3144,2.3144,2.3144,2.3144,2.3144,2.3144,2.3144,2.3144,2.3144,2.3144,2.3144,2.3144,2.3144,2.3144,2.3144,2.3144,2.3144,2.3144,2.3144,2.3144,2.3213,2.3203,2.3262,2.3281,2.332,2.283,2.1545,2.007,1.8519,1.6741,1.6048,1.6206,1.646,1.6707,1.6941,1.7301,1.7535,1.7549,1.7589,1.7589,1.7589,1.7589,1.7589,1.7589,1.7582,1.7582,1.7582,1.7575,1.7575,1.7562,1.7562,1.7495,1.7402,1.7181,1.6881,1.656,1.6213,1.5905,1.5825,1.5825,1.5825,1.5825,1.5337,1.4949,1.3974,1.2716,1.1453,1.0578,1.1068,1.1843,1.3199,1.4076,1.4758,1.5343,1.5534,1.5635,1.573,1.5825,1.5635,1.4752,1.407,1.2915,3.4476,3.2735,3.0846,2.9921,2.9779,2.9779,2.9779,2.9779,2.9779,2.9779,2.9779,2.9779,2.9779,2.9779,2.9779,2.9779,2.9779,2.9779,2.9779,2.9779,2.9779,2.9779,2.9586,2.9291,2.9094,2.8609,2.7936,2.693,2.563,2.4967,2.4211,2.3222,2.3135,2.3144,2.3144,2.3144,2.3144,2.3144,2.3144,2.3144,2.3154,2.3154,2.3144,2.3144,2.3144,2.3144,2.3144,2.3144,2.3144,2.3144,2.3067,2.3076,2.3144,2.3144,2.3144,2.3144,2.3144,2.3086,2.2568,2.1015,1.9488,1.8295,1.6848,1.5972,1.6233,1.65,1.6673,1.672,1.7054,1.7368,1.7448,1.7555,1.7589,1.7589,1.7589,1.7589,1.7589,1.7575,1.7569,1.7549,1.7522,1.7502,1.7462,1.7428,1.7355,1.7208,1.6947,1.6653,1.6426,1.6126,1.5825,1.573,1.573,1.5825,1.573,1.4752,1.4166,1.3199,1.2226,1.097,1.0194,1.0194,1.1068,1.2522,1.3392,1.3974,1.4465,1.5051,1.554,1.573,1.5825,1.5534,1.4561,1.3397,1.2334]}]]